<?xml version="1.0" encoding="UTF-8" standalone="no" ?>
<gpx xmlns="http://www.topografix.com/GPX/1/1" xmlns:xsi="http://www.w3.org/2001/XMLSchema-instance" xsi:schemaLocation="http://www.topografix.com/GPX/1/1 http://www.topografix.com/GPX/1/1/gpx.xsd" version="1.1" creator="VisuGPX - https://www.visugpx.com">
  <metadata>
    <name>Grands Bois du Marais -Sermaise</name>
    <desc><![CDATA[Randonnée de 21km en boucle à partir de la gare de Sermaise]]></desc>
  </metadata>
  <trk>
    <name><![CDATA[Grands Bois du Marais_R]]></name>
    <trkseg>
      <trkpt lat="48.53574" lon="2.06916">
        <ele>90</ele>
        <time>2019-05-12T08:02:00Z</time>
      </trkpt>
      <trkpt lat="48.53599" lon="2.06964">
        <ele>92</ele>
        <time>2019-05-12T08:02:01Z</time>
      </trkpt>
      <trkpt lat="48.53612" lon="2.06989">
        <ele>94</ele>
        <time>2019-05-12T08:02:29Z</time>
      </trkpt>
      <trkpt lat="48.53643" lon="2.07046">
        <ele>96</ele>
        <time>2019-05-12T08:02:39Z</time>
      </trkpt>
      <trkpt lat="48.53656" lon="2.07072">
        <ele>96</ele>
        <time>2019-05-12T08:03:46Z</time>
      </trkpt>
      <trkpt lat="48.53673" lon="2.07096">
        <ele>97</ele>
        <time>2019-05-12T08:04:15Z</time>
      </trkpt>
      <trkpt lat="48.53676" lon="2.07099">
        <ele>97</ele>
      </trkpt>
      <trkpt lat="48.53683" lon="2.07098">
        <ele>98</ele>
        <time>2019-05-12T08:04:25Z</time>
      </trkpt>
      <trkpt lat="48.53689" lon="2.07108">
        <ele>98</ele>
        <time>2019-05-12T08:04:34Z</time>
      </trkpt>
      <trkpt lat="48.53695" lon="2.0712">
        <ele>98</ele>
        <time>2019-05-12T08:04:43Z</time>
      </trkpt>
      <trkpt lat="48.53702" lon="2.07129">
        <ele>98</ele>
        <time>2019-05-12T08:04:52Z</time>
      </trkpt>
      <trkpt lat="48.53707" lon="2.07141">
        <ele>97</ele>
        <time>2019-05-12T08:05:00Z</time>
      </trkpt>
      <trkpt lat="48.53713" lon="2.07153">
        <ele>96</ele>
        <time>2019-05-12T08:05:08Z</time>
      </trkpt>
      <trkpt lat="48.5372" lon="2.07165">
        <ele>96</ele>
        <time>2019-05-12T08:05:16Z</time>
      </trkpt>
      <trkpt lat="48.53726" lon="2.07176">
        <ele>95</ele>
        <time>2019-05-12T08:05:23Z</time>
      </trkpt>
      <trkpt lat="48.53733" lon="2.07187">
        <ele>95</ele>
        <time>2019-05-12T08:05:32Z</time>
      </trkpt>
      <trkpt lat="48.53739" lon="2.07198">
        <ele>95</ele>
        <time>2019-05-12T08:05:40Z</time>
      </trkpt>
      <trkpt lat="48.53746" lon="2.07207">
        <ele>94</ele>
        <time>2019-05-12T08:05:47Z</time>
      </trkpt>
      <trkpt lat="48.53753" lon="2.07218">
        <ele>94</ele>
        <time>2019-05-12T08:05:55Z</time>
      </trkpt>
      <trkpt lat="48.53759" lon="2.07229">
        <ele>93</ele>
        <time>2019-05-12T08:06:03Z</time>
      </trkpt>
      <trkpt lat="48.53766" lon="2.07238">
        <ele>93</ele>
        <time>2019-05-12T08:06:12Z</time>
      </trkpt>
      <trkpt lat="48.53771" lon="2.07252">
        <ele>91</ele>
        <time>2019-05-12T08:06:21Z</time>
      </trkpt>
      <trkpt lat="48.53777" lon="2.07261">
        <ele>92</ele>
        <time>2019-05-12T08:06:29Z</time>
      </trkpt>
      <trkpt lat="48.53783" lon="2.07272">
        <ele>92</ele>
        <time>2019-05-12T08:06:37Z</time>
      </trkpt>
      <trkpt lat="48.53787" lon="2.07285">
        <ele>92</ele>
        <time>2019-05-12T08:06:46Z</time>
      </trkpt>
      <trkpt lat="48.5379" lon="2.07299">
        <ele>92</ele>
        <time>2019-05-12T08:06:56Z</time>
      </trkpt>
      <trkpt lat="48.53795" lon="2.0731">
        <ele>92</ele>
        <time>2019-05-12T08:07:05Z</time>
      </trkpt>
      <trkpt lat="48.538" lon="2.07322">
        <ele>93</ele>
        <time>2019-05-12T08:07:14Z</time>
      </trkpt>
      <trkpt lat="48.53806" lon="2.07335">
        <ele>93</ele>
        <time>2019-05-12T08:07:23Z</time>
      </trkpt>
      <trkpt lat="48.53811" lon="2.07347">
        <ele>93</ele>
        <time>2019-05-12T08:07:32Z</time>
      </trkpt>
      <trkpt lat="48.53817" lon="2.07359">
        <ele>94</ele>
        <time>2019-05-12T08:07:41Z</time>
      </trkpt>
      <trkpt lat="48.53825" lon="2.07368">
        <ele>95</ele>
        <time>2019-05-12T08:07:51Z</time>
      </trkpt>
      <trkpt lat="48.53831" lon="2.07377">
        <ele>95</ele>
        <time>2019-05-12T08:08:00Z</time>
      </trkpt>
      <trkpt lat="48.53839" lon="2.07387">
        <ele>96</ele>
        <time>2019-05-12T08:08:09Z</time>
      </trkpt>
      <trkpt lat="48.53844" lon="2.074">
        <ele>97</ele>
        <time>2019-05-12T08:08:17Z</time>
      </trkpt>
      <trkpt lat="48.53848" lon="2.07413">
        <ele>97</ele>
        <time>2019-05-12T08:08:27Z</time>
      </trkpt>
      <trkpt lat="48.53855" lon="2.07424">
        <ele>98</ele>
        <time>2019-05-12T08:08:38Z</time>
      </trkpt>
      <trkpt lat="48.5386" lon="2.07436">
        <ele>99</ele>
        <time>2019-05-12T08:08:47Z</time>
      </trkpt>
      <trkpt lat="48.53866" lon="2.07447">
        <ele>99</ele>
        <time>2019-05-12T08:08:57Z</time>
      </trkpt>
      <trkpt lat="48.53873" lon="2.07458">
        <ele>100</ele>
        <time>2019-05-12T08:09:07Z</time>
      </trkpt>
      <trkpt lat="48.53879" lon="2.0747">
        <ele>100</ele>
        <time>2019-05-12T08:09:18Z</time>
      </trkpt>
      <trkpt lat="48.53886" lon="2.0748">
        <ele>101</ele>
        <time>2019-05-12T08:09:29Z</time>
      </trkpt>
      <trkpt lat="48.53891" lon="2.07492">
        <ele>101</ele>
        <time>2019-05-12T08:09:38Z</time>
      </trkpt>
      <trkpt lat="48.53897" lon="2.07503">
        <ele>101</ele>
        <time>2019-05-12T08:09:46Z</time>
      </trkpt>
      <trkpt lat="48.53903" lon="2.07515">
        <ele>101</ele>
        <time>2019-05-12T08:09:54Z</time>
      </trkpt>
      <trkpt lat="48.53909" lon="2.07527">
        <ele>101</ele>
        <time>2019-05-12T08:10:02Z</time>
      </trkpt>
      <trkpt lat="48.53914" lon="2.0754">
        <ele>101</ele>
        <time>2019-05-12T08:10:09Z</time>
      </trkpt>
      <trkpt lat="48.53917" lon="2.07553">
        <ele>100</ele>
        <time>2019-05-12T08:10:17Z</time>
      </trkpt>
      <trkpt lat="48.53921" lon="2.07566">
        <ele>100</ele>
        <time>2019-05-12T08:10:25Z</time>
      </trkpt>
      <trkpt lat="48.53927" lon="2.07578">
        <ele>100</ele>
        <time>2019-05-12T08:10:33Z</time>
      </trkpt>
      <trkpt lat="48.53931" lon="2.07592">
        <ele>100</ele>
        <time>2019-05-12T08:10:41Z</time>
      </trkpt>
      <trkpt lat="48.53934" lon="2.07605">
        <ele>100</ele>
        <time>2019-05-12T08:10:49Z</time>
      </trkpt>
      <trkpt lat="48.53938" lon="2.07618">
        <ele>101</ele>
        <time>2019-05-12T08:10:57Z</time>
      </trkpt>
      <trkpt lat="48.53941" lon="2.07633">
        <ele>101</ele>
        <time>2019-05-12T08:11:06Z</time>
      </trkpt>
      <trkpt lat="48.53945" lon="2.07646">
        <ele>102</ele>
        <time>2019-05-12T08:11:15Z</time>
      </trkpt>
      <trkpt lat="48.53946" lon="2.07661">
        <ele>102</ele>
        <time>2019-05-12T08:11:28Z</time>
      </trkpt>
      <trkpt lat="48.53949" lon="2.07675">
        <ele>102</ele>
        <time>2019-05-12T08:11:37Z</time>
      </trkpt>
      <trkpt lat="48.53953" lon="2.07688">
        <ele>102</ele>
        <time>2019-05-12T08:11:45Z</time>
      </trkpt>
      <trkpt lat="48.53958" lon="2.07701">
        <ele>103</ele>
        <time>2019-05-12T08:11:54Z</time>
      </trkpt>
      <trkpt lat="48.53963" lon="2.07712">
        <ele>104</ele>
        <time>2019-05-12T08:12:04Z</time>
      </trkpt>
      <trkpt lat="48.53969" lon="2.07724">
        <ele>105</ele>
        <time>2019-05-12T08:12:14Z</time>
      </trkpt>
      <trkpt lat="48.53973" lon="2.07738">
        <ele>105</ele>
        <time>2019-05-12T08:12:21Z</time>
      </trkpt>
      <trkpt lat="48.53978" lon="2.07751">
        <ele>106</ele>
        <time>2019-05-12T08:12:29Z</time>
      </trkpt>
      <trkpt lat="48.53981" lon="2.07766">
        <ele>105</ele>
        <time>2019-05-12T08:12:37Z</time>
      </trkpt>
      <trkpt lat="48.53982" lon="2.0778">
        <ele>104</ele>
        <time>2019-05-12T08:12:45Z</time>
      </trkpt>
      <trkpt lat="48.53984" lon="2.07794">
        <ele>103</ele>
        <time>2019-05-12T08:12:54Z</time>
      </trkpt>
      <trkpt lat="48.53986" lon="2.07808">
        <ele>102</ele>
        <time>2019-05-12T08:13:03Z</time>
      </trkpt>
      <trkpt lat="48.5399" lon="2.07822">
        <ele>102</ele>
        <time>2019-05-12T08:13:13Z</time>
      </trkpt>
      <trkpt lat="48.53991" lon="2.07836">
        <ele>101</ele>
        <time>2019-05-12T08:13:20Z</time>
      </trkpt>
      <trkpt lat="48.53996" lon="2.0785">
        <ele>100</ele>
        <time>2019-05-12T08:13:29Z</time>
      </trkpt>
      <trkpt lat="48.54003" lon="2.07861">
        <ele>100</ele>
        <time>2019-05-12T08:13:37Z</time>
      </trkpt>
      <trkpt lat="48.54009" lon="2.07871">
        <ele>100</ele>
        <time>2019-05-12T08:13:44Z</time>
      </trkpt>
      <trkpt lat="48.54019" lon="2.07878">
        <ele>101</ele>
        <time>2019-05-12T08:13:54Z</time>
      </trkpt>
      <trkpt lat="48.54028" lon="2.07879">
        <ele>103</ele>
        <time>2019-05-12T08:14:07Z</time>
      </trkpt>
      <trkpt lat="48.54036" lon="2.07885">
        <ele>104</ele>
        <time>2019-05-12T08:14:17Z</time>
      </trkpt>
      <trkpt lat="48.54045" lon="2.07889">
        <ele>106</ele>
        <time>2019-05-12T08:14:27Z</time>
      </trkpt>
      <trkpt lat="48.54052" lon="2.07897">
        <ele>106</ele>
        <time>2019-05-12T08:14:43Z</time>
      </trkpt>
      <trkpt lat="48.54061" lon="2.079">
        <ele>108</ele>
        <time>2019-05-12T08:14:53Z</time>
      </trkpt>
      <trkpt lat="48.5407" lon="2.07906">
        <ele>109</ele>
        <time>2019-05-12T08:15:00Z</time>
      </trkpt>
      <trkpt lat="48.5408" lon="2.07909">
        <ele>111</ele>
        <time>2019-05-12T08:15:11Z</time>
      </trkpt>
      <trkpt lat="48.54089" lon="2.07912">
        <ele>112</ele>
        <time>2019-05-12T08:15:26Z</time>
      </trkpt>
      <trkpt lat="48.54097" lon="2.07907">
        <ele>114</ele>
        <time>2019-05-12T08:15:37Z</time>
      </trkpt>
      <trkpt lat="48.54107" lon="2.07903">
        <ele>116</ele>
        <time>2019-05-12T08:15:48Z</time>
      </trkpt>
      <trkpt lat="48.54115" lon="2.07896">
        <ele>118</ele>
        <time>2019-05-12T08:15:57Z</time>
      </trkpt>
      <trkpt lat="48.54124" lon="2.07892">
        <ele>120</ele>
        <time>2019-05-12T08:16:07Z</time>
      </trkpt>
      <trkpt lat="48.54134" lon="2.07889">
        <ele>122</ele>
        <time>2019-05-12T08:16:21Z</time>
      </trkpt>
      <trkpt lat="48.54143" lon="2.07889">
        <ele>123</ele>
        <time>2019-05-12T08:16:33Z</time>
      </trkpt>
      <trkpt lat="48.54152" lon="2.0789">
        <ele>124</ele>
        <time>2019-05-12T08:16:46Z</time>
      </trkpt>
      <trkpt lat="48.54161" lon="2.07894">
        <ele>125</ele>
        <time>2019-05-12T08:16:58Z</time>
      </trkpt>
      <trkpt lat="48.5417" lon="2.07901">
        <ele>126</ele>
        <time>2019-05-12T08:17:10Z</time>
      </trkpt>
      <trkpt lat="48.54178" lon="2.07908">
        <ele>127</ele>
        <time>2019-05-12T08:17:19Z</time>
      </trkpt>
      <trkpt lat="48.54187" lon="2.07915">
        <ele>129</ele>
        <time>2019-05-12T08:17:29Z</time>
      </trkpt>
      <trkpt lat="48.54196" lon="2.07921">
        <ele>131</ele>
        <time>2019-05-12T08:17:41Z</time>
      </trkpt>
      <trkpt lat="48.54204" lon="2.0793">
        <ele>133</ele>
        <time>2019-05-12T08:17:54Z</time>
      </trkpt>
      <trkpt lat="48.54209" lon="2.07941">
        <ele>134</ele>
        <time>2019-05-12T08:18:10Z</time>
      </trkpt>
      <trkpt lat="48.54214" lon="2.07952">
        <ele>135</ele>
        <time>2019-05-12T08:18:21Z</time>
      </trkpt>
      <trkpt lat="48.54221" lon="2.07963">
        <ele>136</ele>
        <time>2019-05-12T08:18:42Z</time>
      </trkpt>
      <trkpt lat="48.5423" lon="2.07969">
        <ele>138</ele>
        <time>2019-05-12T08:18:51Z</time>
      </trkpt>
      <trkpt lat="48.54238" lon="2.07977">
        <ele>139</ele>
        <time>2019-05-12T08:19:02Z</time>
      </trkpt>
      <trkpt lat="48.54248" lon="2.0798">
        <ele>141</ele>
        <time>2019-05-12T08:19:13Z</time>
      </trkpt>
      <trkpt lat="48.54256" lon="2.07983">
        <ele>143</ele>
        <time>2019-05-12T08:19:24Z</time>
      </trkpt>
      <trkpt lat="48.54265" lon="2.07984">
        <ele>144</ele>
        <time>2019-05-12T08:19:39Z</time>
      </trkpt>
      <trkpt lat="48.54274" lon="2.07991">
        <ele>145</ele>
        <time>2019-05-12T08:19:56Z</time>
      </trkpt>
      <trkpt lat="48.54283" lon="2.07996">
        <ele>146</ele>
        <time>2019-05-12T08:20:10Z</time>
      </trkpt>
      <trkpt lat="48.54291" lon="2.08004">
        <ele>147</ele>
        <time>2019-05-12T08:20:24Z</time>
      </trkpt>
      <trkpt lat="48.54298" lon="2.08013">
        <ele>148</ele>
        <time>2019-05-12T08:20:38Z</time>
      </trkpt>
      <trkpt lat="48.54307" lon="2.08022">
        <ele>150</ele>
        <time>2019-05-12T08:20:51Z</time>
      </trkpt>
      <trkpt lat="48.54314" lon="2.08031">
        <ele>151</ele>
        <time>2019-05-12T08:21:03Z</time>
      </trkpt>
      <trkpt lat="48.54322" lon="2.0804">
        <ele>153</ele>
        <time>2019-05-12T08:21:16Z</time>
      </trkpt>
      <trkpt lat="48.5433" lon="2.08048">
        <ele>154</ele>
        <time>2019-05-12T08:21:29Z</time>
      </trkpt>
      <trkpt lat="48.54338" lon="2.08055">
        <ele>155</ele>
        <time>2019-05-12T08:21:41Z</time>
      </trkpt>
      <trkpt lat="48.54346" lon="2.08063">
        <ele>156</ele>
        <time>2019-05-12T08:21:56Z</time>
      </trkpt>
      <trkpt lat="48.54353" lon="2.08072">
        <ele>157</ele>
        <time>2019-05-12T08:22:10Z</time>
      </trkpt>
      <trkpt lat="48.54359" lon="2.08082">
        <ele>157</ele>
        <time>2019-05-12T08:22:24Z</time>
      </trkpt>
      <trkpt lat="48.54365" lon="2.08093">
        <ele>158</ele>
        <time>2019-05-12T08:22:37Z</time>
      </trkpt>
      <trkpt lat="48.54374" lon="2.0809">
        <ele>158</ele>
        <time>2019-05-12T08:22:57Z</time>
      </trkpt>
      <trkpt lat="48.54382" lon="2.08098">
        <ele>159</ele>
        <time>2019-05-12T08:23:33Z</time>
      </trkpt>
      <trkpt lat="48.54391" lon="2.08101">
        <ele>159</ele>
        <time>2019-05-12T08:24:26Z</time>
      </trkpt>
      <trkpt lat="48.54381" lon="2.08101">
        <ele>159</ele>
        <time>2019-05-12T08:25:18Z</time>
      </trkpt>
      <trkpt lat="48.54389" lon="2.08107">
        <ele>159</ele>
        <time>2019-05-12T08:26:10Z</time>
      </trkpt>
      <trkpt lat="48.54398" lon="2.08105">
        <ele>160</ele>
        <time>2019-05-12T08:26:23Z</time>
      </trkpt>
      <trkpt lat="48.54407" lon="2.08106">
        <ele>160</ele>
        <time>2019-05-12T08:26:35Z</time>
      </trkpt>
      <trkpt lat="48.54416" lon="2.08111">
        <ele>161</ele>
        <time>2019-05-12T08:26:47Z</time>
      </trkpt>
      <trkpt lat="48.54426" lon="2.08113">
        <ele>160</ele>
        <time>2019-05-12T08:26:57Z</time>
      </trkpt>
      <trkpt lat="48.54437" lon="2.08113">
        <ele>160</ele>
        <time>2019-05-12T08:27:02Z</time>
      </trkpt>
      <trkpt lat="48.54445" lon="2.08118">
        <ele>159</ele>
        <time>2019-05-12T08:27:12Z</time>
      </trkpt>
      <trkpt lat="48.54454" lon="2.08121">
        <ele>159</ele>
        <time>2019-05-12T08:27:24Z</time>
      </trkpt>
      <trkpt lat="48.54464" lon="2.08125">
        <ele>158</ele>
        <time>2019-05-12T08:27:33Z</time>
      </trkpt>
      <trkpt lat="48.54473" lon="2.08126">
        <ele>158</ele>
        <time>2019-05-12T08:27:41Z</time>
      </trkpt>
      <trkpt lat="48.54484" lon="2.08127">
        <ele>157</ele>
        <time>2019-05-12T08:27:50Z</time>
      </trkpt>
      <trkpt lat="48.5449" lon="2.08137">
        <ele>157</ele>
        <time>2019-05-12T08:28:50Z</time>
      </trkpt>
      <trkpt lat="48.54499" lon="2.08143">
        <ele>157</ele>
        <time>2019-05-12T08:29:01Z</time>
      </trkpt>
      <trkpt lat="48.54508" lon="2.08143">
        <ele>156</ele>
        <time>2019-05-12T08:29:08Z</time>
      </trkpt>
      <trkpt lat="48.54518" lon="2.08143">
        <ele>156</ele>
        <time>2019-05-12T08:29:15Z</time>
      </trkpt>
      <trkpt lat="48.54527" lon="2.08141">
        <ele>155</ele>
        <time>2019-05-12T08:29:22Z</time>
      </trkpt>
      <trkpt lat="48.54537" lon="2.08141">
        <ele>154</ele>
        <time>2019-05-12T08:29:28Z</time>
      </trkpt>
      <trkpt lat="48.54547" lon="2.08141">
        <ele>154</ele>
        <time>2019-05-12T08:29:35Z</time>
      </trkpt>
      <trkpt lat="48.54556" lon="2.08143">
        <ele>153</ele>
        <time>2019-05-12T08:29:42Z</time>
      </trkpt>
      <trkpt lat="48.54566" lon="2.08144">
        <ele>153</ele>
        <time>2019-05-12T08:29:49Z</time>
      </trkpt>
      <trkpt lat="48.54576" lon="2.08144">
        <ele>152</ele>
        <time>2019-05-12T08:29:56Z</time>
      </trkpt>
      <trkpt lat="48.54585" lon="2.08145">
        <ele>151</ele>
        <time>2019-05-12T08:30:03Z</time>
      </trkpt>
      <trkpt lat="48.54595" lon="2.08144">
        <ele>151</ele>
        <time>2019-05-12T08:30:11Z</time>
      </trkpt>
      <trkpt lat="48.54605" lon="2.08143">
        <ele>151</ele>
        <time>2019-05-12T08:30:19Z</time>
      </trkpt>
      <trkpt lat="48.54615" lon="2.08142">
        <ele>151</ele>
        <time>2019-05-12T08:30:27Z</time>
      </trkpt>
      <trkpt lat="48.54625" lon="2.08141">
        <ele>151</ele>
        <time>2019-05-12T08:30:35Z</time>
      </trkpt>
      <trkpt lat="48.54634" lon="2.08141">
        <ele>151</ele>
        <time>2019-05-12T08:30:43Z</time>
      </trkpt>
      <trkpt lat="48.54644" lon="2.08141">
        <ele>150</ele>
        <time>2019-05-12T08:30:50Z</time>
      </trkpt>
      <trkpt lat="48.54653" lon="2.08139">
        <ele>150</ele>
        <time>2019-05-12T08:30:58Z</time>
      </trkpt>
      <trkpt lat="48.54663" lon="2.08139">
        <ele>150</ele>
        <time>2019-05-12T08:31:09Z</time>
      </trkpt>
      <trkpt lat="48.54672" lon="2.0814">
        <ele>150</ele>
        <time>2019-05-12T08:31:19Z</time>
      </trkpt>
      <trkpt lat="48.54682" lon="2.0814">
        <ele>150</ele>
        <time>2019-05-12T08:31:30Z</time>
      </trkpt>
      <trkpt lat="48.54692" lon="2.08141">
        <ele>149</ele>
        <time>2019-05-12T08:31:40Z</time>
      </trkpt>
      <trkpt lat="48.54701" lon="2.08141">
        <ele>149</ele>
        <time>2019-05-12T08:31:49Z</time>
      </trkpt>
      <trkpt lat="48.54711" lon="2.08138">
        <ele>149</ele>
        <time>2019-05-12T08:31:59Z</time>
      </trkpt>
      <trkpt lat="48.54721" lon="2.08138">
        <ele>149</ele>
        <time>2019-05-12T08:32:07Z</time>
      </trkpt>
      <trkpt lat="48.5473" lon="2.08138">
        <ele>149</ele>
        <time>2019-05-12T08:32:15Z</time>
      </trkpt>
      <trkpt lat="48.5474" lon="2.08138">
        <ele>149</ele>
        <time>2019-05-12T08:32:23Z</time>
      </trkpt>
      <trkpt lat="48.5475" lon="2.08137">
        <ele>148</ele>
        <time>2019-05-12T08:32:31Z</time>
      </trkpt>
      <trkpt lat="48.54759" lon="2.08136">
        <ele>148</ele>
        <time>2019-05-12T08:32:39Z</time>
      </trkpt>
      <trkpt lat="48.54769" lon="2.08135">
        <ele>148</ele>
        <time>2019-05-12T08:32:47Z</time>
      </trkpt>
      <trkpt lat="48.54778" lon="2.08134">
        <ele>148</ele>
        <time>2019-05-12T08:32:55Z</time>
      </trkpt>
      <trkpt lat="48.54788" lon="2.08134">
        <ele>148</ele>
        <time>2019-05-12T08:33:03Z</time>
      </trkpt>
      <trkpt lat="48.54799" lon="2.08133">
        <ele>148</ele>
        <time>2019-05-12T08:33:12Z</time>
      </trkpt>
      <trkpt lat="48.54808" lon="2.08133">
        <ele>148</ele>
        <time>2019-05-12T08:33:21Z</time>
      </trkpt>
      <trkpt lat="48.54818" lon="2.08134">
        <ele>148</ele>
        <time>2019-05-12T08:33:30Z</time>
      </trkpt>
      <trkpt lat="48.54827" lon="2.08132">
        <ele>147</ele>
        <time>2019-05-12T08:33:39Z</time>
      </trkpt>
      <trkpt lat="48.54836" lon="2.08132">
        <ele>147</ele>
        <time>2019-05-12T08:33:47Z</time>
      </trkpt>
      <trkpt lat="48.54846" lon="2.08131">
        <ele>147</ele>
        <time>2019-05-12T08:33:56Z</time>
      </trkpt>
      <trkpt lat="48.54855" lon="2.08131">
        <ele>147</ele>
        <time>2019-05-12T08:34:04Z</time>
      </trkpt>
      <trkpt lat="48.54865" lon="2.0813">
        <ele>147</ele>
        <time>2019-05-12T08:34:12Z</time>
      </trkpt>
      <trkpt lat="48.54875" lon="2.0813">
        <ele>147</ele>
        <time>2019-05-12T08:34:19Z</time>
      </trkpt>
      <trkpt lat="48.54885" lon="2.08131">
        <ele>147</ele>
        <time>2019-05-12T08:34:27Z</time>
      </trkpt>
      <trkpt lat="48.54894" lon="2.0813">
        <ele>147</ele>
        <time>2019-05-12T08:34:35Z</time>
      </trkpt>
      <trkpt lat="48.54903" lon="2.08126">
        <ele>147</ele>
        <time>2019-05-12T08:34:43Z</time>
      </trkpt>
      <trkpt lat="48.54912" lon="2.08127">
        <ele>147</ele>
        <time>2019-05-12T08:34:51Z</time>
      </trkpt>
      <trkpt lat="48.54921" lon="2.08127">
        <ele>146</ele>
        <time>2019-05-12T08:35:00Z</time>
      </trkpt>
      <trkpt lat="48.54931" lon="2.08128">
        <ele>146</ele>
        <time>2019-05-12T08:35:09Z</time>
      </trkpt>
      <trkpt lat="48.54941" lon="2.08128">
        <ele>146</ele>
        <time>2019-05-12T08:35:18Z</time>
      </trkpt>
      <trkpt lat="48.54952" lon="2.08127">
        <ele>146</ele>
        <time>2019-05-12T08:35:26Z</time>
      </trkpt>
      <trkpt lat="48.54962" lon="2.08127">
        <ele>146</ele>
        <time>2019-05-12T08:35:34Z</time>
      </trkpt>
      <trkpt lat="48.54972" lon="2.08125">
        <ele>146</ele>
        <time>2019-05-12T08:35:42Z</time>
      </trkpt>
      <trkpt lat="48.54981" lon="2.08124">
        <ele>146</ele>
        <time>2019-05-12T08:35:50Z</time>
      </trkpt>
      <trkpt lat="48.54991" lon="2.08124">
        <ele>146</ele>
        <time>2019-05-12T08:35:58Z</time>
      </trkpt>
      <trkpt lat="48.55" lon="2.08124">
        <ele>145</ele>
        <time>2019-05-12T08:36:06Z</time>
      </trkpt>
      <trkpt lat="48.55009" lon="2.08124">
        <ele>145</ele>
        <time>2019-05-12T08:36:14Z</time>
      </trkpt>
      <trkpt lat="48.55019" lon="2.08125">
        <ele>146</ele>
        <time>2019-05-12T08:36:22Z</time>
      </trkpt>
      <trkpt lat="48.55028" lon="2.08125">
        <ele>146</ele>
        <time>2019-05-12T08:36:29Z</time>
      </trkpt>
      <trkpt lat="48.55038" lon="2.08124">
        <ele>145</ele>
        <time>2019-05-12T08:36:37Z</time>
      </trkpt>
      <trkpt lat="48.55047" lon="2.08122">
        <ele>145</ele>
        <time>2019-05-12T08:36:45Z</time>
      </trkpt>
      <trkpt lat="48.55056" lon="2.08122">
        <ele>145</ele>
        <time>2019-05-12T08:36:53Z</time>
      </trkpt>
      <trkpt lat="48.55066" lon="2.08122">
        <ele>145</ele>
        <time>2019-05-12T08:37:02Z</time>
      </trkpt>
      <trkpt lat="48.55075" lon="2.08121">
        <ele>145</ele>
        <time>2019-05-12T08:37:09Z</time>
      </trkpt>
      <trkpt lat="48.55086" lon="2.08122">
        <ele>146</ele>
        <time>2019-05-12T08:37:17Z</time>
      </trkpt>
      <trkpt lat="48.55095" lon="2.08121">
        <ele>146</ele>
        <time>2019-05-12T08:37:25Z</time>
      </trkpt>
      <trkpt lat="48.55104" lon="2.0812">
        <ele>147</ele>
        <time>2019-05-12T08:37:32Z</time>
      </trkpt>
      <trkpt lat="48.55114" lon="2.08119">
        <ele>147</ele>
        <time>2019-05-12T08:37:41Z</time>
      </trkpt>
      <trkpt lat="48.55123" lon="2.08119">
        <ele>148</ele>
        <time>2019-05-12T08:37:49Z</time>
      </trkpt>
      <trkpt lat="48.55133" lon="2.08119">
        <ele>148</ele>
        <time>2019-05-12T08:37:58Z</time>
      </trkpt>
      <trkpt lat="48.55143" lon="2.08119">
        <ele>149</ele>
        <time>2019-05-12T08:38:06Z</time>
      </trkpt>
      <trkpt lat="48.55152" lon="2.08118">
        <ele>150</ele>
        <time>2019-05-12T08:38:14Z</time>
      </trkpt>
      <trkpt lat="48.55161" lon="2.08118">
        <ele>150</ele>
        <time>2019-05-12T08:38:22Z</time>
      </trkpt>
      <trkpt lat="48.55171" lon="2.08118">
        <ele>151</ele>
        <time>2019-05-12T08:38:31Z</time>
      </trkpt>
      <trkpt lat="48.55181" lon="2.08116">
        <ele>152</ele>
        <time>2019-05-12T08:38:38Z</time>
      </trkpt>
      <trkpt lat="48.5519" lon="2.08115">
        <ele>153</ele>
        <time>2019-05-12T08:38:47Z</time>
      </trkpt>
      <trkpt lat="48.55187" lon="2.08102">
        <ele>152</ele>
        <time>2019-05-12T08:40:24Z</time>
      </trkpt>
      <trkpt lat="48.55189" lon="2.08088">
        <ele>152</ele>
        <time>2019-05-12T08:40:33Z</time>
      </trkpt>
      <trkpt lat="48.55192" lon="2.08075">
        <ele>152</ele>
        <time>2019-05-12T08:40:42Z</time>
      </trkpt>
      <trkpt lat="48.55194" lon="2.08061">
        <ele>152</ele>
        <time>2019-05-12T08:40:53Z</time>
      </trkpt>
      <trkpt lat="48.55197" lon="2.08048">
        <ele>152</ele>
        <time>2019-05-12T08:41:06Z</time>
      </trkpt>
      <trkpt lat="48.55201" lon="2.08035">
        <ele>152</ele>
        <time>2019-05-12T08:41:16Z</time>
      </trkpt>
      <trkpt lat="48.55203" lon="2.0802">
        <ele>152</ele>
        <time>2019-05-12T08:41:26Z</time>
      </trkpt>
      <trkpt lat="48.55207" lon="2.08007">
        <ele>152</ele>
        <time>2019-05-12T08:41:37Z</time>
      </trkpt>
      <trkpt lat="48.55211" lon="2.07994">
        <ele>152</ele>
        <time>2019-05-12T08:41:49Z</time>
      </trkpt>
      <trkpt lat="48.55215" lon="2.0798">
        <ele>152</ele>
        <time>2019-05-12T08:41:59Z</time>
      </trkpt>
      <trkpt lat="48.55217" lon="2.07967">
        <ele>152</ele>
        <time>2019-05-12T08:42:09Z</time>
      </trkpt>
      <trkpt lat="48.55218" lon="2.07953">
        <ele>152</ele>
        <time>2019-05-12T08:42:19Z</time>
      </trkpt>
      <trkpt lat="48.55219" lon="2.07938">
        <ele>152</ele>
        <time>2019-05-12T08:42:29Z</time>
      </trkpt>
      <trkpt lat="48.55222" lon="2.07924">
        <ele>151</ele>
        <time>2019-05-12T08:42:38Z</time>
      </trkpt>
      <trkpt lat="48.55226" lon="2.0791">
        <ele>151</ele>
        <time>2019-05-12T08:42:46Z</time>
      </trkpt>
      <trkpt lat="48.55227" lon="2.07895">
        <ele>151</ele>
        <time>2019-05-12T08:42:54Z</time>
      </trkpt>
      <trkpt lat="48.55229" lon="2.07881">
        <ele>151</ele>
        <time>2019-05-12T08:43:02Z</time>
      </trkpt>
      <trkpt lat="48.55231" lon="2.07867">
        <ele>151</ele>
        <time>2019-05-12T08:43:08Z</time>
      </trkpt>
      <trkpt lat="48.55233" lon="2.07853">
        <ele>150</ele>
        <time>2019-05-12T08:43:15Z</time>
      </trkpt>
      <trkpt lat="48.55239" lon="2.07841">
        <ele>151</ele>
        <time>2019-05-12T08:43:23Z</time>
      </trkpt>
      <trkpt lat="48.55244" lon="2.07828">
        <ele>151</ele>
        <time>2019-05-12T08:43:30Z</time>
      </trkpt>
      <trkpt lat="48.55247" lon="2.07814">
        <ele>151</ele>
        <time>2019-05-12T08:43:38Z</time>
      </trkpt>
      <trkpt lat="48.55252" lon="2.07802">
        <ele>151</ele>
        <time>2019-05-12T08:43:45Z</time>
      </trkpt>
      <trkpt lat="48.55256" lon="2.07789">
        <ele>151</ele>
        <time>2019-05-12T08:43:53Z</time>
      </trkpt>
      <trkpt lat="48.5526" lon="2.07777">
        <ele>152</ele>
        <time>2019-05-12T08:44:01Z</time>
      </trkpt>
      <trkpt lat="48.55267" lon="2.07765">
        <ele>152</ele>
        <time>2019-05-12T08:44:09Z</time>
      </trkpt>
      <trkpt lat="48.55271" lon="2.07753">
        <ele>152</ele>
        <time>2019-05-12T08:44:16Z</time>
      </trkpt>
      <trkpt lat="48.55276" lon="2.07741">
        <ele>153</ele>
        <time>2019-05-12T08:44:24Z</time>
      </trkpt>
      <trkpt lat="48.55284" lon="2.0773">
        <ele>153</ele>
        <time>2019-05-12T08:44:32Z</time>
      </trkpt>
      <trkpt lat="48.55289" lon="2.07718">
        <ele>153</ele>
        <time>2019-05-12T08:44:40Z</time>
      </trkpt>
      <trkpt lat="48.55296" lon="2.07708">
        <ele>153</ele>
        <time>2019-05-12T08:44:47Z</time>
      </trkpt>
      <trkpt lat="48.55302" lon="2.07698">
        <ele>154</ele>
        <time>2019-05-12T08:44:54Z</time>
      </trkpt>
      <trkpt lat="48.55308" lon="2.07687">
        <ele>154</ele>
        <time>2019-05-12T08:45:02Z</time>
      </trkpt>
      <trkpt lat="48.55315" lon="2.07676">
        <ele>154</ele>
        <time>2019-05-12T08:45:10Z</time>
      </trkpt>
      <trkpt lat="48.55321" lon="2.07664">
        <ele>154</ele>
        <time>2019-05-12T08:45:18Z</time>
      </trkpt>
      <trkpt lat="48.55324" lon="2.0765">
        <ele>155</ele>
        <time>2019-05-12T08:45:26Z</time>
      </trkpt>
      <trkpt lat="48.55327" lon="2.07637">
        <ele>155</ele>
        <time>2019-05-12T08:45:33Z</time>
      </trkpt>
      <trkpt lat="48.55332" lon="2.07624">
        <ele>155</ele>
        <time>2019-05-12T08:45:41Z</time>
      </trkpt>
      <trkpt lat="48.55336" lon="2.07613">
        <ele>155</ele>
        <time>2019-05-12T08:45:48Z</time>
      </trkpt>
      <trkpt lat="48.5534" lon="2.07599">
        <ele>155</ele>
        <time>2019-05-12T08:45:56Z</time>
      </trkpt>
      <trkpt lat="48.55344" lon="2.07586">
        <ele>156</ele>
        <time>2019-05-12T08:46:03Z</time>
      </trkpt>
      <trkpt lat="48.55349" lon="2.07573">
        <ele>155</ele>
        <time>2019-05-12T08:46:10Z</time>
      </trkpt>
      <trkpt lat="48.55351" lon="2.07557">
        <ele>155</ele>
        <time>2019-05-12T08:46:18Z</time>
      </trkpt>
      <trkpt lat="48.55353" lon="2.07543">
        <ele>155</ele>
        <time>2019-05-12T08:46:26Z</time>
      </trkpt>
      <trkpt lat="48.55356" lon="2.07529">
        <ele>154</ele>
        <time>2019-05-12T08:46:33Z</time>
      </trkpt>
      <trkpt lat="48.55359" lon="2.07515">
        <ele>154</ele>
        <time>2019-05-12T08:46:41Z</time>
      </trkpt>
      <trkpt lat="48.5536" lon="2.07502">
        <ele>154</ele>
        <time>2019-05-12T08:46:48Z</time>
      </trkpt>
      <trkpt lat="48.55363" lon="2.07487">
        <ele>154</ele>
        <time>2019-05-12T08:46:56Z</time>
      </trkpt>
      <trkpt lat="48.55367" lon="2.07475">
        <ele>154</ele>
        <time>2019-05-12T08:47:03Z</time>
      </trkpt>
      <trkpt lat="48.55373" lon="2.07463">
        <ele>154</ele>
        <time>2019-05-12T08:47:10Z</time>
      </trkpt>
      <trkpt lat="48.55377" lon="2.07451">
        <ele>155</ele>
        <time>2019-05-12T08:47:18Z</time>
      </trkpt>
      <trkpt lat="48.5538" lon="2.07437">
        <ele>155</ele>
        <time>2019-05-12T08:47:26Z</time>
      </trkpt>
      <trkpt lat="48.55385" lon="2.07424">
        <ele>155</ele>
        <time>2019-05-12T08:47:33Z</time>
      </trkpt>
      <trkpt lat="48.55387" lon="2.0741">
        <ele>155</ele>
        <time>2019-05-12T08:47:41Z</time>
      </trkpt>
      <trkpt lat="48.55391" lon="2.07395">
        <ele>155</ele>
        <time>2019-05-12T08:47:50Z</time>
      </trkpt>
      <trkpt lat="48.55396" lon="2.07383">
        <ele>156</ele>
        <time>2019-05-12T08:47:58Z</time>
      </trkpt>
      <trkpt lat="48.55401" lon="2.07369">
        <ele>156</ele>
        <time>2019-05-12T08:48:06Z</time>
      </trkpt>
      <trkpt lat="48.55403" lon="2.07355">
        <ele>156</ele>
        <time>2019-05-12T08:48:13Z</time>
      </trkpt>
      <trkpt lat="48.55406" lon="2.07342">
        <ele>156</ele>
        <time>2019-05-12T08:48:20Z</time>
      </trkpt>
      <trkpt lat="48.55413" lon="2.07331">
        <ele>157</ele>
        <time>2019-05-12T08:48:27Z</time>
      </trkpt>
      <trkpt lat="48.55417" lon="2.07318">
        <ele>156</ele>
        <time>2019-05-12T08:48:34Z</time>
      </trkpt>
      <trkpt lat="48.55423" lon="2.07305">
        <ele>156</ele>
        <time>2019-05-12T08:48:42Z</time>
      </trkpt>
      <trkpt lat="48.55431" lon="2.07296">
        <ele>156</ele>
        <time>2019-05-12T08:48:51Z</time>
      </trkpt>
      <trkpt lat="48.55436" lon="2.07283">
        <ele>156</ele>
        <time>2019-05-12T08:48:59Z</time>
      </trkpt>
      <trkpt lat="48.55442" lon="2.07272">
        <ele>156</ele>
        <time>2019-05-12T08:49:06Z</time>
      </trkpt>
      <trkpt lat="48.55449" lon="2.07261">
        <ele>156</ele>
        <time>2019-05-12T08:49:15Z</time>
      </trkpt>
      <trkpt lat="48.55452" lon="2.07248">
        <ele>156</ele>
        <time>2019-05-12T08:49:24Z</time>
      </trkpt>
      <trkpt lat="48.55457" lon="2.07234">
        <ele>156</ele>
        <time>2019-05-12T08:49:33Z</time>
      </trkpt>
      <trkpt lat="48.55461" lon="2.07221">
        <ele>156</ele>
        <time>2019-05-12T08:49:40Z</time>
      </trkpt>
      <trkpt lat="48.55466" lon="2.0721">
        <ele>156</ele>
        <time>2019-05-12T08:49:47Z</time>
      </trkpt>
      <trkpt lat="48.55468" lon="2.07196">
        <ele>155</ele>
        <time>2019-05-12T08:49:56Z</time>
      </trkpt>
      <trkpt lat="48.55473" lon="2.07183">
        <ele>155</ele>
        <time>2019-05-12T08:50:05Z</time>
      </trkpt>
      <trkpt lat="48.55476" lon="2.0717">
        <ele>155</ele>
        <time>2019-05-12T08:50:13Z</time>
      </trkpt>
      <trkpt lat="48.55481" lon="2.07158">
        <ele>155</ele>
        <time>2019-05-12T08:50:22Z</time>
      </trkpt>
      <trkpt lat="48.55484" lon="2.07143">
        <ele>155</ele>
        <time>2019-05-12T08:50:29Z</time>
      </trkpt>
      <trkpt lat="48.55489" lon="2.07129">
        <ele>155</ele>
        <time>2019-05-12T08:50:36Z</time>
      </trkpt>
      <trkpt lat="48.55495" lon="2.07117">
        <ele>155</ele>
        <time>2019-05-12T08:50:46Z</time>
      </trkpt>
      <trkpt lat="48.55494" lon="2.07103">
        <ele>154</ele>
        <time>2019-05-12T08:51:05Z</time>
      </trkpt>
      <trkpt lat="48.55493" lon="2.07088">
        <ele>154</ele>
        <time>2019-05-12T08:51:14Z</time>
      </trkpt>
      <trkpt lat="48.55493" lon="2.07074">
        <ele>154</ele>
        <time>2019-05-12T08:51:23Z</time>
      </trkpt>
      <trkpt lat="48.55489" lon="2.07062">
        <ele>154</ele>
        <time>2019-05-12T08:51:36Z</time>
      </trkpt>
      <trkpt lat="48.55489" lon="2.07048">
        <ele>154</ele>
        <time>2019-05-12T08:52:09Z</time>
      </trkpt>
      <trkpt lat="48.55483" lon="2.07038">
        <ele>153</ele>
        <time>2019-05-12T08:52:17Z</time>
      </trkpt>
      <trkpt lat="48.55478" lon="2.07027">
        <ele>153</ele>
        <time>2019-05-12T08:52:24Z</time>
      </trkpt>
      <trkpt lat="48.55472" lon="2.07015">
        <ele>153</ele>
        <time>2019-05-12T08:52:33Z</time>
      </trkpt>
      <trkpt lat="48.55467" lon="2.07003">
        <ele>153</ele>
        <time>2019-05-12T08:52:42Z</time>
      </trkpt>
      <trkpt lat="48.55468" lon="2.06988">
        <ele>153</ele>
        <time>2019-05-12T08:54:07Z</time>
      </trkpt>
      <trkpt lat="48.55471" lon="2.06974">
        <ele>153</ele>
        <time>2019-05-12T08:54:15Z</time>
      </trkpt>
      <trkpt lat="48.55473" lon="2.0696">
        <ele>153</ele>
        <time>2019-05-12T08:54:36Z</time>
      </trkpt>
      <trkpt lat="48.55476" lon="2.06946">
        <ele>153</ele>
        <time>2019-05-12T08:54:43Z</time>
      </trkpt>
      <trkpt lat="48.55477" lon="2.06933">
        <ele>153</ele>
        <time>2019-05-12T08:55:01Z</time>
      </trkpt>
      <trkpt lat="48.55481" lon="2.06921">
        <ele>153</ele>
        <time>2019-05-12T08:55:07Z</time>
      </trkpt>
      <trkpt lat="48.55485" lon="2.06907">
        <ele>153</ele>
        <time>2019-05-12T08:55:14Z</time>
      </trkpt>
      <trkpt lat="48.55484" lon="2.06894">
        <ele>153</ele>
        <time>2019-05-12T08:55:51Z</time>
      </trkpt>
      <trkpt lat="48.55492" lon="2.06888">
        <ele>153</ele>
        <time>2019-05-12T08:56:29Z</time>
      </trkpt>
      <trkpt lat="48.55483" lon="2.06886">
        <ele>153</ele>
        <time>2019-05-12T08:56:48Z</time>
      </trkpt>
      <trkpt lat="48.55475" lon="2.0688">
        <ele>153</ele>
        <time>2019-05-12T08:57:25Z</time>
      </trkpt>
      <trkpt lat="48.55484" lon="2.06884">
        <ele>153</ele>
        <time>2019-05-12T08:57:44Z</time>
      </trkpt>
      <trkpt lat="48.55494" lon="2.06886">
        <ele>153</ele>
        <time>2019-05-12T08:57:53Z</time>
      </trkpt>
      <trkpt lat="48.55504" lon="2.06886">
        <ele>154</ele>
        <time>2019-05-12T08:58:02Z</time>
      </trkpt>
      <trkpt lat="48.55512" lon="2.06888">
        <ele>155</ele>
        <time>2019-05-12T08:58:11Z</time>
      </trkpt>
      <trkpt lat="48.55523" lon="2.06888">
        <ele>156</ele>
        <time>2019-05-12T08:58:20Z</time>
      </trkpt>
      <trkpt lat="48.55531" lon="2.06879">
        <ele>157</ele>
        <time>2019-05-12T08:58:28Z</time>
      </trkpt>
      <trkpt lat="48.55533" lon="2.06864">
        <ele>157</ele>
        <time>2019-05-12T08:58:37Z</time>
      </trkpt>
      <trkpt lat="48.5553" lon="2.0685">
        <ele>157</ele>
        <time>2019-05-12T08:58:46Z</time>
      </trkpt>
      <trkpt lat="48.55524" lon="2.06836">
        <ele>156</ele>
        <time>2019-05-12T08:58:55Z</time>
      </trkpt>
      <trkpt lat="48.55521" lon="2.06822">
        <ele>155</ele>
        <time>2019-05-12T08:59:03Z</time>
      </trkpt>
      <trkpt lat="48.55521" lon="2.06808">
        <ele>155</ele>
        <time>2019-05-12T08:59:10Z</time>
      </trkpt>
      <trkpt lat="48.55522" lon="2.06793">
        <ele>155</ele>
        <time>2019-05-12T08:59:17Z</time>
      </trkpt>
      <trkpt lat="48.55525" lon="2.0678">
        <ele>155</ele>
        <time>2019-05-12T08:59:23Z</time>
      </trkpt>
      <trkpt lat="48.55523" lon="2.06766">
        <ele>155</ele>
        <time>2019-05-12T08:59:33Z</time>
      </trkpt>
      <trkpt lat="48.55524" lon="2.06752">
        <ele>155</ele>
        <time>2019-05-12T08:59:41Z</time>
      </trkpt>
      <trkpt lat="48.55525" lon="2.06738">
        <ele>154</ele>
        <time>2019-05-12T08:59:48Z</time>
      </trkpt>
      <trkpt lat="48.55525" lon="2.06724">
        <ele>154</ele>
        <time>2019-05-12T08:59:58Z</time>
      </trkpt>
      <trkpt lat="48.55523" lon="2.0671">
        <ele>154</ele>
        <time>2019-05-12T09:00:05Z</time>
      </trkpt>
      <trkpt lat="48.55522" lon="2.06696">
        <ele>153</ele>
        <time>2019-05-12T09:00:14Z</time>
      </trkpt>
      <trkpt lat="48.55521" lon="2.06682">
        <ele>153</ele>
        <time>2019-05-12T09:00:21Z</time>
      </trkpt>
      <trkpt lat="48.55518" lon="2.06668">
        <ele>153</ele>
        <time>2019-05-12T09:00:29Z</time>
      </trkpt>
      <trkpt lat="48.55515" lon="2.06653">
        <ele>152</ele>
        <time>2019-05-12T09:00:37Z</time>
      </trkpt>
      <trkpt lat="48.55513" lon="2.0664">
        <ele>152</ele>
        <time>2019-05-12T09:00:44Z</time>
      </trkpt>
      <trkpt lat="48.55511" lon="2.06626">
        <ele>152</ele>
        <time>2019-05-12T09:00:51Z</time>
      </trkpt>
      <trkpt lat="48.55511" lon="2.06612">
        <ele>151</ele>
        <time>2019-05-12T09:00:58Z</time>
      </trkpt>
      <trkpt lat="48.55509" lon="2.06597">
        <ele>151</ele>
        <time>2019-05-12T09:01:06Z</time>
      </trkpt>
      <trkpt lat="48.55507" lon="2.06584">
        <ele>151</ele>
        <time>2019-05-12T09:01:13Z</time>
      </trkpt>
      <trkpt lat="48.55504" lon="2.06571">
        <ele>150</ele>
        <time>2019-05-12T09:01:22Z</time>
      </trkpt>
      <trkpt lat="48.55502" lon="2.06556">
        <ele>150</ele>
        <time>2019-05-12T09:01:31Z</time>
      </trkpt>
      <trkpt lat="48.55499" lon="2.06543">
        <ele>150</ele>
        <time>2019-05-12T09:01:39Z</time>
      </trkpt>
      <trkpt lat="48.55499" lon="2.06527">
        <ele>150</ele>
        <time>2019-05-12T09:01:46Z</time>
      </trkpt>
      <trkpt lat="48.55498" lon="2.06513">
        <ele>150</ele>
        <time>2019-05-12T09:01:53Z</time>
      </trkpt>
      <trkpt lat="48.55498" lon="2.06499">
        <ele>150</ele>
        <time>2019-05-12T09:02:00Z</time>
      </trkpt>
      <trkpt lat="48.555" lon="2.06485">
        <ele>149</ele>
        <time>2019-05-12T09:02:08Z</time>
      </trkpt>
      <trkpt lat="48.55498" lon="2.0647">
        <ele>148</ele>
        <time>2019-05-12T09:02:14Z</time>
      </trkpt>
      <trkpt lat="48.55498" lon="2.06455">
        <ele>147</ele>
        <time>2019-05-12T09:02:24Z</time>
      </trkpt>
      <trkpt lat="48.55501" lon="2.06442">
        <ele>147</ele>
        <time>2019-05-12T09:02:33Z</time>
      </trkpt>
      <trkpt lat="48.55505" lon="2.06428">
        <ele>146</ele>
        <time>2019-05-12T09:02:42Z</time>
      </trkpt>
      <trkpt lat="48.55508" lon="2.06413">
        <ele>146</ele>
        <time>2019-05-12T09:02:50Z</time>
      </trkpt>
      <trkpt lat="48.55512" lon="2.06399">
        <ele>145</ele>
        <time>2019-05-12T09:02:57Z</time>
      </trkpt>
      <trkpt lat="48.55516" lon="2.06386">
        <ele>145</ele>
        <time>2019-05-12T09:03:05Z</time>
      </trkpt>
      <trkpt lat="48.55519" lon="2.06372">
        <ele>145</ele>
        <time>2019-05-12T09:03:14Z</time>
      </trkpt>
      <trkpt lat="48.55522" lon="2.06359">
        <ele>144</ele>
        <time>2019-05-12T09:03:23Z</time>
      </trkpt>
      <trkpt lat="48.55524" lon="2.06345">
        <ele>144</ele>
        <time>2019-05-12T09:03:31Z</time>
      </trkpt>
      <trkpt lat="48.55525" lon="2.06329">
        <ele>143</ele>
        <time>2019-05-12T09:03:38Z</time>
      </trkpt>
      <trkpt lat="48.5552" lon="2.06318">
        <ele>142</ele>
        <time>2019-05-12T09:03:44Z</time>
      </trkpt>
      <trkpt lat="48.55519" lon="2.06303">
        <ele>141</ele>
        <time>2019-05-12T09:03:51Z</time>
      </trkpt>
      <trkpt lat="48.55516" lon="2.06289">
        <ele>140</ele>
        <time>2019-05-12T09:03:57Z</time>
      </trkpt>
      <trkpt lat="48.55517" lon="2.06274">
        <ele>139</ele>
        <time>2019-05-12T09:04:03Z</time>
      </trkpt>
      <trkpt lat="48.55516" lon="2.0626">
        <ele>138</ele>
        <time>2019-05-12T09:04:10Z</time>
      </trkpt>
      <trkpt lat="48.55519" lon="2.06247">
        <ele>138</ele>
        <time>2019-05-12T09:04:18Z</time>
      </trkpt>
      <trkpt lat="48.55517" lon="2.06233">
        <ele>137</ele>
        <time>2019-05-12T09:04:25Z</time>
      </trkpt>
      <trkpt lat="48.55517" lon="2.06219">
        <ele>136</ele>
        <time>2019-05-12T09:04:46Z</time>
      </trkpt>
      <trkpt lat="48.55513" lon="2.06205">
        <ele>135</ele>
        <time>2019-05-12T09:04:55Z</time>
      </trkpt>
      <trkpt lat="48.55509" lon="2.06192">
        <ele>134</ele>
        <time>2019-05-12T09:05:03Z</time>
      </trkpt>
      <trkpt lat="48.55505" lon="2.06179">
        <ele>133</ele>
        <time>2019-05-12T09:05:12Z</time>
      </trkpt>
      <trkpt lat="48.55502" lon="2.06166">
        <ele>132</ele>
        <time>2019-05-12T09:05:19Z</time>
      </trkpt>
      <trkpt lat="48.55498" lon="2.06152">
        <ele>132</ele>
        <time>2019-05-12T09:05:27Z</time>
      </trkpt>
      <trkpt lat="48.55496" lon="2.06138">
        <ele>133</ele>
        <time>2019-05-12T09:05:35Z</time>
      </trkpt>
      <trkpt lat="48.55495" lon="2.06122">
        <ele>133</ele>
        <time>2019-05-12T09:05:43Z</time>
      </trkpt>
      <trkpt lat="48.555" lon="2.0611">
        <ele>133</ele>
        <time>2019-05-12T09:05:51Z</time>
      </trkpt>
      <trkpt lat="48.55505" lon="2.06097">
        <ele>133</ele>
        <time>2019-05-12T09:05:59Z</time>
      </trkpt>
      <trkpt lat="48.55512" lon="2.06086">
        <ele>133</ele>
        <time>2019-05-12T09:06:07Z</time>
      </trkpt>
      <trkpt lat="48.55518" lon="2.06073">
        <ele>134</ele>
        <time>2019-05-12T09:06:15Z</time>
      </trkpt>
      <trkpt lat="48.55522" lon="2.0606">
        <ele>134</ele>
        <time>2019-05-12T09:06:24Z</time>
      </trkpt>
      <trkpt lat="48.55528" lon="2.06049">
        <ele>134</ele>
        <time>2019-05-12T09:06:32Z</time>
      </trkpt>
      <trkpt lat="48.55532" lon="2.06036">
        <ele>134</ele>
        <time>2019-05-12T09:06:41Z</time>
      </trkpt>
      <trkpt lat="48.55535" lon="2.06022">
        <ele>134</ele>
        <time>2019-05-12T09:06:49Z</time>
      </trkpt>
      <trkpt lat="48.55538" lon="2.06007">
        <ele>134</ele>
        <time>2019-05-12T09:06:57Z</time>
      </trkpt>
      <trkpt lat="48.55544" lon="2.05994">
        <ele>134</ele>
        <time>2019-05-12T09:07:05Z</time>
      </trkpt>
      <trkpt lat="48.55549" lon="2.05981">
        <ele>133</ele>
        <time>2019-05-12T09:07:12Z</time>
      </trkpt>
      <trkpt lat="48.55553" lon="2.05969">
        <ele>133</ele>
        <time>2019-05-12T09:07:19Z</time>
      </trkpt>
      <trkpt lat="48.55557" lon="2.05955">
        <ele>132</ele>
        <time>2019-05-12T09:07:27Z</time>
      </trkpt>
      <trkpt lat="48.5556" lon="2.05942">
        <ele>132</ele>
        <time>2019-05-12T09:07:35Z</time>
      </trkpt>
      <trkpt lat="48.55565" lon="2.0593">
        <ele>131</ele>
        <time>2019-05-12T09:07:41Z</time>
      </trkpt>
      <trkpt lat="48.5557" lon="2.05917">
        <ele>130</ele>
        <time>2019-05-12T09:07:48Z</time>
      </trkpt>
      <trkpt lat="48.55574" lon="2.05905">
        <ele>129</ele>
        <time>2019-05-12T09:07:55Z</time>
      </trkpt>
      <trkpt lat="48.55579" lon="2.05891">
        <ele>128</ele>
        <time>2019-05-12T09:08:04Z</time>
      </trkpt>
      <trkpt lat="48.55583" lon="2.05877">
        <ele>126</ele>
        <time>2019-05-12T09:08:11Z</time>
      </trkpt>
      <trkpt lat="48.55585" lon="2.05863">
        <ele>125</ele>
        <time>2019-05-12T09:08:20Z</time>
      </trkpt>
      <trkpt lat="48.55586" lon="2.05849">
        <ele>125</ele>
        <time>2019-05-12T09:08:28Z</time>
      </trkpt>
      <trkpt lat="48.55589" lon="2.05836">
        <ele>124</ele>
        <time>2019-05-12T09:08:37Z</time>
      </trkpt>
      <trkpt lat="48.55596" lon="2.05823">
        <ele>124</ele>
        <time>2019-05-12T09:08:44Z</time>
      </trkpt>
      <trkpt lat="48.55604" lon="2.05815">
        <ele>124</ele>
        <time>2019-05-12T09:08:52Z</time>
      </trkpt>
      <trkpt lat="48.55613" lon="2.0581">
        <ele>124</ele>
        <time>2019-05-12T09:09:00Z</time>
      </trkpt>
      <trkpt lat="48.55623" lon="2.05807">
        <ele>123</ele>
        <time>2019-05-12T09:09:07Z</time>
      </trkpt>
      <trkpt lat="48.55632" lon="2.05802">
        <ele>123</ele>
        <time>2019-05-12T09:09:15Z</time>
      </trkpt>
      <trkpt lat="48.5564" lon="2.05795">
        <ele>123</ele>
        <time>2019-05-12T09:09:25Z</time>
      </trkpt>
      <trkpt lat="48.55647" lon="2.05786">
        <ele>122</ele>
        <time>2019-05-12T09:09:31Z</time>
      </trkpt>
      <trkpt lat="48.55654" lon="2.05777">
        <ele>122</ele>
        <time>2019-05-12T09:09:39Z</time>
      </trkpt>
      <trkpt lat="48.55661" lon="2.05766">
        <ele>122</ele>
        <time>2019-05-12T09:09:48Z</time>
      </trkpt>
      <trkpt lat="48.55668" lon="2.05757">
        <ele>121</ele>
        <time>2019-05-12T09:09:56Z</time>
      </trkpt>
      <trkpt lat="48.55672" lon="2.05745">
        <ele>121</ele>
        <time>2019-05-12T09:10:04Z</time>
      </trkpt>
      <trkpt lat="48.55679" lon="2.05733">
        <ele>122</ele>
        <time>2019-05-12T09:10:14Z</time>
      </trkpt>
      <trkpt lat="48.55684" lon="2.05722">
        <ele>123</ele>
        <time>2019-05-12T09:10:24Z</time>
      </trkpt>
      <trkpt lat="48.5569" lon="2.0571">
        <ele>123</ele>
        <time>2019-05-12T09:10:31Z</time>
      </trkpt>
      <trkpt lat="48.55697" lon="2.05699">
        <ele>124</ele>
        <time>2019-05-12T09:10:43Z</time>
      </trkpt>
      <trkpt lat="48.55704" lon="2.05689">
        <ele>123</ele>
        <time>2019-05-12T09:10:53Z</time>
      </trkpt>
      <trkpt lat="48.55711" lon="2.0568">
        <ele>123</ele>
        <time>2019-05-12T09:11:01Z</time>
      </trkpt>
      <trkpt lat="48.55718" lon="2.05669">
        <ele>122</ele>
        <time>2019-05-12T09:11:12Z</time>
      </trkpt>
      <trkpt lat="48.55724" lon="2.05659">
        <ele>122</ele>
        <time>2019-05-12T09:11:19Z</time>
      </trkpt>
      <trkpt lat="48.55733" lon="2.05655">
        <ele>121</ele>
        <time>2019-05-12T09:11:29Z</time>
      </trkpt>
      <trkpt lat="48.55742" lon="2.05645">
        <ele>120</ele>
        <time>2019-05-12T09:11:38Z</time>
      </trkpt>
      <trkpt lat="48.55749" lon="2.05636">
        <ele>120</ele>
        <time>2019-05-12T09:11:46Z</time>
      </trkpt>
      <trkpt lat="48.55754" lon="2.05621">
        <ele>121</ele>
        <time>2019-05-12T09:11:56Z</time>
      </trkpt>
      <trkpt lat="48.55762" lon="2.05614">
        <ele>121</ele>
        <time>2019-05-12T09:12:05Z</time>
      </trkpt>
      <trkpt lat="48.55771" lon="2.05608">
        <ele>120</ele>
        <time>2019-05-12T09:12:12Z</time>
      </trkpt>
      <trkpt lat="48.55781" lon="2.05611">
        <ele>119</ele>
        <time>2019-05-12T09:12:20Z</time>
      </trkpt>
      <trkpt lat="48.5579" lon="2.05609">
        <ele>118</ele>
        <time>2019-05-12T09:12:29Z</time>
      </trkpt>
      <trkpt lat="48.558" lon="2.05604">
        <ele>117</ele>
        <time>2019-05-12T09:12:36Z</time>
      </trkpt>
      <trkpt lat="48.55809" lon="2.056">
        <ele>116</ele>
        <time>2019-05-12T09:13:30Z</time>
      </trkpt>
      <trkpt lat="48.55818" lon="2.05602">
        <ele>114</ele>
        <time>2019-05-12T09:13:38Z</time>
      </trkpt>
      <trkpt lat="48.55828" lon="2.05598">
        <ele>113</ele>
        <time>2019-05-12T09:13:44Z</time>
      </trkpt>
      <trkpt lat="48.55838" lon="2.05597">
        <ele>112</ele>
        <time>2019-05-12T09:13:50Z</time>
      </trkpt>
      <trkpt lat="48.55847" lon="2.05596">
        <ele>111</ele>
        <time>2019-05-12T09:13:58Z</time>
      </trkpt>
      <trkpt lat="48.55857" lon="2.05597">
        <ele>110</ele>
        <time>2019-05-12T09:14:05Z</time>
      </trkpt>
      <trkpt lat="48.55867" lon="2.05598">
        <ele>109</ele>
        <time>2019-05-12T09:14:12Z</time>
      </trkpt>
      <trkpt lat="48.55876" lon="2.05598">
        <ele>108</ele>
        <time>2019-05-12T09:14:19Z</time>
      </trkpt>
      <trkpt lat="48.55886" lon="2.05598">
        <ele>107</ele>
        <time>2019-05-12T09:14:26Z</time>
      </trkpt>
      <trkpt lat="48.55896" lon="2.05597">
        <ele>106</ele>
        <time>2019-05-12T09:14:35Z</time>
      </trkpt>
      <trkpt lat="48.55906" lon="2.05594">
        <ele>105</ele>
        <time>2019-05-12T09:14:42Z</time>
      </trkpt>
      <trkpt lat="48.55915" lon="2.05593">
        <ele>104</ele>
        <time>2019-05-12T09:14:50Z</time>
      </trkpt>
      <trkpt lat="48.55924" lon="2.05591">
        <ele>104</ele>
        <time>2019-05-12T09:14:57Z</time>
      </trkpt>
      <trkpt lat="48.55934" lon="2.05592">
        <ele>104</ele>
        <time>2019-05-12T09:15:05Z</time>
      </trkpt>
      <trkpt lat="48.55943" lon="2.05589">
        <ele>104</ele>
        <time>2019-05-12T09:15:14Z</time>
      </trkpt>
      <trkpt lat="48.55953" lon="2.05586">
        <ele>104</ele>
        <time>2019-05-12T09:15:37Z</time>
      </trkpt>
      <trkpt lat="48.55962" lon="2.05586">
        <ele>104</ele>
        <time>2019-05-12T09:15:48Z</time>
      </trkpt>
      <trkpt lat="48.55972" lon="2.05588">
        <ele>103</ele>
        <time>2019-05-12T09:15:55Z</time>
      </trkpt>
      <trkpt lat="48.55982" lon="2.05589">
        <ele>103</ele>
        <time>2019-05-12T09:16:04Z</time>
      </trkpt>
      <trkpt lat="48.55991" lon="2.05589">
        <ele>103</ele>
        <time>2019-05-12T09:16:13Z</time>
      </trkpt>
      <trkpt lat="48.56001" lon="2.05588">
        <ele>103</ele>
        <time>2019-05-12T09:16:23Z</time>
      </trkpt>
      <trkpt lat="48.56011" lon="2.05587">
        <ele>103</ele>
        <time>2019-05-12T09:16:31Z</time>
      </trkpt>
      <trkpt lat="48.5602" lon="2.05588">
        <ele>103</ele>
        <time>2019-05-12T09:16:57Z</time>
      </trkpt>
      <trkpt lat="48.56029" lon="2.05585">
        <ele>102</ele>
        <time>2019-05-12T09:17:21Z</time>
      </trkpt>
      <trkpt lat="48.56039" lon="2.05584">
        <ele>102</ele>
        <time>2019-05-12T09:17:30Z</time>
      </trkpt>
      <trkpt lat="48.56048" lon="2.05583">
        <ele>102</ele>
        <time>2019-05-12T09:17:38Z</time>
      </trkpt>
      <trkpt lat="48.56057" lon="2.05582">
        <ele>102</ele>
        <time>2019-05-12T09:17:46Z</time>
      </trkpt>
      <trkpt lat="48.56067" lon="2.05581">
        <ele>101</ele>
        <time>2019-05-12T09:17:54Z</time>
      </trkpt>
      <trkpt lat="48.56077" lon="2.05582">
        <ele>101</ele>
        <time>2019-05-12T09:18:03Z</time>
      </trkpt>
      <trkpt lat="48.56086" lon="2.05581">
        <ele>101</ele>
        <time>2019-05-12T09:18:11Z</time>
      </trkpt>
      <trkpt lat="48.56097" lon="2.05582">
        <ele>100</ele>
        <time>2019-05-12T09:18:20Z</time>
      </trkpt>
      <trkpt lat="48.56106" lon="2.05582">
        <ele>100</ele>
        <time>2019-05-12T09:18:28Z</time>
      </trkpt>
      <trkpt lat="48.56116" lon="2.05581">
        <ele>99</ele>
        <time>2019-05-12T09:18:36Z</time>
      </trkpt>
      <trkpt lat="48.56125" lon="2.05582">
        <ele>99</ele>
        <time>2019-05-12T09:18:44Z</time>
      </trkpt>
      <trkpt lat="48.56135" lon="2.05583">
        <ele>99</ele>
        <time>2019-05-12T09:19:00Z</time>
      </trkpt>
      <trkpt lat="48.56145" lon="2.05582">
        <ele>98</ele>
        <time>2019-05-12T09:19:08Z</time>
      </trkpt>
      <trkpt lat="48.56154" lon="2.05582">
        <ele>98</ele>
        <time>2019-05-12T09:19:15Z</time>
      </trkpt>
      <trkpt lat="48.56163" lon="2.05581">
        <ele>97</ele>
        <time>2019-05-12T09:19:22Z</time>
      </trkpt>
      <trkpt lat="48.56173" lon="2.05581">
        <ele>97</ele>
        <time>2019-05-12T09:19:30Z</time>
      </trkpt>
      <trkpt lat="48.56183" lon="2.05578">
        <ele>96</ele>
        <time>2019-05-12T09:19:37Z</time>
      </trkpt>
      <trkpt lat="48.56192" lon="2.05578">
        <ele>95</ele>
        <time>2019-05-12T09:19:44Z</time>
      </trkpt>
      <trkpt lat="48.56201" lon="2.0558">
        <ele>95</ele>
        <time>2019-05-12T09:19:52Z</time>
      </trkpt>
      <trkpt lat="48.56211" lon="2.05578">
        <ele>95</ele>
        <time>2019-05-12T09:19:59Z</time>
      </trkpt>
      <trkpt lat="48.56221" lon="2.05578">
        <ele>94</ele>
        <time>2019-05-12T09:20:07Z</time>
      </trkpt>
      <trkpt lat="48.56231" lon="2.05578">
        <ele>94</ele>
        <time>2019-05-12T09:20:15Z</time>
      </trkpt>
      <trkpt lat="48.56241" lon="2.05578">
        <ele>93</ele>
        <time>2019-05-12T09:20:23Z</time>
      </trkpt>
      <trkpt lat="48.5625" lon="2.05578">
        <ele>93</ele>
        <time>2019-05-12T09:20:31Z</time>
      </trkpt>
      <trkpt lat="48.56257" lon="2.05588">
        <ele>93</ele>
        <time>2019-05-12T09:20:48Z</time>
      </trkpt>
      <trkpt lat="48.5626" lon="2.05602">
        <ele>93</ele>
        <time>2019-05-12T09:21:02Z</time>
      </trkpt>
      <trkpt lat="48.56263" lon="2.05616">
        <ele>93</ele>
        <time>2019-05-12T09:21:13Z</time>
      </trkpt>
      <trkpt lat="48.56267" lon="2.05628">
        <ele>93</ele>
        <time>2019-05-12T09:21:21Z</time>
      </trkpt>
      <trkpt lat="48.5627" lon="2.05643">
        <ele>93</ele>
        <time>2019-05-12T09:21:29Z</time>
      </trkpt>
      <trkpt lat="48.56272" lon="2.05657">
        <ele>93</ele>
        <time>2019-05-12T09:21:36Z</time>
      </trkpt>
      <trkpt lat="48.56276" lon="2.0567">
        <ele>93</ele>
        <time>2019-05-12T09:21:45Z</time>
      </trkpt>
      <trkpt lat="48.56277" lon="2.05684">
        <ele>93</ele>
        <time>2019-05-12T09:21:55Z</time>
      </trkpt>
      <trkpt lat="48.56277" lon="2.05698">
        <ele>94</ele>
        <time>2019-05-12T09:22:02Z</time>
      </trkpt>
      <trkpt lat="48.56278" lon="2.05712">
        <ele>94</ele>
        <time>2019-05-12T09:22:11Z</time>
      </trkpt>
      <trkpt lat="48.5628" lon="2.05726">
        <ele>94</ele>
        <time>2019-05-12T09:22:18Z</time>
      </trkpt>
      <trkpt lat="48.56282" lon="2.0574">
        <ele>94</ele>
        <time>2019-05-12T09:22:25Z</time>
      </trkpt>
      <trkpt lat="48.56283" lon="2.05754">
        <ele>94</ele>
        <time>2019-05-12T09:22:32Z</time>
      </trkpt>
      <trkpt lat="48.56284" lon="2.05768">
        <ele>95</ele>
        <time>2019-05-12T09:22:40Z</time>
      </trkpt>
      <trkpt lat="48.56285" lon="2.05783">
        <ele>96</ele>
        <time>2019-05-12T09:22:48Z</time>
      </trkpt>
      <trkpt lat="48.56286" lon="2.05797">
        <ele>96</ele>
        <time>2019-05-12T09:22:57Z</time>
      </trkpt>
      <trkpt lat="48.56284" lon="2.0581">
        <ele>97</ele>
        <time>2019-05-12T09:23:06Z</time>
      </trkpt>
      <trkpt lat="48.56281" lon="2.05824">
        <ele>98</ele>
        <time>2019-05-12T09:23:16Z</time>
      </trkpt>
      <trkpt lat="48.56278" lon="2.05837">
        <ele>99</ele>
        <time>2019-05-12T09:23:23Z</time>
      </trkpt>
      <trkpt lat="48.56275" lon="2.0585">
        <ele>99</ele>
        <time>2019-05-12T09:23:31Z</time>
      </trkpt>
      <trkpt lat="48.56273" lon="2.05864">
        <ele>99</ele>
        <time>2019-05-12T09:23:40Z</time>
      </trkpt>
      <trkpt lat="48.56273" lon="2.05879">
        <ele>99</ele>
        <time>2019-05-12T09:23:49Z</time>
      </trkpt>
      <trkpt lat="48.56271" lon="2.05895">
        <ele>99</ele>
        <time>2019-05-12T09:23:58Z</time>
      </trkpt>
      <trkpt lat="48.56269" lon="2.0591">
        <ele>99</ele>
        <time>2019-05-12T09:24:05Z</time>
      </trkpt>
      <trkpt lat="48.56268" lon="2.05924">
        <ele>99</ele>
        <time>2019-05-12T09:24:12Z</time>
      </trkpt>
      <trkpt lat="48.56267" lon="2.05938">
        <ele>99</ele>
        <time>2019-05-12T09:24:21Z</time>
      </trkpt>
      <trkpt lat="48.56268" lon="2.05953">
        <ele>98</ele>
        <time>2019-05-12T09:24:27Z</time>
      </trkpt>
      <trkpt lat="48.56267" lon="2.05967">
        <ele>98</ele>
        <time>2019-05-12T09:24:32Z</time>
      </trkpt>
      <trkpt lat="48.5627" lon="2.05982">
        <ele>98</ele>
        <time>2019-05-12T09:24:39Z</time>
      </trkpt>
      <trkpt lat="48.56269" lon="2.05996">
        <ele>98</ele>
        <time>2019-05-12T09:24:46Z</time>
      </trkpt>
      <trkpt lat="48.56267" lon="2.06011">
        <ele>98</ele>
        <time>2019-05-12T09:24:53Z</time>
      </trkpt>
      <trkpt lat="48.56266" lon="2.06025">
        <ele>98</ele>
        <time>2019-05-12T09:25:00Z</time>
      </trkpt>
      <trkpt lat="48.56267" lon="2.0604">
        <ele>98</ele>
        <time>2019-05-12T09:25:08Z</time>
      </trkpt>
      <trkpt lat="48.56266" lon="2.06053">
        <ele>98</ele>
        <time>2019-05-12T09:25:15Z</time>
      </trkpt>
      <trkpt lat="48.56268" lon="2.06067">
        <ele>97</ele>
        <time>2019-05-12T09:25:23Z</time>
      </trkpt>
      <trkpt lat="48.5627" lon="2.06082">
        <ele>97</ele>
        <time>2019-05-12T09:25:30Z</time>
      </trkpt>
      <trkpt lat="48.56273" lon="2.06095">
        <ele>97</ele>
        <time>2019-05-12T09:25:37Z</time>
      </trkpt>
      <trkpt lat="48.56276" lon="2.06107">
        <ele>97</ele>
        <time>2019-05-12T09:25:44Z</time>
      </trkpt>
      <trkpt lat="48.5628" lon="2.06121">
        <ele>98</ele>
        <time>2019-05-12T09:25:51Z</time>
      </trkpt>
      <trkpt lat="48.56281" lon="2.06135">
        <ele>98</ele>
        <time>2019-05-12T09:25:58Z</time>
      </trkpt>
      <trkpt lat="48.56282" lon="2.06149">
        <ele>99</ele>
        <time>2019-05-12T09:26:06Z</time>
      </trkpt>
      <trkpt lat="48.56285" lon="2.06162">
        <ele>99</ele>
        <time>2019-05-12T09:26:27Z</time>
      </trkpt>
      <trkpt lat="48.56289" lon="2.06176">
        <ele>99</ele>
        <time>2019-05-12T09:26:36Z</time>
      </trkpt>
      <trkpt lat="48.56292" lon="2.0619">
        <ele>99</ele>
        <time>2019-05-12T09:26:45Z</time>
      </trkpt>
      <trkpt lat="48.56292" lon="2.06205">
        <ele>99</ele>
        <time>2019-05-12T09:26:54Z</time>
      </trkpt>
      <trkpt lat="48.56294" lon="2.06219">
        <ele>99</ele>
        <time>2019-05-12T09:27:04Z</time>
      </trkpt>
      <trkpt lat="48.56294" lon="2.06233">
        <ele>100</ele>
        <time>2019-05-12T09:27:12Z</time>
      </trkpt>
      <trkpt lat="48.56293" lon="2.06248">
        <ele>101</ele>
        <time>2019-05-12T09:27:21Z</time>
      </trkpt>
      <trkpt lat="48.56294" lon="2.06262">
        <ele>100</ele>
        <time>2019-05-12T09:27:29Z</time>
      </trkpt>
      <trkpt lat="48.56294" lon="2.06277">
        <ele>100</ele>
        <time>2019-05-12T09:27:38Z</time>
      </trkpt>
      <trkpt lat="48.56293" lon="2.06291">
        <ele>101</ele>
        <time>2019-05-12T09:27:47Z</time>
      </trkpt>
      <trkpt lat="48.56289" lon="2.06303">
        <ele>101</ele>
        <time>2019-05-12T09:27:54Z</time>
      </trkpt>
      <trkpt lat="48.56287" lon="2.06318">
        <ele>101</ele>
        <time>2019-05-12T09:28:02Z</time>
      </trkpt>
      <trkpt lat="48.56284" lon="2.06331">
        <ele>102</ele>
        <time>2019-05-12T09:28:10Z</time>
      </trkpt>
      <trkpt lat="48.56282" lon="2.06346">
        <ele>102</ele>
        <time>2019-05-12T09:28:18Z</time>
      </trkpt>
      <trkpt lat="48.5628" lon="2.06359">
        <ele>102</ele>
        <time>2019-05-12T09:28:26Z</time>
      </trkpt>
      <trkpt lat="48.56279" lon="2.06374">
        <ele>102</ele>
        <time>2019-05-12T09:28:34Z</time>
      </trkpt>
      <trkpt lat="48.56279" lon="2.06389">
        <ele>102</ele>
        <time>2019-05-12T09:28:43Z</time>
      </trkpt>
      <trkpt lat="48.5628" lon="2.06403">
        <ele>101</ele>
        <time>2019-05-12T09:28:51Z</time>
      </trkpt>
      <trkpt lat="48.56283" lon="2.06417">
        <ele>101</ele>
        <time>2019-05-12T09:28:59Z</time>
      </trkpt>
      <trkpt lat="48.56284" lon="2.06432">
        <ele>100</ele>
        <time>2019-05-12T09:29:08Z</time>
      </trkpt>
      <trkpt lat="48.56287" lon="2.06445">
        <ele>100</ele>
        <time>2019-05-12T09:29:17Z</time>
      </trkpt>
      <trkpt lat="48.56288" lon="2.06459">
        <ele>99</ele>
        <time>2019-05-12T09:29:25Z</time>
      </trkpt>
      <trkpt lat="48.56286" lon="2.06474">
        <ele>99</ele>
        <time>2019-05-12T09:29:38Z</time>
      </trkpt>
      <trkpt lat="48.56277" lon="2.06477">
        <ele>100</ele>
        <time>2019-05-12T09:29:51Z</time>
      </trkpt>
      <trkpt lat="48.56267" lon="2.06479">
        <ele>101</ele>
        <time>2019-05-12T09:30:00Z</time>
      </trkpt>
      <trkpt lat="48.56258" lon="2.06474">
        <ele>103</ele>
        <time>2019-05-12T09:30:11Z</time>
      </trkpt>
      <trkpt lat="48.56248" lon="2.06477">
        <ele>104</ele>
        <time>2019-05-12T09:30:19Z</time>
      </trkpt>
      <trkpt lat="48.56239" lon="2.06477">
        <ele>106</ele>
        <time>2019-05-12T09:30:28Z</time>
      </trkpt>
      <trkpt lat="48.5624" lon="2.06463">
        <ele>106</ele>
        <time>2019-05-12T09:30:57Z</time>
      </trkpt>
      <trkpt lat="48.56238" lon="2.06477">
        <ele>106</ele>
        <time>2019-05-12T09:31:23Z</time>
      </trkpt>
      <trkpt lat="48.56228" lon="2.06475">
        <ele>108</ele>
        <time>2019-05-12T09:32:14Z</time>
      </trkpt>
      <trkpt lat="48.56238" lon="2.06473">
        <ele>106</ele>
        <time>2019-05-12T09:32:53Z</time>
      </trkpt>
      <trkpt lat="48.56245" lon="2.06481">
        <ele>104</ele>
        <time>2019-05-12T09:33:43Z</time>
      </trkpt>
      <trkpt lat="48.56243" lon="2.06496">
        <ele>105</ele>
        <time>2019-05-12T09:34:26Z</time>
      </trkpt>
      <trkpt lat="48.56244" lon="2.06509">
        <ele>104</ele>
        <time>2019-05-12T09:34:37Z</time>
      </trkpt>
      <trkpt lat="48.56254" lon="2.06513">
        <ele>102</ele>
        <time>2019-05-12T09:34:57Z</time>
      </trkpt>
      <trkpt lat="48.56261" lon="2.06504">
        <ele>101</ele>
        <time>2019-05-12T09:35:23Z</time>
      </trkpt>
      <trkpt lat="48.56271" lon="2.06503">
        <ele>100</ele>
        <time>2019-05-12T09:35:35Z</time>
      </trkpt>
      <trkpt lat="48.56268" lon="2.0649">
        <ele>101</ele>
        <time>2019-05-12T09:35:49Z</time>
      </trkpt>
      <trkpt lat="48.56262" lon="2.06479">
        <ele>102</ele>
        <time>2019-05-12T09:36:14Z</time>
      </trkpt>
      <trkpt lat="48.56271" lon="2.06482">
        <ele>101</ele>
        <time>2019-05-12T09:36:42Z</time>
      </trkpt>
      <trkpt lat="48.5628" lon="2.0648">
        <ele>100</ele>
        <time>2019-05-12T09:36:48Z</time>
      </trkpt>
      <trkpt lat="48.56289" lon="2.06475">
        <ele>99</ele>
        <time>2019-05-12T09:36:55Z</time>
      </trkpt>
      <trkpt lat="48.56298" lon="2.0647">
        <ele>98</ele>
        <time>2019-05-12T09:37:17Z</time>
      </trkpt>
      <trkpt lat="48.56309" lon="2.06468">
        <ele>96</ele>
        <time>2019-05-12T09:37:24Z</time>
      </trkpt>
      <trkpt lat="48.56319" lon="2.06464">
        <ele>95</ele>
        <time>2019-05-12T09:37:32Z</time>
      </trkpt>
      <trkpt lat="48.56326" lon="2.06456">
        <ele>94</ele>
        <time>2019-05-12T09:37:40Z</time>
      </trkpt>
      <trkpt lat="48.56331" lon="2.06442">
        <ele>94</ele>
        <time>2019-05-12T09:37:51Z</time>
      </trkpt>
      <trkpt lat="48.56337" lon="2.06433">
        <ele>93</ele>
        <time>2019-05-12T09:38:00Z</time>
      </trkpt>
      <trkpt lat="48.56345" lon="2.06422">
        <ele>93</ele>
        <time>2019-05-12T09:38:07Z</time>
      </trkpt>
      <trkpt lat="48.56351" lon="2.06411">
        <ele>92</ele>
        <time>2019-05-12T09:38:15Z</time>
      </trkpt>
      <trkpt lat="48.56358" lon="2.06399">
        <ele>92</ele>
        <time>2019-05-12T09:38:25Z</time>
      </trkpt>
      <trkpt lat="48.56366" lon="2.06389">
        <ele>91</ele>
        <time>2019-05-12T09:38:33Z</time>
      </trkpt>
      <trkpt lat="48.56372" lon="2.06378">
        <ele>90</ele>
        <time>2019-05-12T09:38:42Z</time>
      </trkpt>
      <trkpt lat="48.56378" lon="2.06366">
        <ele>90</ele>
        <time>2019-05-12T09:38:51Z</time>
      </trkpt>
      <trkpt lat="48.56384" lon="2.06354">
        <ele>89</ele>
        <time>2019-05-12T09:38:58Z</time>
      </trkpt>
      <trkpt lat="48.56387" lon="2.06341">
        <ele>89</ele>
        <time>2019-05-12T09:39:07Z</time>
      </trkpt>
      <trkpt lat="48.56395" lon="2.06332">
        <ele>88</ele>
        <time>2019-05-12T09:39:15Z</time>
      </trkpt>
      <trkpt lat="48.56401" lon="2.06319">
        <ele>88</ele>
        <time>2019-05-12T09:39:23Z</time>
      </trkpt>
      <trkpt lat="48.56407" lon="2.06305">
        <ele>87</ele>
        <time>2019-05-12T09:39:30Z</time>
      </trkpt>
      <trkpt lat="48.5641" lon="2.06291">
        <ele>87</ele>
        <time>2019-05-12T09:39:39Z</time>
      </trkpt>
      <trkpt lat="48.56412" lon="2.06277">
        <ele>86</ele>
        <time>2019-05-12T09:39:47Z</time>
      </trkpt>
      <trkpt lat="48.56418" lon="2.06266">
        <ele>85</ele>
        <time>2019-05-12T09:39:55Z</time>
      </trkpt>
      <trkpt lat="48.56422" lon="2.06253">
        <ele>85</ele>
        <time>2019-05-12T09:40:02Z</time>
      </trkpt>
      <trkpt lat="48.56426" lon="2.0624">
        <ele>84</ele>
        <time>2019-05-12T09:40:10Z</time>
      </trkpt>
      <trkpt lat="48.56431" lon="2.06228">
        <ele>84</ele>
        <time>2019-05-12T09:40:17Z</time>
      </trkpt>
      <trkpt lat="48.56436" lon="2.06216">
        <ele>83</ele>
        <time>2019-05-12T09:40:25Z</time>
      </trkpt>
      <trkpt lat="48.56442" lon="2.06205">
        <ele>83</ele>
        <time>2019-05-12T09:40:33Z</time>
      </trkpt>
      <trkpt lat="48.56447" lon="2.06193">
        <ele>82</ele>
        <time>2019-05-12T09:40:42Z</time>
      </trkpt>
      <trkpt lat="48.56452" lon="2.06182">
        <ele>82</ele>
        <time>2019-05-12T09:40:51Z</time>
      </trkpt>
      <trkpt lat="48.56456" lon="2.06169">
        <ele>82</ele>
        <time>2019-05-12T09:41:00Z</time>
      </trkpt>
      <trkpt lat="48.56462" lon="2.06159">
        <ele>81</ele>
        <time>2019-05-12T09:41:13Z</time>
      </trkpt>
      <trkpt lat="48.56472" lon="2.0616">
        <ele>81</ele>
        <time>2019-05-12T09:41:21Z</time>
      </trkpt>
      <trkpt lat="48.56482" lon="2.06159">
        <ele>80</ele>
        <time>2019-05-12T09:41:29Z</time>
      </trkpt>
      <trkpt lat="48.56493" lon="2.06157">
        <ele>79</ele>
        <time>2019-05-12T09:41:37Z</time>
      </trkpt>
      <trkpt lat="48.56502" lon="2.06161">
        <ele>79</ele>
        <time>2019-05-12T09:41:44Z</time>
      </trkpt>
      <trkpt lat="48.56512" lon="2.06161">
        <ele>78</ele>
        <time>2019-05-12T09:41:52Z</time>
      </trkpt>
      <trkpt lat="48.56522" lon="2.06161">
        <ele>78</ele>
        <time>2019-05-12T09:42:01Z</time>
      </trkpt>
      <trkpt lat="48.56531" lon="2.06159">
        <ele>77</ele>
        <time>2019-05-12T09:42:09Z</time>
      </trkpt>
      <trkpt lat="48.56542" lon="2.06162">
        <ele>77</ele>
        <time>2019-05-12T09:42:20Z</time>
      </trkpt>
      <trkpt lat="48.56551" lon="2.06165">
        <ele>77</ele>
        <time>2019-05-12T09:42:30Z</time>
      </trkpt>
      <trkpt lat="48.56556" lon="2.06153">
        <ele>76</ele>
        <time>2019-05-12T09:43:06Z</time>
      </trkpt>
      <trkpt lat="48.56553" lon="2.06167">
        <ele>76</ele>
        <time>2019-05-12T09:43:25Z</time>
      </trkpt>
      <trkpt lat="48.56551" lon="2.06181">
        <ele>76</ele>
        <time>2019-05-12T09:43:34Z</time>
      </trkpt>
      <trkpt lat="48.56554" lon="2.06196">
        <ele>76</ele>
        <time>2019-05-12T09:43:42Z</time>
      </trkpt>
      <trkpt lat="48.56559" lon="2.06207">
        <ele>76</ele>
        <time>2019-05-12T09:43:49Z</time>
      </trkpt>
      <trkpt lat="48.56569" lon="2.06206">
        <ele>75</ele>
        <time>2019-05-12T09:43:59Z</time>
      </trkpt>
      <trkpt lat="48.56579" lon="2.06205">
        <ele>75</ele>
        <time>2019-05-12T09:44:06Z</time>
      </trkpt>
      <trkpt lat="48.56588" lon="2.06203">
        <ele>75</ele>
        <time>2019-05-12T09:44:13Z</time>
      </trkpt>
      <trkpt lat="48.56597" lon="2.06204">
        <ele>75</ele>
        <time>2019-05-12T09:44:21Z</time>
      </trkpt>
      <trkpt lat="48.56606" lon="2.06209">
        <ele>75</ele>
        <time>2019-05-12T09:44:28Z</time>
      </trkpt>
      <trkpt lat="48.56615" lon="2.06212">
        <ele>76</ele>
        <time>2019-05-12T09:44:41Z</time>
      </trkpt>
      <trkpt lat="48.56624" lon="2.06203">
        <ele>76</ele>
        <time>2019-05-12T09:44:53Z</time>
      </trkpt>
      <trkpt lat="48.56628" lon="2.06215">
        <ele>76</ele>
        <time>2019-05-12T09:45:13Z</time>
      </trkpt>
      <trkpt lat="48.56637" lon="2.0622">
        <ele>76</ele>
        <time>2019-05-12T09:45:22Z</time>
      </trkpt>
      <trkpt lat="48.56628" lon="2.06224">
        <ele>76</ele>
        <time>2019-05-12T09:46:37Z</time>
      </trkpt>
      <trkpt lat="48.56619" lon="2.06219">
        <ele>76</ele>
        <time>2019-05-12T09:46:50Z</time>
      </trkpt>
      <trkpt lat="48.5661" lon="2.06215">
        <ele>75</ele>
        <time>2019-05-12T09:47:09Z</time>
      </trkpt>
      <trkpt lat="48.566" lon="2.06213">
        <ele>75</ele>
        <time>2019-05-12T09:47:17Z</time>
      </trkpt>
      <trkpt lat="48.56591" lon="2.06209">
        <ele>75</ele>
        <time>2019-05-12T09:47:23Z</time>
      </trkpt>
      <trkpt lat="48.56581" lon="2.06207">
        <ele>75</ele>
        <time>2019-05-12T09:47:34Z</time>
      </trkpt>
      <trkpt lat="48.56572" lon="2.06211">
        <ele>75</ele>
        <time>2019-05-12T09:47:50Z</time>
      </trkpt>
      <trkpt lat="48.56563" lon="2.06213">
        <ele>75</ele>
        <time>2019-05-12T09:48:01Z</time>
      </trkpt>
      <trkpt lat="48.56553" lon="2.0621">
        <ele>76</ele>
        <time>2019-05-12T09:48:13Z</time>
      </trkpt>
      <trkpt lat="48.56546" lon="2.06198">
        <ele>76</ele>
        <time>2019-05-12T09:48:17Z</time>
      </trkpt>
      <trkpt lat="48.56551" lon="2.06186">
        <ele>76</ele>
        <time>2019-05-12T09:48:58Z</time>
      </trkpt>
      <trkpt lat="48.5655" lon="2.06171">
        <ele>77</ele>
        <time>2019-05-12T09:49:13Z</time>
      </trkpt>
      <trkpt lat="48.56552" lon="2.06157">
        <ele>76</ele>
        <time>2019-05-12T09:49:22Z</time>
      </trkpt>
      <trkpt lat="48.56555" lon="2.06143">
        <ele>76</ele>
        <time>2019-05-12T09:49:34Z</time>
      </trkpt>
      <trkpt lat="48.56552" lon="2.06129">
        <ele>76</ele>
        <time>2019-05-12T09:49:42Z</time>
      </trkpt>
      <trkpt lat="48.56551" lon="2.06115">
        <ele>76</ele>
        <time>2019-05-12T09:50:03Z</time>
      </trkpt>
      <trkpt lat="48.56551" lon="2.06101">
        <ele>76</ele>
        <time>2019-05-12T09:50:11Z</time>
      </trkpt>
      <trkpt lat="48.56549" lon="2.06087">
        <ele>76</ele>
        <time>2019-05-12T09:50:21Z</time>
      </trkpt>
      <trkpt lat="48.5655" lon="2.06073">
        <ele>76</ele>
        <time>2019-05-12T09:50:28Z</time>
      </trkpt>
      <trkpt lat="48.56546" lon="2.0606">
        <ele>76</ele>
        <time>2019-05-12T09:50:35Z</time>
      </trkpt>
      <trkpt lat="48.56535" lon="2.06057">
        <ele>76</ele>
        <time>2019-05-12T09:50:38Z</time>
      </trkpt>
      <trkpt lat="48.56543" lon="2.06048">
        <ele>76</ele>
        <time>2019-05-12T09:50:43Z</time>
      </trkpt>
      <trkpt lat="48.56552" lon="2.06042">
        <ele>75</ele>
        <time>2019-05-12T09:50:50Z</time>
      </trkpt>
      <trkpt lat="48.56559" lon="2.06032">
        <ele>75</ele>
        <time>2019-05-12T09:51:09Z</time>
      </trkpt>
      <trkpt lat="48.56565" lon="2.06019">
        <ele>75</ele>
        <time>2019-05-12T09:51:46Z</time>
      </trkpt>
      <trkpt lat="48.56574" lon="2.06018">
        <ele>75</ele>
        <time>2019-05-12T09:51:55Z</time>
      </trkpt>
      <trkpt lat="48.56583" lon="2.06014">
        <ele>75</ele>
        <time>2019-05-12T09:52:06Z</time>
      </trkpt>
      <trkpt lat="48.56592" lon="2.06009">
        <ele>76</ele>
        <time>2019-05-12T09:52:12Z</time>
      </trkpt>
      <trkpt lat="48.56602" lon="2.06011">
        <ele>76</ele>
        <time>2019-05-12T09:52:19Z</time>
      </trkpt>
      <trkpt lat="48.56611" lon="2.06015">
        <ele>77</ele>
        <time>2019-05-12T09:52:27Z</time>
      </trkpt>
      <trkpt lat="48.56613" lon="2.06028">
        <ele>77</ele>
        <time>2019-05-12T09:52:50Z</time>
      </trkpt>
      <trkpt lat="48.56621" lon="2.06035">
        <ele>78</ele>
        <time>2019-05-12T09:52:57Z</time>
      </trkpt>
      <trkpt lat="48.5663" lon="2.06039">
        <ele>78</ele>
        <time>2019-05-12T09:53:06Z</time>
      </trkpt>
      <trkpt lat="48.5664" lon="2.06043">
        <ele>79</ele>
        <time>2019-05-12T09:53:15Z</time>
      </trkpt>
      <trkpt lat="48.56649" lon="2.06048">
        <ele>80</ele>
        <time>2019-05-12T09:53:22Z</time>
      </trkpt>
      <trkpt lat="48.56658" lon="2.06053">
        <ele>80</ele>
        <time>2019-05-12T09:53:29Z</time>
      </trkpt>
      <trkpt lat="48.56667" lon="2.06055">
        <ele>81</ele>
        <time>2019-05-12T09:53:37Z</time>
      </trkpt>
      <trkpt lat="48.56676" lon="2.06057">
        <ele>80</ele>
        <time>2019-05-12T09:53:45Z</time>
      </trkpt>
      <trkpt lat="48.56686" lon="2.06061">
        <ele>80</ele>
        <time>2019-05-12T09:53:52Z</time>
      </trkpt>
      <trkpt lat="48.56696" lon="2.06064">
        <ele>79</ele>
        <time>2019-05-12T09:54:00Z</time>
      </trkpt>
      <trkpt lat="48.56706" lon="2.06064">
        <ele>79</ele>
        <time>2019-05-12T09:54:11Z</time>
      </trkpt>
      <trkpt lat="48.56714" lon="2.06071">
        <ele>78</ele>
        <time>2019-05-12T09:54:17Z</time>
      </trkpt>
      <trkpt lat="48.56723" lon="2.06076">
        <ele>78</ele>
        <time>2019-05-12T09:54:22Z</time>
      </trkpt>
      <trkpt lat="48.56732" lon="2.06081">
        <ele>77</ele>
        <time>2019-05-12T09:54:29Z</time>
      </trkpt>
      <trkpt lat="48.56741" lon="2.06087">
        <ele>76</ele>
        <time>2019-05-12T09:54:38Z</time>
      </trkpt>
      <trkpt lat="48.56751" lon="2.06088">
        <ele>76</ele>
        <time>2019-05-12T09:54:47Z</time>
      </trkpt>
      <trkpt lat="48.5676" lon="2.06087">
        <ele>76</ele>
        <time>2019-05-12T09:54:55Z</time>
      </trkpt>
      <trkpt lat="48.56771" lon="2.06083">
        <ele>76</ele>
        <time>2019-05-12T09:55:04Z</time>
      </trkpt>
      <trkpt lat="48.5678" lon="2.06081">
        <ele>76</ele>
        <time>2019-05-12T09:55:34Z</time>
      </trkpt>
      <trkpt lat="48.56786" lon="2.06071">
        <ele>76</ele>
        <time>2019-05-12T09:55:42Z</time>
      </trkpt>
      <trkpt lat="48.56785" lon="2.06057">
        <ele>77</ele>
        <time>2019-05-12T09:55:50Z</time>
      </trkpt>
      <trkpt lat="48.56782" lon="2.06044">
        <ele>77</ele>
        <time>2019-05-12T09:55:58Z</time>
      </trkpt>
      <trkpt lat="48.5678" lon="2.06029">
        <ele>78</ele>
        <time>2019-05-12T09:56:05Z</time>
      </trkpt>
      <trkpt lat="48.56777" lon="2.06016">
        <ele>78</ele>
        <time>2019-05-12T09:56:12Z</time>
      </trkpt>
      <trkpt lat="48.56776" lon="2.06001">
        <ele>79</ele>
        <time>2019-05-12T09:56:21Z</time>
      </trkpt>
      <trkpt lat="48.56774" lon="2.05988">
        <ele>79</ele>
        <time>2019-05-12T09:56:28Z</time>
      </trkpt>
      <trkpt lat="48.56774" lon="2.05974">
        <ele>80</ele>
        <time>2019-05-12T09:56:36Z</time>
      </trkpt>
      <trkpt lat="48.56775" lon="2.0596">
        <ele>80</ele>
        <time>2019-05-12T09:56:44Z</time>
      </trkpt>
      <trkpt lat="48.56775" lon="2.05946">
        <ele>81</ele>
        <time>2019-05-12T09:56:51Z</time>
      </trkpt>
      <trkpt lat="48.56775" lon="2.05931">
        <ele>81</ele>
        <time>2019-05-12T09:56:57Z</time>
      </trkpt>
      <trkpt lat="48.56777" lon="2.05916">
        <ele>81</ele>
        <time>2019-05-12T09:57:06Z</time>
      </trkpt>
      <trkpt lat="48.56776" lon="2.05902">
        <ele>81</ele>
        <time>2019-05-12T09:57:15Z</time>
      </trkpt>
      <trkpt lat="48.56776" lon="2.05886">
        <ele>81</ele>
        <time>2019-05-12T09:57:23Z</time>
      </trkpt>
      <trkpt lat="48.56777" lon="2.05872">
        <ele>81</ele>
        <time>2019-05-12T09:57:31Z</time>
      </trkpt>
      <trkpt lat="48.5678" lon="2.05858">
        <ele>81</ele>
        <time>2019-05-12T09:57:40Z</time>
      </trkpt>
      <trkpt lat="48.56778" lon="2.05844">
        <ele>81</ele>
        <time>2019-05-12T09:57:48Z</time>
      </trkpt>
      <trkpt lat="48.5678" lon="2.0583">
        <ele>81</ele>
        <time>2019-05-12T09:57:56Z</time>
      </trkpt>
      <trkpt lat="48.56784" lon="2.05815">
        <ele>81</ele>
        <time>2019-05-12T09:58:03Z</time>
      </trkpt>
      <trkpt lat="48.56787" lon="2.058">
        <ele>81</ele>
        <time>2019-05-12T09:58:09Z</time>
      </trkpt>
      <trkpt lat="48.56788" lon="2.05786">
        <ele>81</ele>
        <time>2019-05-12T09:58:17Z</time>
      </trkpt>
      <trkpt lat="48.56789" lon="2.05772">
        <ele>81</ele>
        <time>2019-05-12T09:58:26Z</time>
      </trkpt>
      <trkpt lat="48.56791" lon="2.05758">
        <ele>81</ele>
        <time>2019-05-12T09:58:34Z</time>
      </trkpt>
      <trkpt lat="48.56794" lon="2.05743">
        <ele>81</ele>
        <time>2019-05-12T09:58:41Z</time>
      </trkpt>
      <trkpt lat="48.56797" lon="2.05728">
        <ele>81</ele>
        <time>2019-05-12T09:58:50Z</time>
      </trkpt>
      <trkpt lat="48.56798" lon="2.05714">
        <ele>82</ele>
        <time>2019-05-12T09:58:59Z</time>
      </trkpt>
      <trkpt lat="48.56799" lon="2.05699">
        <ele>82</ele>
        <time>2019-05-12T09:59:06Z</time>
      </trkpt>
      <trkpt lat="48.568" lon="2.05683">
        <ele>82</ele>
        <time>2019-05-12T09:59:13Z</time>
      </trkpt>
      <trkpt lat="48.568" lon="2.05669">
        <ele>82</ele>
        <time>2019-05-12T09:59:21Z</time>
      </trkpt>
      <trkpt lat="48.56799" lon="2.05655">
        <ele>82</ele>
        <time>2019-05-12T09:59:28Z</time>
      </trkpt>
      <trkpt lat="48.56798" lon="2.0564">
        <ele>81</ele>
        <time>2019-05-12T09:59:35Z</time>
      </trkpt>
      <trkpt lat="48.56797" lon="2.05626">
        <ele>81</ele>
        <time>2019-05-12T09:59:43Z</time>
      </trkpt>
      <trkpt lat="48.56796" lon="2.05611">
        <ele>81</ele>
        <time>2019-05-12T09:59:50Z</time>
      </trkpt>
      <trkpt lat="48.56794" lon="2.05595">
        <ele>81</ele>
        <time>2019-05-12T09:59:57Z</time>
      </trkpt>
      <trkpt lat="48.56792" lon="2.05582">
        <ele>80</ele>
        <time>2019-05-12T10:00:03Z</time>
      </trkpt>
      <trkpt lat="48.56789" lon="2.05569">
        <ele>80</ele>
        <time>2019-05-12T10:00:10Z</time>
      </trkpt>
      <trkpt lat="48.56788" lon="2.05555">
        <ele>80</ele>
        <time>2019-05-12T10:00:18Z</time>
      </trkpt>
      <trkpt lat="48.56785" lon="2.0554">
        <ele>80</ele>
        <time>2019-05-12T10:00:27Z</time>
      </trkpt>
      <trkpt lat="48.56782" lon="2.05525">
        <ele>80</ele>
        <time>2019-05-12T10:00:36Z</time>
      </trkpt>
      <trkpt lat="48.56779" lon="2.05511">
        <ele>80</ele>
        <time>2019-05-12T10:00:44Z</time>
      </trkpt>
      <trkpt lat="48.56775" lon="2.05497">
        <ele>80</ele>
        <time>2019-05-12T10:00:52Z</time>
      </trkpt>
      <trkpt lat="48.56771" lon="2.05483">
        <ele>80</ele>
        <time>2019-05-12T10:01:00Z</time>
      </trkpt>
      <trkpt lat="48.56767" lon="2.05469">
        <ele>80</ele>
        <time>2019-05-12T10:01:08Z</time>
      </trkpt>
      <trkpt lat="48.56764" lon="2.05455">
        <ele>80</ele>
        <time>2019-05-12T10:01:15Z</time>
      </trkpt>
      <trkpt lat="48.56761" lon="2.05442">
        <ele>80</ele>
        <time>2019-05-12T10:01:23Z</time>
      </trkpt>
      <trkpt lat="48.56756" lon="2.0543">
        <ele>79</ele>
        <time>2019-05-12T10:01:30Z</time>
      </trkpt>
      <trkpt lat="48.56753" lon="2.05417">
        <ele>79</ele>
        <time>2019-05-12T10:01:37Z</time>
      </trkpt>
      <trkpt lat="48.56748" lon="2.05404">
        <ele>79</ele>
        <time>2019-05-12T10:01:46Z</time>
      </trkpt>
      <trkpt lat="48.56746" lon="2.0539">
        <ele>79</ele>
        <time>2019-05-12T10:01:53Z</time>
      </trkpt>
      <trkpt lat="48.56742" lon="2.05376">
        <ele>79</ele>
        <time>2019-05-12T10:02:02Z</time>
      </trkpt>
      <trkpt lat="48.56739" lon="2.05363">
        <ele>79</ele>
        <time>2019-05-12T10:02:09Z</time>
      </trkpt>
      <trkpt lat="48.56737" lon="2.05349">
        <ele>80</ele>
        <time>2019-05-12T10:02:15Z</time>
      </trkpt>
      <trkpt lat="48.56733" lon="2.05335">
        <ele>80</ele>
        <time>2019-05-12T10:02:23Z</time>
      </trkpt>
      <trkpt lat="48.5673" lon="2.05322">
        <ele>80</ele>
        <time>2019-05-12T10:02:30Z</time>
      </trkpt>
      <trkpt lat="48.56728" lon="2.05309">
        <ele>80</ele>
        <time>2019-05-12T10:02:38Z</time>
      </trkpt>
      <trkpt lat="48.56727" lon="2.05292">
        <ele>80</ele>
        <time>2019-05-12T10:02:47Z</time>
      </trkpt>
      <trkpt lat="48.56727" lon="2.05278">
        <ele>80</ele>
        <time>2019-05-12T10:02:55Z</time>
      </trkpt>
      <trkpt lat="48.56727" lon="2.05264">
        <ele>80</ele>
        <time>2019-05-12T10:03:04Z</time>
      </trkpt>
      <trkpt lat="48.56725" lon="2.0525">
        <ele>80</ele>
        <time>2019-05-12T10:03:13Z</time>
      </trkpt>
      <trkpt lat="48.56724" lon="2.05237">
        <ele>81</ele>
        <time>2019-05-12T10:03:20Z</time>
      </trkpt>
      <trkpt lat="48.56722" lon="2.05221">
        <ele>81</ele>
        <time>2019-05-12T10:03:28Z</time>
      </trkpt>
      <trkpt lat="48.56722" lon="2.05207">
        <ele>81</ele>
        <time>2019-05-12T10:03:35Z</time>
      </trkpt>
      <trkpt lat="48.56721" lon="2.05193">
        <ele>81</ele>
        <time>2019-05-12T10:03:44Z</time>
      </trkpt>
      <trkpt lat="48.56719" lon="2.05178">
        <ele>81</ele>
        <time>2019-05-12T10:03:51Z</time>
      </trkpt>
      <trkpt lat="48.56719" lon="2.05164">
        <ele>81</ele>
        <time>2019-05-12T10:03:57Z</time>
      </trkpt>
      <trkpt lat="48.56717" lon="2.0515">
        <ele>81</ele>
        <time>2019-05-12T10:04:05Z</time>
      </trkpt>
      <trkpt lat="48.56715" lon="2.05135">
        <ele>80</ele>
        <time>2019-05-12T10:04:14Z</time>
      </trkpt>
      <trkpt lat="48.56712" lon="2.05122">
        <ele>80</ele>
        <time>2019-05-12T10:04:22Z</time>
      </trkpt>
      <trkpt lat="48.56707" lon="2.05109">
        <ele>79</ele>
        <time>2019-05-12T10:04:28Z</time>
      </trkpt>
      <trkpt lat="48.56704" lon="2.05095">
        <ele>79</ele>
        <time>2019-05-12T10:04:43Z</time>
      </trkpt>
      <trkpt lat="48.567" lon="2.05083">
        <ele>78</ele>
        <time>2019-05-12T10:04:51Z</time>
      </trkpt>
      <trkpt lat="48.56696" lon="2.05069">
        <ele>78</ele>
        <time>2019-05-12T10:04:59Z</time>
      </trkpt>
      <trkpt lat="48.56692" lon="2.05056">
        <ele>78</ele>
        <time>2019-05-12T10:05:07Z</time>
      </trkpt>
      <trkpt lat="48.56687" lon="2.05043">
        <ele>78</ele>
        <time>2019-05-12T10:05:15Z</time>
      </trkpt>
      <trkpt lat="48.56683" lon="2.05031">
        <ele>77</ele>
        <time>2019-05-12T10:05:24Z</time>
      </trkpt>
      <trkpt lat="48.56684" lon="2.05017">
        <ele>77</ele>
        <time>2019-05-12T10:05:35Z</time>
      </trkpt>
      <trkpt lat="48.56685" lon="2.05003">
        <ele>77</ele>
        <time>2019-05-12T10:05:58Z</time>
      </trkpt>
      <trkpt lat="48.56685" lon="2.04988">
        <ele>77</ele>
        <time>2019-05-12T10:06:09Z</time>
      </trkpt>
      <trkpt lat="48.56686" lon="2.04974">
        <ele>77</ele>
        <time>2019-05-12T10:06:19Z</time>
      </trkpt>
      <trkpt lat="48.56689" lon="2.04959">
        <ele>77</ele>
        <time>2019-05-12T10:06:28Z</time>
      </trkpt>
      <trkpt lat="48.56686" lon="2.04945">
        <ele>77</ele>
        <time>2019-05-12T10:06:36Z</time>
      </trkpt>
      <trkpt lat="48.56687" lon="2.0493">
        <ele>77</ele>
        <time>2019-05-12T10:06:44Z</time>
      </trkpt>
      <trkpt lat="48.5669" lon="2.04916">
        <ele>77</ele>
        <time>2019-05-12T10:06:51Z</time>
      </trkpt>
      <trkpt lat="48.56692" lon="2.04903">
        <ele>77</ele>
        <time>2019-05-12T10:07:00Z</time>
      </trkpt>
      <trkpt lat="48.56689" lon="2.0489">
        <ele>77</ele>
        <time>2019-05-12T10:07:18Z</time>
      </trkpt>
      <trkpt lat="48.5668" lon="2.04886">
        <ele>77</ele>
        <time>2019-05-12T10:07:41Z</time>
      </trkpt>
      <trkpt lat="48.5667" lon="2.04886">
        <ele>76</ele>
        <time>2019-05-12T10:07:49Z</time>
      </trkpt>
      <trkpt lat="48.5666" lon="2.04887">
        <ele>75</ele>
        <time>2019-05-12T10:08:00Z</time>
      </trkpt>
      <trkpt lat="48.5665" lon="2.04887">
        <ele>76</ele>
        <time>2019-05-12T10:08:10Z</time>
      </trkpt>
      <trkpt lat="48.56641" lon="2.04888">
        <ele>76</ele>
        <time>2019-05-12T10:08:19Z</time>
      </trkpt>
      <trkpt lat="48.56631" lon="2.04889">
        <ele>76</ele>
        <time>2019-05-12T10:08:27Z</time>
      </trkpt>
      <trkpt lat="48.56621" lon="2.04886">
        <ele>76</ele>
        <time>2019-05-12T10:08:35Z</time>
      </trkpt>
      <trkpt lat="48.56612" lon="2.04889">
        <ele>76</ele>
        <time>2019-05-12T10:08:43Z</time>
      </trkpt>
      <trkpt lat="48.56603" lon="2.04886">
        <ele>76</ele>
        <time>2019-05-12T10:08:55Z</time>
      </trkpt>
      <trkpt lat="48.56594" lon="2.0488">
        <ele>77</ele>
        <time>2019-05-12T10:09:05Z</time>
      </trkpt>
      <trkpt lat="48.56585" lon="2.04878">
        <ele>77</ele>
        <time>2019-05-12T10:10:18Z</time>
      </trkpt>
      <trkpt lat="48.56594" lon="2.04878">
        <ele>77</ele>
        <time>2019-05-12T10:11:32Z</time>
      </trkpt>
      <trkpt lat="48.56604" lon="2.04878">
        <ele>77</ele>
        <time>2019-05-12T10:11:51Z</time>
      </trkpt>
      <trkpt lat="48.56613" lon="2.04878">
        <ele>76</ele>
        <time>2019-05-12T10:12:00Z</time>
      </trkpt>
      <trkpt lat="48.56623" lon="2.04879">
        <ele>76</ele>
        <time>2019-05-12T10:12:08Z</time>
      </trkpt>
      <trkpt lat="48.56633" lon="2.04879">
        <ele>76</ele>
        <time>2019-05-12T10:12:17Z</time>
      </trkpt>
      <trkpt lat="48.56642" lon="2.0488">
        <ele>76</ele>
        <time>2019-05-12T10:12:25Z</time>
      </trkpt>
      <trkpt lat="48.56651" lon="2.0488">
        <ele>76</ele>
        <time>2019-05-12T10:12:33Z</time>
      </trkpt>
      <trkpt lat="48.56662" lon="2.04882">
        <ele>76</ele>
        <time>2019-05-12T10:12:42Z</time>
      </trkpt>
      <trkpt lat="48.56671" lon="2.04879">
        <ele>76</ele>
        <time>2019-05-12T10:13:58Z</time>
      </trkpt>
      <trkpt lat="48.5668" lon="2.04875">
        <ele>77</ele>
        <time>2019-05-12T10:14:15Z</time>
      </trkpt>
      <trkpt lat="48.56688" lon="2.04866">
        <ele>77</ele>
        <time>2019-05-12T10:14:23Z</time>
      </trkpt>
      <trkpt lat="48.56693" lon="2.04853">
        <ele>78</ele>
        <time>2019-05-12T10:14:32Z</time>
      </trkpt>
      <trkpt lat="48.56697" lon="2.0484">
        <ele>78</ele>
        <time>2019-05-12T10:14:39Z</time>
      </trkpt>
      <trkpt lat="48.56699" lon="2.04826">
        <ele>78</ele>
        <time>2019-05-12T10:14:46Z</time>
      </trkpt>
      <trkpt lat="48.56701" lon="2.04812">
        <ele>79</ele>
        <time>2019-05-12T10:14:55Z</time>
      </trkpt>
      <trkpt lat="48.56709" lon="2.04806">
        <ele>79</ele>
        <time>2019-05-12T10:15:31Z</time>
      </trkpt>
      <trkpt lat="48.56713" lon="2.04793">
        <ele>79</ele>
        <time>2019-05-12T10:15:40Z</time>
      </trkpt>
      <trkpt lat="48.56712" lon="2.04778">
        <ele>80</ele>
        <time>2019-05-12T10:15:58Z</time>
      </trkpt>
      <trkpt lat="48.56717" lon="2.04765">
        <ele>80</ele>
        <time>2019-05-12T10:16:08Z</time>
      </trkpt>
      <trkpt lat="48.5672" lon="2.04751">
        <ele>80</ele>
        <time>2019-05-12T10:16:19Z</time>
      </trkpt>
      <trkpt lat="48.56724" lon="2.04738">
        <ele>80</ele>
        <time>2019-05-12T10:16:27Z</time>
      </trkpt>
      <trkpt lat="48.56727" lon="2.04725">
        <ele>80</ele>
        <time>2019-05-12T10:16:36Z</time>
      </trkpt>
      <trkpt lat="48.56729" lon="2.04709">
        <ele>80</ele>
        <time>2019-05-12T10:16:44Z</time>
      </trkpt>
      <trkpt lat="48.5673" lon="2.04696">
        <ele>81</ele>
        <time>2019-05-12T10:16:51Z</time>
      </trkpt>
      <trkpt lat="48.56729" lon="2.0468">
        <ele>81</ele>
        <time>2019-05-12T10:17:00Z</time>
      </trkpt>
      <trkpt lat="48.56731" lon="2.04665">
        <ele>81</ele>
        <time>2019-05-12T10:17:07Z</time>
      </trkpt>
      <trkpt lat="48.56733" lon="2.04651">
        <ele>81</ele>
        <time>2019-05-12T10:17:15Z</time>
      </trkpt>
      <trkpt lat="48.56732" lon="2.04636">
        <ele>81</ele>
        <time>2019-05-12T10:17:21Z</time>
      </trkpt>
      <trkpt lat="48.56733" lon="2.04622">
        <ele>81</ele>
        <time>2019-05-12T10:17:28Z</time>
      </trkpt>
      <trkpt lat="48.56736" lon="2.04607">
        <ele>81</ele>
        <time>2019-05-12T10:17:36Z</time>
      </trkpt>
      <trkpt lat="48.5674" lon="2.04593">
        <ele>81</ele>
        <time>2019-05-12T10:17:43Z</time>
      </trkpt>
      <trkpt lat="48.56743" lon="2.0458">
        <ele>81</ele>
        <time>2019-05-12T10:17:51Z</time>
      </trkpt>
      <trkpt lat="48.56746" lon="2.04567">
        <ele>81</ele>
        <time>2019-05-12T10:17:59Z</time>
      </trkpt>
      <trkpt lat="48.56749" lon="2.04554">
        <ele>81</ele>
        <time>2019-05-12T10:18:06Z</time>
      </trkpt>
      <trkpt lat="48.56753" lon="2.0454">
        <ele>81</ele>
        <time>2019-05-12T10:18:13Z</time>
      </trkpt>
      <trkpt lat="48.56757" lon="2.04526">
        <ele>81</ele>
        <time>2019-05-12T10:18:21Z</time>
      </trkpt>
      <trkpt lat="48.56761" lon="2.04514">
        <ele>81</ele>
        <time>2019-05-12T10:18:28Z</time>
      </trkpt>
      <trkpt lat="48.56765" lon="2.045">
        <ele>81</ele>
        <time>2019-05-12T10:18:36Z</time>
      </trkpt>
      <trkpt lat="48.56768" lon="2.04487">
        <ele>81</ele>
        <time>2019-05-12T10:18:44Z</time>
      </trkpt>
      <trkpt lat="48.56774" lon="2.04475">
        <ele>81</ele>
        <time>2019-05-12T10:18:51Z</time>
      </trkpt>
      <trkpt lat="48.56778" lon="2.04462">
        <ele>81</ele>
        <time>2019-05-12T10:18:59Z</time>
      </trkpt>
      <trkpt lat="48.56782" lon="2.04449">
        <ele>81</ele>
        <time>2019-05-12T10:19:07Z</time>
      </trkpt>
      <trkpt lat="48.56786" lon="2.04437">
        <ele>81</ele>
        <time>2019-05-12T10:19:15Z</time>
      </trkpt>
      <trkpt lat="48.5679" lon="2.04424">
        <ele>81</ele>
        <time>2019-05-12T10:19:22Z</time>
      </trkpt>
      <trkpt lat="48.56794" lon="2.04411">
        <ele>81</ele>
        <time>2019-05-12T10:19:29Z</time>
      </trkpt>
      <trkpt lat="48.56796" lon="2.04398">
        <ele>81</ele>
        <time>2019-05-12T10:19:36Z</time>
      </trkpt>
      <trkpt lat="48.56799" lon="2.04384">
        <ele>81</ele>
        <time>2019-05-12T10:19:44Z</time>
      </trkpt>
      <trkpt lat="48.56802" lon="2.0437">
        <ele>81</ele>
        <time>2019-05-12T10:19:52Z</time>
      </trkpt>
      <trkpt lat="48.56805" lon="2.04357">
        <ele>81</ele>
        <time>2019-05-12T10:20:00Z</time>
      </trkpt>
      <trkpt lat="48.56808" lon="2.04342">
        <ele>81</ele>
        <time>2019-05-12T10:20:07Z</time>
      </trkpt>
      <trkpt lat="48.56807" lon="2.04326">
        <ele>81</ele>
        <time>2019-05-12T10:20:14Z</time>
      </trkpt>
      <trkpt lat="48.56806" lon="2.04312">
        <ele>81</ele>
        <time>2019-05-12T10:20:23Z</time>
      </trkpt>
      <trkpt lat="48.56805" lon="2.04298">
        <ele>81</ele>
        <time>2019-05-12T10:20:30Z</time>
      </trkpt>
      <trkpt lat="48.56803" lon="2.04284">
        <ele>82</ele>
        <time>2019-05-12T10:20:38Z</time>
      </trkpt>
      <trkpt lat="48.56803" lon="2.0427">
        <ele>82</ele>
        <time>2019-05-12T10:20:47Z</time>
      </trkpt>
      <trkpt lat="48.56801" lon="2.04256">
        <ele>82</ele>
        <time>2019-05-12T10:20:55Z</time>
      </trkpt>
      <trkpt lat="48.568" lon="2.04242">
        <ele>82</ele>
        <time>2019-05-12T10:21:03Z</time>
      </trkpt>
      <trkpt lat="48.56798" lon="2.04227">
        <ele>82</ele>
        <time>2019-05-12T10:21:11Z</time>
      </trkpt>
      <trkpt lat="48.56796" lon="2.04213">
        <ele>81</ele>
        <time>2019-05-12T10:21:19Z</time>
      </trkpt>
      <trkpt lat="48.56794" lon="2.04199">
        <ele>81</ele>
        <time>2019-05-12T10:21:26Z</time>
      </trkpt>
      <trkpt lat="48.56793" lon="2.04186">
        <ele>81</ele>
        <time>2019-05-12T10:21:31Z</time>
      </trkpt>
      <trkpt lat="48.56792" lon="2.04171">
        <ele>81</ele>
        <time>2019-05-12T10:21:38Z</time>
      </trkpt>
      <trkpt lat="48.56792" lon="2.04156">
        <ele>81</ele>
        <time>2019-05-12T10:21:45Z</time>
      </trkpt>
      <trkpt lat="48.56791" lon="2.04141">
        <ele>80</ele>
        <time>2019-05-12T10:21:52Z</time>
      </trkpt>
      <trkpt lat="48.56791" lon="2.04126">
        <ele>80</ele>
        <time>2019-05-12T10:21:59Z</time>
      </trkpt>
      <trkpt lat="48.56792" lon="2.04112">
        <ele>80</ele>
        <time>2019-05-12T10:22:07Z</time>
      </trkpt>
      <trkpt lat="48.56791" lon="2.04097">
        <ele>80</ele>
        <time>2019-05-12T10:22:15Z</time>
      </trkpt>
      <trkpt lat="48.5679" lon="2.04081">
        <ele>81</ele>
        <time>2019-05-12T10:22:23Z</time>
      </trkpt>
      <trkpt lat="48.5679" lon="2.04065">
        <ele>81</ele>
        <time>2019-05-12T10:22:30Z</time>
      </trkpt>
      <trkpt lat="48.5679" lon="2.0405">
        <ele>82</ele>
        <time>2019-05-12T10:22:39Z</time>
      </trkpt>
      <trkpt lat="48.5679" lon="2.04036">
        <ele>82</ele>
        <time>2019-05-12T10:22:45Z</time>
      </trkpt>
      <trkpt lat="48.56789" lon="2.04022">
        <ele>83</ele>
        <time>2019-05-12T10:22:51Z</time>
      </trkpt>
      <trkpt lat="48.56791" lon="2.04006">
        <ele>83</ele>
        <time>2019-05-12T10:22:59Z</time>
      </trkpt>
      <trkpt lat="48.56792" lon="2.03991">
        <ele>83</ele>
        <time>2019-05-12T10:23:08Z</time>
      </trkpt>
      <trkpt lat="48.56791" lon="2.03977">
        <ele>83</ele>
        <time>2019-05-12T10:27:34Z</time>
      </trkpt>
      <trkpt lat="48.56794" lon="2.03963">
        <ele>83</ele>
        <time>2019-05-12T10:27:41Z</time>
      </trkpt>
      <trkpt lat="48.56797" lon="2.0395">
        <ele>83</ele>
        <time>2019-05-12T10:27:48Z</time>
      </trkpt>
      <trkpt lat="48.56795" lon="2.03936">
        <ele>83</ele>
        <time>2019-05-12T10:27:56Z</time>
      </trkpt>
      <trkpt lat="48.56798" lon="2.03923">
        <ele>83</ele>
        <time>2019-05-12T10:28:04Z</time>
      </trkpt>
      <trkpt lat="48.56795" lon="2.03907">
        <ele>83</ele>
        <time>2019-05-12T10:28:15Z</time>
      </trkpt>
      <trkpt lat="48.56792" lon="2.03892">
        <ele>83</ele>
        <time>2019-05-12T10:28:20Z</time>
      </trkpt>
      <trkpt lat="48.5679" lon="2.03876">
        <ele>83</ele>
        <time>2019-05-12T10:28:29Z</time>
      </trkpt>
      <trkpt lat="48.5679" lon="2.03862">
        <ele>83</ele>
        <time>2019-05-12T10:28:37Z</time>
      </trkpt>
      <trkpt lat="48.56785" lon="2.0385">
        <ele>83</ele>
        <time>2019-05-12T10:28:44Z</time>
      </trkpt>
      <trkpt lat="48.56781" lon="2.03836">
        <ele>83</ele>
        <time>2019-05-12T10:28:54Z</time>
      </trkpt>
      <trkpt lat="48.56777" lon="2.03822">
        <ele>83</ele>
        <time>2019-05-12T10:29:00Z</time>
      </trkpt>
      <trkpt lat="48.56774" lon="2.03808">
        <ele>83</ele>
        <time>2019-05-12T10:29:09Z</time>
      </trkpt>
      <trkpt lat="48.5677" lon="2.03796">
        <ele>83</ele>
        <time>2019-05-12T10:29:15Z</time>
      </trkpt>
      <trkpt lat="48.56766" lon="2.03782">
        <ele>83</ele>
        <time>2019-05-12T10:29:23Z</time>
      </trkpt>
      <trkpt lat="48.56764" lon="2.03768">
        <ele>83</ele>
        <time>2019-05-12T10:29:31Z</time>
      </trkpt>
      <trkpt lat="48.56765" lon="2.03754">
        <ele>83</ele>
        <time>2019-05-12T10:29:38Z</time>
      </trkpt>
      <trkpt lat="48.56767" lon="2.0374">
        <ele>83</ele>
        <time>2019-05-12T10:29:47Z</time>
      </trkpt>
      <trkpt lat="48.56769" lon="2.03727">
        <ele>83</ele>
        <time>2019-05-12T10:29:53Z</time>
      </trkpt>
      <trkpt lat="48.56771" lon="2.03713">
        <ele>82</ele>
        <time>2019-05-12T10:30:04Z</time>
      </trkpt>
      <trkpt lat="48.56771" lon="2.03697">
        <ele>82</ele>
        <time>2019-05-12T10:30:11Z</time>
      </trkpt>
      <trkpt lat="48.56777" lon="2.03686">
        <ele>82</ele>
        <time>2019-05-12T10:30:19Z</time>
      </trkpt>
      <trkpt lat="48.5678" lon="2.03672">
        <ele>81</ele>
        <time>2019-05-12T10:30:24Z</time>
      </trkpt>
      <trkpt lat="48.56786" lon="2.03662">
        <ele>81</ele>
        <time>2019-05-12T10:30:35Z</time>
      </trkpt>
      <trkpt lat="48.5679" lon="2.0365">
        <ele>81</ele>
        <time>2019-05-12T10:30:41Z</time>
      </trkpt>
      <trkpt lat="48.56794" lon="2.03635">
        <ele>81</ele>
        <time>2019-05-12T10:30:46Z</time>
      </trkpt>
      <trkpt lat="48.56797" lon="2.03621">
        <ele>80</ele>
        <time>2019-05-12T10:30:55Z</time>
      </trkpt>
      <trkpt lat="48.56804" lon="2.03611">
        <ele>80</ele>
        <time>2019-05-12T10:31:04Z</time>
      </trkpt>
      <trkpt lat="48.56811" lon="2.03602">
        <ele>80</ele>
        <time>2019-05-12T10:31:13Z</time>
      </trkpt>
      <trkpt lat="48.5682" lon="2.03596">
        <ele>80</ele>
        <time>2019-05-12T10:31:23Z</time>
      </trkpt>
      <trkpt lat="48.56828" lon="2.03586">
        <ele>80</ele>
        <time>2019-05-12T10:31:31Z</time>
      </trkpt>
      <trkpt lat="48.56835" lon="2.03577">
        <ele>80</ele>
        <time>2019-05-12T10:31:38Z</time>
      </trkpt>
      <trkpt lat="48.56843" lon="2.03569">
        <ele>81</ele>
        <time>2019-05-12T10:31:45Z</time>
      </trkpt>
      <trkpt lat="48.5685" lon="2.03559">
        <ele>81</ele>
        <time>2019-05-12T10:31:55Z</time>
      </trkpt>
      <trkpt lat="48.56857" lon="2.03549">
        <ele>82</ele>
        <time>2019-05-12T10:32:04Z</time>
      </trkpt>
      <trkpt lat="48.56862" lon="2.03537">
        <ele>82</ele>
        <time>2019-05-12T10:32:15Z</time>
      </trkpt>
      <trkpt lat="48.56868" lon="2.03527">
        <ele>82</ele>
        <time>2019-05-12T10:32:26Z</time>
      </trkpt>
      <trkpt lat="48.56874" lon="2.03516">
        <ele>82</ele>
        <time>2019-05-12T10:32:34Z</time>
      </trkpt>
      <trkpt lat="48.5688" lon="2.03505">
        <ele>82</ele>
        <time>2019-05-12T10:32:43Z</time>
      </trkpt>
      <trkpt lat="48.56882" lon="2.03491">
        <ele>82</ele>
        <time>2019-05-12T10:32:52Z</time>
      </trkpt>
      <trkpt lat="48.56887" lon="2.03478">
        <ele>82</ele>
        <time>2019-05-12T10:32:58Z</time>
      </trkpt>
      <trkpt lat="48.56893" lon="2.03466">
        <ele>82</ele>
        <time>2019-05-12T10:33:05Z</time>
      </trkpt>
      <trkpt lat="48.56898" lon="2.03453">
        <ele>82</ele>
        <time>2019-05-12T10:33:13Z</time>
      </trkpt>
      <trkpt lat="48.56906" lon="2.03446">
        <ele>82</ele>
        <time>2019-05-12T10:33:21Z</time>
      </trkpt>
      <trkpt lat="48.56916" lon="2.03444">
        <ele>82</ele>
        <time>2019-05-12T10:33:44Z</time>
      </trkpt>
      <trkpt lat="48.56925" lon="2.03437">
        <ele>82</ele>
        <time>2019-05-12T10:33:56Z</time>
      </trkpt>
      <trkpt lat="48.56932" lon="2.03428">
        <ele>82</ele>
        <time>2019-05-12T10:34:12Z</time>
      </trkpt>
      <trkpt lat="48.56941" lon="2.03432">
        <ele>83</ele>
        <time>2019-05-12T10:36:12Z</time>
      </trkpt>
      <trkpt lat="48.5695" lon="2.03427">
        <ele>83</ele>
        <time>2019-05-12T10:36:22Z</time>
      </trkpt>
      <trkpt lat="48.56959" lon="2.03421">
        <ele>84</ele>
        <time>2019-05-12T10:36:31Z</time>
      </trkpt>
      <trkpt lat="48.56966" lon="2.03413">
        <ele>84</ele>
        <time>2019-05-12T10:36:38Z</time>
      </trkpt>
      <trkpt lat="48.56972" lon="2.03402">
        <ele>84</ele>
        <time>2019-05-12T10:36:47Z</time>
      </trkpt>
      <trkpt lat="48.56979" lon="2.03392">
        <ele>83</ele>
        <time>2019-05-12T10:37:10Z</time>
      </trkpt>
      <trkpt lat="48.56984" lon="2.03381">
        <ele>83</ele>
        <time>2019-05-12T10:37:20Z</time>
      </trkpt>
      <trkpt lat="48.56993" lon="2.03375">
        <ele>83</ele>
        <time>2019-05-12T10:37:28Z</time>
      </trkpt>
      <trkpt lat="48.57001" lon="2.0337">
        <ele>83</ele>
        <time>2019-05-12T10:38:46Z</time>
      </trkpt>
      <trkpt lat="48.56999" lon="2.03357">
        <ele>82</ele>
        <time>2019-05-12T10:41:02Z</time>
      </trkpt>
      <trkpt lat="48.57005" lon="2.03347">
        <ele>82</ele>
        <time>2019-05-12T10:43:38Z</time>
      </trkpt>
      <trkpt lat="48.57002" lon="2.0336">
        <ele>83</ele>
        <time>2019-05-12T10:45:11Z</time>
      </trkpt>
      <trkpt lat="48.57011" lon="2.03362">
        <ele>83</ele>
        <time>2019-05-12T10:53:48Z</time>
      </trkpt>
      <trkpt lat="48.57003" lon="2.03358">
        <ele>83</ele>
        <time>2019-05-12T10:54:46Z</time>
      </trkpt>
      <trkpt lat="48.56994" lon="2.03355">
        <ele>82</ele>
        <time>2019-05-12T10:55:29Z</time>
      </trkpt>
      <trkpt lat="48.56997" lon="2.03368">
        <ele>83</ele>
        <time>2019-05-12T10:56:45Z</time>
      </trkpt>
      <trkpt lat="48.57006" lon="2.03372">
        <ele>84</ele>
        <time>2019-05-12T10:57:48Z</time>
      </trkpt>
      <trkpt lat="48.56999" lon="2.03364">
        <ele>83</ele>
        <time>2019-05-12T11:03:42Z</time>
      </trkpt>
      <trkpt lat="48.57006" lon="2.03374">
        <ele>84</ele>
        <time>2019-05-12T11:05:16Z</time>
      </trkpt>
      <trkpt lat="48.57003" lon="2.0336">
        <ele>83</ele>
        <time>2019-05-12T11:06:38Z</time>
      </trkpt>
      <trkpt lat="48.57001" lon="2.03373">
        <ele>83</ele>
        <time>2019-05-12T11:09:56Z</time>
      </trkpt>
      <trkpt lat="48.56993" lon="2.03379">
        <ele>83</ele>
        <time>2019-05-12T11:15:04Z</time>
      </trkpt>
      <trkpt lat="48.56984" lon="2.03386">
        <ele>83</ele>
        <time>2019-05-12T11:15:15Z</time>
      </trkpt>
      <trkpt lat="48.56992" lon="2.03392">
        <ele>84</ele>
        <time>2019-05-12T11:17:46Z</time>
      </trkpt>
      <trkpt lat="48.57001" lon="2.03396">
        <ele>85</ele>
        <time>2019-05-12T11:17:56Z</time>
      </trkpt>
      <trkpt lat="48.56995" lon="2.03407">
        <ele>85</ele>
        <time>2019-05-12T11:18:24Z</time>
      </trkpt>
      <trkpt lat="48.56996" lon="2.03421">
        <ele>86</ele>
        <time>2019-05-12T11:18:35Z</time>
      </trkpt>
      <trkpt lat="48.56999" lon="2.03434">
        <ele>87</ele>
        <time>2019-05-12T11:18:47Z</time>
      </trkpt>
      <trkpt lat="48.57002" lon="2.03447">
        <ele>88</ele>
        <time>2019-05-12T11:19:02Z</time>
      </trkpt>
      <trkpt lat="48.57008" lon="2.03457">
        <ele>88</ele>
        <time>2019-05-12T11:19:11Z</time>
      </trkpt>
      <trkpt lat="48.57011" lon="2.0347">
        <ele>89</ele>
        <time>2019-05-12T11:19:23Z</time>
      </trkpt>
      <trkpt lat="48.57016" lon="2.03482">
        <ele>90</ele>
        <time>2019-05-12T11:19:33Z</time>
      </trkpt>
      <trkpt lat="48.5702" lon="2.03494">
        <ele>91</ele>
        <time>2019-05-12T11:19:43Z</time>
      </trkpt>
      <trkpt lat="48.57024" lon="2.03507">
        <ele>91</ele>
        <time>2019-05-12T11:19:54Z</time>
      </trkpt>
      <trkpt lat="48.5703" lon="2.03518">
        <ele>92</ele>
        <time>2019-05-12T11:20:04Z</time>
      </trkpt>
      <trkpt lat="48.57036" lon="2.03527">
        <ele>93</ele>
        <time>2019-05-12T11:20:15Z</time>
      </trkpt>
      <trkpt lat="48.5704" lon="2.0354">
        <ele>93</ele>
        <time>2019-05-12T11:20:26Z</time>
      </trkpt>
      <trkpt lat="48.57044" lon="2.03553">
        <ele>94</ele>
        <time>2019-05-12T11:20:38Z</time>
      </trkpt>
      <trkpt lat="48.57049" lon="2.03565">
        <ele>95</ele>
        <time>2019-05-12T11:20:49Z</time>
      </trkpt>
      <trkpt lat="48.57053" lon="2.03578">
        <ele>95</ele>
        <time>2019-05-12T11:21:00Z</time>
      </trkpt>
      <trkpt lat="48.57057" lon="2.03591">
        <ele>96</ele>
        <time>2019-05-12T11:21:09Z</time>
      </trkpt>
      <trkpt lat="48.57061" lon="2.03604">
        <ele>96</ele>
        <time>2019-05-12T11:21:20Z</time>
      </trkpt>
      <trkpt lat="48.57066" lon="2.03616">
        <ele>96</ele>
        <time>2019-05-12T11:21:29Z</time>
      </trkpt>
      <trkpt lat="48.57071" lon="2.03628">
        <ele>97</ele>
        <time>2019-05-12T11:21:38Z</time>
      </trkpt>
      <trkpt lat="48.57076" lon="2.03639">
        <ele>97</ele>
        <time>2019-05-12T11:21:47Z</time>
      </trkpt>
      <trkpt lat="48.57082" lon="2.03651">
        <ele>98</ele>
        <time>2019-05-12T11:21:56Z</time>
      </trkpt>
      <trkpt lat="48.57088" lon="2.03662">
        <ele>98</ele>
        <time>2019-05-12T11:22:04Z</time>
      </trkpt>
      <trkpt lat="48.57093" lon="2.03674">
        <ele>99</ele>
        <time>2019-05-12T11:22:12Z</time>
      </trkpt>
      <trkpt lat="48.57098" lon="2.03686">
        <ele>99</ele>
        <time>2019-05-12T11:22:20Z</time>
      </trkpt>
      <trkpt lat="48.57102" lon="2.03698">
        <ele>99</ele>
        <time>2019-05-12T11:22:28Z</time>
      </trkpt>
      <trkpt lat="48.57107" lon="2.0371">
        <ele>100</ele>
        <time>2019-05-12T11:22:37Z</time>
      </trkpt>
      <trkpt lat="48.57113" lon="2.03722">
        <ele>101</ele>
        <time>2019-05-12T11:22:46Z</time>
      </trkpt>
      <trkpt lat="48.57117" lon="2.03736">
        <ele>101</ele>
        <time>2019-05-12T11:22:56Z</time>
      </trkpt>
      <trkpt lat="48.57122" lon="2.03747">
        <ele>102</ele>
        <time>2019-05-12T11:23:05Z</time>
      </trkpt>
      <trkpt lat="48.57128" lon="2.03758">
        <ele>102</ele>
        <time>2019-05-12T11:23:13Z</time>
      </trkpt>
      <trkpt lat="48.57131" lon="2.03771">
        <ele>103</ele>
        <time>2019-05-12T11:23:21Z</time>
      </trkpt>
      <trkpt lat="48.57136" lon="2.03784">
        <ele>104</ele>
        <time>2019-05-12T11:23:29Z</time>
      </trkpt>
      <trkpt lat="48.57141" lon="2.03797">
        <ele>104</ele>
        <time>2019-05-12T11:23:39Z</time>
      </trkpt>
      <trkpt lat="48.57147" lon="2.03808">
        <ele>105</ele>
        <time>2019-05-12T11:23:47Z</time>
      </trkpt>
      <trkpt lat="48.57152" lon="2.03821">
        <ele>106</ele>
        <time>2019-05-12T11:23:55Z</time>
      </trkpt>
      <trkpt lat="48.57157" lon="2.03834">
        <ele>107</ele>
        <time>2019-05-12T11:24:05Z</time>
      </trkpt>
      <trkpt lat="48.57162" lon="2.03846">
        <ele>107</ele>
        <time>2019-05-12T11:24:13Z</time>
      </trkpt>
      <trkpt lat="48.57168" lon="2.03857">
        <ele>108</ele>
        <time>2019-05-12T11:24:21Z</time>
      </trkpt>
      <trkpt lat="48.57175" lon="2.03867">
        <ele>108</ele>
        <time>2019-05-12T11:24:29Z</time>
      </trkpt>
      <trkpt lat="48.5718" lon="2.03879">
        <ele>109</ele>
        <time>2019-05-12T11:24:38Z</time>
      </trkpt>
      <trkpt lat="48.57184" lon="2.03893">
        <ele>109</ele>
        <time>2019-05-12T11:24:45Z</time>
      </trkpt>
      <trkpt lat="48.5719" lon="2.03903">
        <ele>110</ele>
        <time>2019-05-12T11:24:53Z</time>
      </trkpt>
      <trkpt lat="48.57194" lon="2.03916">
        <ele>110</ele>
        <time>2019-05-12T11:25:01Z</time>
      </trkpt>
      <trkpt lat="48.57199" lon="2.03928">
        <ele>110</ele>
        <time>2019-05-12T11:25:09Z</time>
      </trkpt>
      <trkpt lat="48.57204" lon="2.03941">
        <ele>111</ele>
        <time>2019-05-12T11:25:18Z</time>
      </trkpt>
      <trkpt lat="48.57209" lon="2.03953">
        <ele>112</ele>
        <time>2019-05-12T11:25:26Z</time>
      </trkpt>
      <trkpt lat="48.57215" lon="2.03965">
        <ele>112</ele>
        <time>2019-05-12T11:25:34Z</time>
      </trkpt>
      <trkpt lat="48.57221" lon="2.03976">
        <ele>113</ele>
        <time>2019-05-12T11:25:42Z</time>
      </trkpt>
      <trkpt lat="48.57227" lon="2.03987">
        <ele>114</ele>
        <time>2019-05-12T11:25:50Z</time>
      </trkpt>
      <trkpt lat="48.57232" lon="2.04">
        <ele>114</ele>
        <time>2019-05-12T11:25:59Z</time>
      </trkpt>
      <trkpt lat="48.57235" lon="2.04015">
        <ele>115</ele>
        <time>2019-05-12T11:26:07Z</time>
      </trkpt>
      <trkpt lat="48.57243" lon="2.04025">
        <ele>115</ele>
        <time>2019-05-12T11:26:16Z</time>
      </trkpt>
      <trkpt lat="48.57248" lon="2.04036">
        <ele>116</ele>
        <time>2019-05-12T11:26:23Z</time>
      </trkpt>
      <trkpt lat="48.57252" lon="2.0405">
        <ele>116</ele>
        <time>2019-05-12T11:26:32Z</time>
      </trkpt>
      <trkpt lat="48.57255" lon="2.04063">
        <ele>116</ele>
        <time>2019-05-12T11:26:41Z</time>
      </trkpt>
      <trkpt lat="48.57261" lon="2.04077">
        <ele>117</ele>
        <time>2019-05-12T11:26:50Z</time>
      </trkpt>
      <trkpt lat="48.57265" lon="2.04089">
        <ele>117</ele>
        <time>2019-05-12T11:26:58Z</time>
      </trkpt>
      <trkpt lat="48.57272" lon="2.04101">
        <ele>118</ele>
        <time>2019-05-12T11:27:05Z</time>
      </trkpt>
      <trkpt lat="48.57264" lon="2.04111">
        <ele>118</ele>
        <time>2019-05-12T11:28:12Z</time>
      </trkpt>
      <trkpt lat="48.57262" lon="2.04125">
        <ele>118</ele>
        <time>2019-05-12T11:28:19Z</time>
      </trkpt>
      <trkpt lat="48.57264" lon="2.04139">
        <ele>119</ele>
        <time>2019-05-12T11:28:27Z</time>
      </trkpt>
      <trkpt lat="48.57263" lon="2.04154">
        <ele>120</ele>
        <time>2019-05-12T11:28:36Z</time>
      </trkpt>
      <trkpt lat="48.57261" lon="2.04167">
        <ele>120</ele>
        <time>2019-05-12T11:28:45Z</time>
      </trkpt>
      <trkpt lat="48.57262" lon="2.04182">
        <ele>120</ele>
        <time>2019-05-12T11:28:53Z</time>
      </trkpt>
      <trkpt lat="48.5726" lon="2.04195">
        <ele>120</ele>
        <time>2019-05-12T11:29:00Z</time>
      </trkpt>
      <trkpt lat="48.5726" lon="2.04209">
        <ele>120</ele>
        <time>2019-05-12T11:29:08Z</time>
      </trkpt>
      <trkpt lat="48.57259" lon="2.04225">
        <ele>120</ele>
        <time>2019-05-12T11:29:17Z</time>
      </trkpt>
      <trkpt lat="48.57256" lon="2.0424">
        <ele>120</ele>
        <time>2019-05-12T11:29:25Z</time>
      </trkpt>
      <trkpt lat="48.57256" lon="2.04255">
        <ele>120</ele>
        <time>2019-05-12T11:29:32Z</time>
      </trkpt>
      <trkpt lat="48.57254" lon="2.04271">
        <ele>120</ele>
        <time>2019-05-12T11:29:40Z</time>
      </trkpt>
      <trkpt lat="48.57254" lon="2.04284">
        <ele>119</ele>
        <time>2019-05-12T11:29:51Z</time>
      </trkpt>
      <trkpt lat="48.57252" lon="2.04298">
        <ele>119</ele>
        <time>2019-05-12T11:30:00Z</time>
      </trkpt>
      <trkpt lat="48.57252" lon="2.04312">
        <ele>119</ele>
        <time>2019-05-12T11:30:08Z</time>
      </trkpt>
      <trkpt lat="48.57253" lon="2.04326">
        <ele>118</ele>
        <time>2019-05-12T11:30:16Z</time>
      </trkpt>
      <trkpt lat="48.5725" lon="2.04339">
        <ele>118</ele>
        <time>2019-05-12T11:30:22Z</time>
      </trkpt>
      <trkpt lat="48.57247" lon="2.04352">
        <ele>117</ele>
        <time>2019-05-12T11:30:28Z</time>
      </trkpt>
      <trkpt lat="48.57244" lon="2.04366">
        <ele>116</ele>
        <time>2019-05-12T11:30:36Z</time>
      </trkpt>
      <trkpt lat="48.57241" lon="2.0438">
        <ele>115</ele>
        <time>2019-05-12T11:30:44Z</time>
      </trkpt>
      <trkpt lat="48.57238" lon="2.04394">
        <ele>114</ele>
        <time>2019-05-12T11:30:52Z</time>
      </trkpt>
      <trkpt lat="48.57233" lon="2.04406">
        <ele>113</ele>
        <time>2019-05-12T11:30:58Z</time>
      </trkpt>
      <trkpt lat="48.57232" lon="2.0442">
        <ele>112</ele>
        <time>2019-05-12T11:31:05Z</time>
      </trkpt>
      <trkpt lat="48.57231" lon="2.04436">
        <ele>111</ele>
        <time>2019-05-12T11:31:11Z</time>
      </trkpt>
      <trkpt lat="48.57233" lon="2.04451">
        <ele>111</ele>
        <time>2019-05-12T11:31:20Z</time>
      </trkpt>
      <trkpt lat="48.57233" lon="2.04466">
        <ele>110</ele>
        <time>2019-05-12T11:31:27Z</time>
      </trkpt>
      <trkpt lat="48.57233" lon="2.04481">
        <ele>110</ele>
        <time>2019-05-12T11:31:34Z</time>
      </trkpt>
      <trkpt lat="48.57232" lon="2.04495">
        <ele>109</ele>
        <time>2019-05-12T11:31:40Z</time>
      </trkpt>
      <trkpt lat="48.57233" lon="2.04509">
        <ele>109</ele>
        <time>2019-05-12T11:31:47Z</time>
      </trkpt>
      <trkpt lat="48.5723" lon="2.04523">
        <ele>109</ele>
        <time>2019-05-12T11:31:54Z</time>
      </trkpt>
      <trkpt lat="48.57228" lon="2.04537">
        <ele>109</ele>
        <time>2019-05-12T11:32:01Z</time>
      </trkpt>
      <trkpt lat="48.57228" lon="2.04552">
        <ele>109</ele>
        <time>2019-05-12T11:32:11Z</time>
      </trkpt>
      <trkpt lat="48.57228" lon="2.04566">
        <ele>109</ele>
        <time>2019-05-12T11:32:19Z</time>
      </trkpt>
      <trkpt lat="48.57227" lon="2.0458">
        <ele>109</ele>
        <time>2019-05-12T11:32:26Z</time>
      </trkpt>
      <trkpt lat="48.57225" lon="2.04594">
        <ele>109</ele>
        <time>2019-05-12T11:32:34Z</time>
      </trkpt>
      <trkpt lat="48.57225" lon="2.0461">
        <ele>109</ele>
        <time>2019-05-12T11:32:44Z</time>
      </trkpt>
      <trkpt lat="48.57228" lon="2.04623">
        <ele>109</ele>
        <time>2019-05-12T11:32:52Z</time>
      </trkpt>
      <trkpt lat="48.57225" lon="2.04636">
        <ele>110</ele>
        <time>2019-05-12T11:32:59Z</time>
      </trkpt>
      <trkpt lat="48.57226" lon="2.0465">
        <ele>110</ele>
        <time>2019-05-12T11:33:06Z</time>
      </trkpt>
      <trkpt lat="48.57225" lon="2.04664">
        <ele>110</ele>
        <time>2019-05-12T11:33:13Z</time>
      </trkpt>
      <trkpt lat="48.57228" lon="2.04679">
        <ele>110</ele>
        <time>2019-05-12T11:33:21Z</time>
      </trkpt>
      <trkpt lat="48.57229" lon="2.04693">
        <ele>109</ele>
        <time>2019-05-12T11:33:27Z</time>
      </trkpt>
      <trkpt lat="48.57229" lon="2.04708">
        <ele>109</ele>
        <time>2019-05-12T11:33:35Z</time>
      </trkpt>
      <trkpt lat="48.57233" lon="2.04721">
        <ele>109</ele>
        <time>2019-05-12T11:33:43Z</time>
      </trkpt>
      <trkpt lat="48.57235" lon="2.04736">
        <ele>108</ele>
        <time>2019-05-12T11:33:50Z</time>
      </trkpt>
      <trkpt lat="48.57235" lon="2.04751">
        <ele>108</ele>
        <time>2019-05-12T11:33:57Z</time>
      </trkpt>
      <trkpt lat="48.57234" lon="2.04764">
        <ele>108</ele>
        <time>2019-05-12T11:34:04Z</time>
      </trkpt>
      <trkpt lat="48.57232" lon="2.04779">
        <ele>107</ele>
        <time>2019-05-12T11:34:11Z</time>
      </trkpt>
      <trkpt lat="48.57236" lon="2.04794">
        <ele>107</ele>
        <time>2019-05-12T11:34:18Z</time>
      </trkpt>
      <trkpt lat="48.57237" lon="2.04808">
        <ele>107</ele>
        <time>2019-05-12T11:34:25Z</time>
      </trkpt>
      <trkpt lat="48.57238" lon="2.04823">
        <ele>107</ele>
        <time>2019-05-12T11:34:33Z</time>
      </trkpt>
      <trkpt lat="48.57237" lon="2.04837">
        <ele>107</ele>
        <time>2019-05-12T11:34:41Z</time>
      </trkpt>
      <trkpt lat="48.57236" lon="2.04853">
        <ele>107</ele>
        <time>2019-05-12T11:34:49Z</time>
      </trkpt>
      <trkpt lat="48.57235" lon="2.04868">
        <ele>107</ele>
        <time>2019-05-12T11:34:57Z</time>
      </trkpt>
      <trkpt lat="48.57236" lon="2.04882">
        <ele>107</ele>
        <time>2019-05-12T11:35:04Z</time>
      </trkpt>
      <trkpt lat="48.57234" lon="2.04896">
        <ele>106</ele>
        <time>2019-05-12T11:35:11Z</time>
      </trkpt>
      <trkpt lat="48.57231" lon="2.0491">
        <ele>106</ele>
        <time>2019-05-12T11:35:18Z</time>
      </trkpt>
      <trkpt lat="48.57229" lon="2.04924">
        <ele>106</ele>
        <time>2019-05-12T11:35:25Z</time>
      </trkpt>
      <trkpt lat="48.57228" lon="2.0494">
        <ele>106</ele>
        <time>2019-05-12T11:35:33Z</time>
      </trkpt>
      <trkpt lat="48.5723" lon="2.04954">
        <ele>105</ele>
        <time>2019-05-12T11:35:41Z</time>
      </trkpt>
      <trkpt lat="48.57231" lon="2.04969">
        <ele>105</ele>
        <time>2019-05-12T11:35:49Z</time>
      </trkpt>
      <trkpt lat="48.57233" lon="2.04984">
        <ele>105</ele>
        <time>2019-05-12T11:35:57Z</time>
      </trkpt>
      <trkpt lat="48.57235" lon="2.04998">
        <ele>105</ele>
        <time>2019-05-12T11:36:04Z</time>
      </trkpt>
      <trkpt lat="48.57236" lon="2.05013">
        <ele>104</ele>
        <time>2019-05-12T11:36:12Z</time>
      </trkpt>
      <trkpt lat="48.57237" lon="2.05027">
        <ele>104</ele>
        <time>2019-05-12T11:36:20Z</time>
      </trkpt>
      <trkpt lat="48.57239" lon="2.0504">
        <ele>105</ele>
        <time>2019-05-12T11:36:27Z</time>
      </trkpt>
      <trkpt lat="48.5724" lon="2.05054">
        <ele>105</ele>
        <time>2019-05-12T11:36:35Z</time>
      </trkpt>
      <trkpt lat="48.57242" lon="2.05069">
        <ele>105</ele>
        <time>2019-05-12T11:36:44Z</time>
      </trkpt>
      <trkpt lat="48.57245" lon="2.05083">
        <ele>105</ele>
        <time>2019-05-12T11:36:52Z</time>
      </trkpt>
      <trkpt lat="48.57245" lon="2.05097">
        <ele>105</ele>
        <time>2019-05-12T11:36:59Z</time>
      </trkpt>
      <trkpt lat="48.5725" lon="2.05108">
        <ele>106</ele>
        <time>2019-05-12T11:37:08Z</time>
      </trkpt>
      <trkpt lat="48.57259" lon="2.05108">
        <ele>106</ele>
        <time>2019-05-12T11:37:38Z</time>
      </trkpt>
      <trkpt lat="48.5725" lon="2.05108">
        <ele>106</ele>
        <time>2019-05-12T11:38:07Z</time>
      </trkpt>
      <trkpt lat="48.5726" lon="2.05114">
        <ele>106</ele>
        <time>2019-05-12T11:38:33Z</time>
      </trkpt>
      <trkpt lat="48.57267" lon="2.05122">
        <ele>107</ele>
        <time>2019-05-12T11:38:40Z</time>
      </trkpt>
      <trkpt lat="48.57274" lon="2.05131">
        <ele>108</ele>
        <time>2019-05-12T11:38:48Z</time>
      </trkpt>
      <trkpt lat="48.57284" lon="2.05136">
        <ele>108</ele>
        <time>2019-05-12T11:38:56Z</time>
      </trkpt>
      <trkpt lat="48.57293" lon="2.05141">
        <ele>109</ele>
        <time>2019-05-12T11:39:02Z</time>
      </trkpt>
      <trkpt lat="48.57303" lon="2.05145">
        <ele>109</ele>
        <time>2019-05-12T11:39:09Z</time>
      </trkpt>
      <trkpt lat="48.57312" lon="2.0515">
        <ele>110</ele>
        <time>2019-05-12T11:39:17Z</time>
      </trkpt>
      <trkpt lat="48.57321" lon="2.05157">
        <ele>110</ele>
        <time>2019-05-12T11:39:25Z</time>
      </trkpt>
      <trkpt lat="48.5733" lon="2.05161">
        <ele>111</ele>
        <time>2019-05-12T11:39:32Z</time>
      </trkpt>
      <trkpt lat="48.57337" lon="2.05171">
        <ele>112</ele>
        <time>2019-05-12T11:39:41Z</time>
      </trkpt>
      <trkpt lat="48.57344" lon="2.05181">
        <ele>113</ele>
        <time>2019-05-12T11:39:50Z</time>
      </trkpt>
      <trkpt lat="48.57352" lon="2.05191">
        <ele>114</ele>
        <time>2019-05-12T11:39:59Z</time>
      </trkpt>
      <trkpt lat="48.5736" lon="2.05199">
        <ele>115</ele>
        <time>2019-05-12T11:40:07Z</time>
      </trkpt>
      <trkpt lat="48.57369" lon="2.05205">
        <ele>116</ele>
        <time>2019-05-12T11:40:14Z</time>
      </trkpt>
      <trkpt lat="48.57375" lon="2.05216">
        <ele>117</ele>
        <time>2019-05-12T11:40:23Z</time>
      </trkpt>
      <trkpt lat="48.57383" lon="2.05222">
        <ele>117</ele>
        <time>2019-05-12T11:40:30Z</time>
      </trkpt>
      <trkpt lat="48.57391" lon="2.05231">
        <ele>118</ele>
        <time>2019-05-12T11:40:40Z</time>
      </trkpt>
      <trkpt lat="48.57399" lon="2.05238">
        <ele>119</ele>
        <time>2019-05-12T11:40:48Z</time>
      </trkpt>
      <trkpt lat="48.57406" lon="2.05247">
        <ele>120</ele>
        <time>2019-05-12T11:40:57Z</time>
      </trkpt>
      <trkpt lat="48.57415" lon="2.05253">
        <ele>120</ele>
        <time>2019-05-12T11:41:07Z</time>
      </trkpt>
      <trkpt lat="48.57424" lon="2.05258">
        <ele>121</ele>
        <time>2019-05-12T11:41:14Z</time>
      </trkpt>
      <trkpt lat="48.57433" lon="2.05266">
        <ele>122</ele>
        <time>2019-05-12T11:41:23Z</time>
      </trkpt>
      <trkpt lat="48.57441" lon="2.05273">
        <ele>124</ele>
        <time>2019-05-12T11:41:32Z</time>
      </trkpt>
      <trkpt lat="48.57449" lon="2.05279">
        <ele>125</ele>
        <time>2019-05-12T11:41:52Z</time>
      </trkpt>
      <trkpt lat="48.57458" lon="2.05285">
        <ele>126</ele>
        <time>2019-05-12T11:42:08Z</time>
      </trkpt>
      <trkpt lat="48.57465" lon="2.05294">
        <ele>127</ele>
        <time>2019-05-12T11:42:16Z</time>
      </trkpt>
      <trkpt lat="48.57469" lon="2.05307">
        <ele>128</ele>
        <time>2019-05-12T11:42:28Z</time>
      </trkpt>
      <trkpt lat="48.57478" lon="2.05314">
        <ele>129</ele>
        <time>2019-05-12T11:42:37Z</time>
      </trkpt>
      <trkpt lat="48.57486" lon="2.05323">
        <ele>130</ele>
        <time>2019-05-12T11:42:46Z</time>
      </trkpt>
      <trkpt lat="48.57494" lon="2.05331">
        <ele>131</ele>
        <time>2019-05-12T11:42:59Z</time>
      </trkpt>
      <trkpt lat="48.57503" lon="2.05337">
        <ele>133</ele>
        <time>2019-05-12T11:43:09Z</time>
      </trkpt>
      <trkpt lat="48.5751" lon="2.05347">
        <ele>135</ele>
        <time>2019-05-12T11:43:19Z</time>
      </trkpt>
      <trkpt lat="48.57512" lon="2.0536">
        <ele>136</ele>
        <time>2019-05-12T11:43:38Z</time>
      </trkpt>
      <trkpt lat="48.57516" lon="2.05373">
        <ele>137</ele>
        <time>2019-05-12T11:43:51Z</time>
      </trkpt>
      <trkpt lat="48.57523" lon="2.05384">
        <ele>138</ele>
        <time>2019-05-12T11:44:00Z</time>
      </trkpt>
      <trkpt lat="48.57531" lon="2.0539">
        <ele>140</ele>
        <time>2019-05-12T11:44:10Z</time>
      </trkpt>
      <trkpt lat="48.57538" lon="2.054">
        <ele>141</ele>
        <time>2019-05-12T11:44:23Z</time>
      </trkpt>
      <trkpt lat="48.57547" lon="2.05405">
        <ele>141</ele>
        <time>2019-05-12T11:44:31Z</time>
      </trkpt>
      <trkpt lat="48.57556" lon="2.05408">
        <ele>142</ele>
        <time>2019-05-12T11:44:38Z</time>
      </trkpt>
      <trkpt lat="48.57566" lon="2.0541">
        <ele>143</ele>
        <time>2019-05-12T11:44:44Z</time>
      </trkpt>
      <trkpt lat="48.57575" lon="2.05415">
        <ele>144</ele>
        <time>2019-05-12T11:44:54Z</time>
      </trkpt>
      <trkpt lat="48.57584" lon="2.05417">
        <ele>144</ele>
        <time>2019-05-12T11:45:03Z</time>
      </trkpt>
      <trkpt lat="48.57593" lon="2.05423">
        <ele>144</ele>
        <time>2019-05-12T11:45:11Z</time>
      </trkpt>
      <trkpt lat="48.57602" lon="2.05425">
        <ele>144</ele>
        <time>2019-05-12T11:45:21Z</time>
      </trkpt>
      <trkpt lat="48.57611" lon="2.05429">
        <ele>144</ele>
        <time>2019-05-12T11:45:30Z</time>
      </trkpt>
      <trkpt lat="48.5762" lon="2.05433">
        <ele>144</ele>
        <time>2019-05-12T11:45:39Z</time>
      </trkpt>
      <trkpt lat="48.57628" lon="2.05439">
        <ele>144</ele>
        <time>2019-05-12T11:45:49Z</time>
      </trkpt>
      <trkpt lat="48.57638" lon="2.05443">
        <ele>144</ele>
        <time>2019-05-12T11:45:59Z</time>
      </trkpt>
      <trkpt lat="48.57648" lon="2.05447">
        <ele>144</ele>
        <time>2019-05-12T11:46:07Z</time>
      </trkpt>
      <trkpt lat="48.57654" lon="2.05457">
        <ele>143</ele>
        <time>2019-05-12T11:46:15Z</time>
      </trkpt>
      <trkpt lat="48.57658" lon="2.0547">
        <ele>143</ele>
        <time>2019-05-12T11:46:31Z</time>
      </trkpt>
      <trkpt lat="48.57651" lon="2.05478">
        <ele>142</ele>
        <time>2019-05-12T11:47:22Z</time>
      </trkpt>
      <trkpt lat="48.57641" lon="2.05477">
        <ele>142</ele>
        <time>2019-05-12T11:47:30Z</time>
      </trkpt>
      <trkpt lat="48.57631" lon="2.05479">
        <ele>142</ele>
        <time>2019-05-12T11:47:42Z</time>
      </trkpt>
      <trkpt lat="48.57621" lon="2.05478">
        <ele>142</ele>
        <time>2019-05-12T11:47:51Z</time>
      </trkpt>
      <trkpt lat="48.57611" lon="2.05481">
        <ele>142</ele>
        <time>2019-05-12T11:47:59Z</time>
      </trkpt>
      <trkpt lat="48.57602" lon="2.05485">
        <ele>142</ele>
        <time>2019-05-12T11:48:05Z</time>
      </trkpt>
      <trkpt lat="48.57594" lon="2.05493">
        <ele>141</ele>
        <time>2019-05-12T11:48:17Z</time>
      </trkpt>
      <trkpt lat="48.57588" lon="2.05505">
        <ele>141</ele>
        <time>2019-05-12T11:48:28Z</time>
      </trkpt>
      <trkpt lat="48.57584" lon="2.05519">
        <ele>141</ele>
        <time>2019-05-12T11:48:40Z</time>
      </trkpt>
      <trkpt lat="48.5758" lon="2.05533">
        <ele>141</ele>
        <time>2019-05-12T11:48:50Z</time>
      </trkpt>
      <trkpt lat="48.57579" lon="2.05547">
        <ele>140</ele>
        <time>2019-05-12T11:49:00Z</time>
      </trkpt>
      <trkpt lat="48.57574" lon="2.0556">
        <ele>140</ele>
        <time>2019-05-12T11:49:07Z</time>
      </trkpt>
      <trkpt lat="48.57571" lon="2.05572">
        <ele>140</ele>
        <time>2019-05-12T11:49:16Z</time>
      </trkpt>
      <trkpt lat="48.57566" lon="2.05586">
        <ele>140</ele>
        <time>2019-05-12T11:49:24Z</time>
      </trkpt>
      <trkpt lat="48.57562" lon="2.056">
        <ele>140</ele>
        <time>2019-05-12T11:49:32Z</time>
      </trkpt>
      <trkpt lat="48.57557" lon="2.05612">
        <ele>140</ele>
        <time>2019-05-12T11:49:46Z</time>
      </trkpt>
      <trkpt lat="48.57552" lon="2.05625">
        <ele>140</ele>
        <time>2019-05-12T11:49:56Z</time>
      </trkpt>
      <trkpt lat="48.57547" lon="2.05636">
        <ele>140</ele>
        <time>2019-05-12T11:50:03Z</time>
      </trkpt>
      <trkpt lat="48.57541" lon="2.05649">
        <ele>141</ele>
        <time>2019-05-12T11:50:10Z</time>
      </trkpt>
      <trkpt lat="48.57536" lon="2.05661">
        <ele>141</ele>
        <time>2019-05-12T11:50:18Z</time>
      </trkpt>
      <trkpt lat="48.5753" lon="2.05672">
        <ele>142</ele>
        <time>2019-05-12T11:50:25Z</time>
      </trkpt>
      <trkpt lat="48.57524" lon="2.05682">
        <ele>142</ele>
        <time>2019-05-12T11:50:34Z</time>
      </trkpt>
      <trkpt lat="48.57519" lon="2.05695">
        <ele>143</ele>
        <time>2019-05-12T11:50:43Z</time>
      </trkpt>
      <trkpt lat="48.57515" lon="2.05708">
        <ele>144</ele>
        <time>2019-05-12T11:50:51Z</time>
      </trkpt>
      <trkpt lat="48.57512" lon="2.05722">
        <ele>144</ele>
        <time>2019-05-12T11:50:59Z</time>
      </trkpt>
      <trkpt lat="48.57512" lon="2.05735">
        <ele>145</ele>
        <time>2019-05-12T11:51:07Z</time>
      </trkpt>
      <trkpt lat="48.5751" lon="2.0575">
        <ele>145</ele>
        <time>2019-05-12T11:51:17Z</time>
      </trkpt>
      <trkpt lat="48.5751" lon="2.05765">
        <ele>146</ele>
        <time>2019-05-12T11:51:27Z</time>
      </trkpt>
      <trkpt lat="48.57513" lon="2.05778">
        <ele>147</ele>
        <time>2019-05-12T11:51:35Z</time>
      </trkpt>
      <trkpt lat="48.5751" lon="2.05792">
        <ele>148</ele>
        <time>2019-05-12T11:51:43Z</time>
      </trkpt>
      <trkpt lat="48.57507" lon="2.05805">
        <ele>148</ele>
        <time>2019-05-12T11:51:50Z</time>
      </trkpt>
      <trkpt lat="48.57504" lon="2.05819">
        <ele>149</ele>
        <time>2019-05-12T11:51:57Z</time>
      </trkpt>
      <trkpt lat="48.57503" lon="2.05833">
        <ele>150</ele>
        <time>2019-05-12T11:52:05Z</time>
      </trkpt>
      <trkpt lat="48.57504" lon="2.05847">
        <ele>150</ele>
        <time>2019-05-12T11:52:15Z</time>
      </trkpt>
      <trkpt lat="48.57501" lon="2.0586">
        <ele>150</ele>
        <time>2019-05-12T11:52:22Z</time>
      </trkpt>
      <trkpt lat="48.57496" lon="2.05872">
        <ele>150</ele>
        <time>2019-05-12T11:52:30Z</time>
      </trkpt>
      <trkpt lat="48.57499" lon="2.05886">
        <ele>151</ele>
        <time>2019-05-12T11:52:38Z</time>
      </trkpt>
      <trkpt lat="48.57496" lon="2.05899">
        <ele>151</ele>
        <time>2019-05-12T11:52:46Z</time>
      </trkpt>
      <trkpt lat="48.57496" lon="2.05913">
        <ele>151</ele>
        <time>2019-05-12T11:52:54Z</time>
      </trkpt>
      <trkpt lat="48.57497" lon="2.05928">
        <ele>151</ele>
        <time>2019-05-12T11:53:01Z</time>
      </trkpt>
      <trkpt lat="48.57497" lon="2.05943">
        <ele>150</ele>
        <time>2019-05-12T11:53:09Z</time>
      </trkpt>
      <trkpt lat="48.57498" lon="2.05958">
        <ele>150</ele>
        <time>2019-05-12T11:53:17Z</time>
      </trkpt>
      <trkpt lat="48.57497" lon="2.05972">
        <ele>150</ele>
        <time>2019-05-12T11:53:26Z</time>
      </trkpt>
      <trkpt lat="48.57496" lon="2.05987">
        <ele>149</ele>
        <time>2019-05-12T11:53:35Z</time>
      </trkpt>
      <trkpt lat="48.57496" lon="2.06002">
        <ele>149</ele>
        <time>2019-05-12T11:53:45Z</time>
      </trkpt>
      <trkpt lat="48.57494" lon="2.06016">
        <ele>148</ele>
        <time>2019-05-12T11:53:54Z</time>
      </trkpt>
      <trkpt lat="48.57495" lon="2.06031">
        <ele>148</ele>
        <time>2019-05-12T11:54:03Z</time>
      </trkpt>
      <trkpt lat="48.57496" lon="2.06045">
        <ele>148</ele>
        <time>2019-05-12T11:54:15Z</time>
      </trkpt>
      <trkpt lat="48.57494" lon="2.06059">
        <ele>147</ele>
        <time>2019-05-12T11:54:27Z</time>
      </trkpt>
      <trkpt lat="48.57492" lon="2.06072">
        <ele>147</ele>
        <time>2019-05-12T11:54:35Z</time>
      </trkpt>
      <trkpt lat="48.5749" lon="2.06088">
        <ele>147</ele>
        <time>2019-05-12T11:54:45Z</time>
      </trkpt>
      <trkpt lat="48.57489" lon="2.06103">
        <ele>146</ele>
        <time>2019-05-12T11:54:54Z</time>
      </trkpt>
      <trkpt lat="48.57488" lon="2.06117">
        <ele>146</ele>
        <time>2019-05-12T11:55:03Z</time>
      </trkpt>
      <trkpt lat="48.57488" lon="2.06131">
        <ele>146</ele>
        <time>2019-05-12T11:55:11Z</time>
      </trkpt>
      <trkpt lat="48.57487" lon="2.06145">
        <ele>146</ele>
        <time>2019-05-12T11:55:19Z</time>
      </trkpt>
      <trkpt lat="48.57487" lon="2.06159">
        <ele>146</ele>
        <time>2019-05-12T11:55:29Z</time>
      </trkpt>
      <trkpt lat="48.57487" lon="2.06173">
        <ele>146</ele>
        <time>2019-05-12T11:55:38Z</time>
      </trkpt>
      <trkpt lat="48.57487" lon="2.06188">
        <ele>146</ele>
        <time>2019-05-12T11:55:48Z</time>
      </trkpt>
      <trkpt lat="48.57489" lon="2.06202">
        <ele>145</ele>
        <time>2019-05-12T11:55:56Z</time>
      </trkpt>
      <trkpt lat="48.57488" lon="2.06217">
        <ele>145</ele>
        <time>2019-05-12T11:56:06Z</time>
      </trkpt>
      <trkpt lat="48.57488" lon="2.06232">
        <ele>145</ele>
        <time>2019-05-12T11:56:16Z</time>
      </trkpt>
      <trkpt lat="48.57488" lon="2.06246">
        <ele>145</ele>
        <time>2019-05-12T11:56:24Z</time>
      </trkpt>
      <trkpt lat="48.5749" lon="2.06261">
        <ele>145</ele>
        <time>2019-05-12T11:56:33Z</time>
      </trkpt>
      <trkpt lat="48.57492" lon="2.06274">
        <ele>145</ele>
        <time>2019-05-12T11:56:42Z</time>
      </trkpt>
      <trkpt lat="48.57491" lon="2.06289">
        <ele>145</ele>
        <time>2019-05-12T11:56:51Z</time>
      </trkpt>
      <trkpt lat="48.57492" lon="2.06303">
        <ele>145</ele>
        <time>2019-05-12T11:57:00Z</time>
      </trkpt>
      <trkpt lat="48.57492" lon="2.06317">
        <ele>145</ele>
        <time>2019-05-12T11:57:08Z</time>
      </trkpt>
      <trkpt lat="48.5749" lon="2.06332">
        <ele>145</ele>
        <time>2019-05-12T11:57:16Z</time>
      </trkpt>
      <trkpt lat="48.57492" lon="2.06345">
        <ele>145</ele>
        <time>2019-05-12T11:57:25Z</time>
      </trkpt>
      <trkpt lat="48.5749" lon="2.0636">
        <ele>145</ele>
        <time>2019-05-12T11:57:34Z</time>
      </trkpt>
      <trkpt lat="48.5749" lon="2.06375">
        <ele>146</ele>
        <time>2019-05-12T11:58:47Z</time>
      </trkpt>
      <trkpt lat="48.57491" lon="2.06389">
        <ele>146</ele>
        <time>2019-05-12T11:58:59Z</time>
      </trkpt>
      <trkpt lat="48.57495" lon="2.06402">
        <ele>146</ele>
        <time>2019-05-12T11:59:14Z</time>
      </trkpt>
      <trkpt lat="48.57497" lon="2.06416">
        <ele>147</ele>
        <time>2019-05-12T11:59:25Z</time>
      </trkpt>
      <trkpt lat="48.575" lon="2.06429">
        <ele>147</ele>
        <time>2019-05-12T11:59:36Z</time>
      </trkpt>
      <trkpt lat="48.57504" lon="2.06443">
        <ele>147</ele>
        <time>2019-05-12T11:59:46Z</time>
      </trkpt>
      <trkpt lat="48.57507" lon="2.06456">
        <ele>147</ele>
        <time>2019-05-12T12:00:17Z</time>
      </trkpt>
      <trkpt lat="48.57511" lon="2.06469">
        <ele>147</ele>
        <time>2019-05-12T12:00:32Z</time>
      </trkpt>
      <trkpt lat="48.57516" lon="2.06481">
        <ele>148</ele>
        <time>2019-05-12T12:00:46Z</time>
      </trkpt>
      <trkpt lat="48.57517" lon="2.06496">
        <ele>148</ele>
        <time>2019-05-12T12:00:58Z</time>
      </trkpt>
      <trkpt lat="48.57522" lon="2.06509">
        <ele>148</ele>
        <time>2019-05-12T12:01:08Z</time>
      </trkpt>
      <trkpt lat="48.5753" lon="2.0652">
        <ele>148</ele>
        <time>2019-05-12T12:01:13Z</time>
      </trkpt>
      <trkpt lat="48.57537" lon="2.06531">
        <ele>148</ele>
        <time>2019-05-12T12:01:21Z</time>
      </trkpt>
      <trkpt lat="48.57542" lon="2.06542">
        <ele>148</ele>
        <time>2019-05-12T12:01:28Z</time>
      </trkpt>
      <trkpt lat="48.5755" lon="2.06551">
        <ele>148</ele>
        <time>2019-05-12T12:01:36Z</time>
      </trkpt>
      <trkpt lat="48.57556" lon="2.06561">
        <ele>148</ele>
        <time>2019-05-12T12:01:43Z</time>
      </trkpt>
      <trkpt lat="48.5756" lon="2.06575">
        <ele>148</ele>
        <time>2019-05-12T12:01:51Z</time>
      </trkpt>
      <trkpt lat="48.57558" lon="2.06589">
        <ele>148</ele>
        <time>2019-05-12T12:02:02Z</time>
      </trkpt>
      <trkpt lat="48.57559" lon="2.06604">
        <ele>147</ele>
        <time>2019-05-12T12:02:13Z</time>
      </trkpt>
      <trkpt lat="48.57562" lon="2.06618">
        <ele>146</ele>
        <time>2019-05-12T12:02:22Z</time>
      </trkpt>
      <trkpt lat="48.57566" lon="2.06631">
        <ele>146</ele>
        <time>2019-05-12T12:02:42Z</time>
      </trkpt>
      <trkpt lat="48.57574" lon="2.06641">
        <ele>146</ele>
        <time>2019-05-12T12:02:52Z</time>
      </trkpt>
      <trkpt lat="48.57581" lon="2.06654">
        <ele>146</ele>
        <time>2019-05-12T12:02:59Z</time>
      </trkpt>
      <trkpt lat="48.5758" lon="2.06669">
        <ele>145</ele>
        <time>2019-05-12T12:03:06Z</time>
      </trkpt>
      <trkpt lat="48.57576" lon="2.06682">
        <ele>144</ele>
        <time>2019-05-12T12:03:12Z</time>
      </trkpt>
      <trkpt lat="48.57569" lon="2.0669">
        <ele>143</ele>
        <time>2019-05-12T12:03:23Z</time>
      </trkpt>
      <trkpt lat="48.5756" lon="2.06694">
        <ele>143</ele>
        <time>2019-05-12T12:03:31Z</time>
      </trkpt>
      <trkpt lat="48.5755" lon="2.06692">
        <ele>143</ele>
        <time>2019-05-12T12:03:41Z</time>
      </trkpt>
      <trkpt lat="48.57541" lon="2.06701">
        <ele>142</ele>
        <time>2019-05-12T12:04:04Z</time>
      </trkpt>
      <trkpt lat="48.57545" lon="2.06714">
        <ele>142</ele>
        <time>2019-05-12T12:04:35Z</time>
      </trkpt>
      <trkpt lat="48.57551" lon="2.06725">
        <ele>141</ele>
        <time>2019-05-12T12:04:40Z</time>
      </trkpt>
      <trkpt lat="48.57553" lon="2.06738">
        <ele>140</ele>
        <time>2019-05-12T12:04:58Z</time>
      </trkpt>
      <trkpt lat="48.5755" lon="2.06752">
        <ele>140</ele>
        <time>2019-05-12T12:05:12Z</time>
      </trkpt>
      <trkpt lat="48.57546" lon="2.06765">
        <ele>139</ele>
        <time>2019-05-12T12:05:20Z</time>
      </trkpt>
      <trkpt lat="48.57542" lon="2.06779">
        <ele>138</ele>
        <time>2019-05-12T12:05:30Z</time>
      </trkpt>
      <trkpt lat="48.5754" lon="2.06793">
        <ele>137</ele>
        <time>2019-05-12T12:05:37Z</time>
      </trkpt>
      <trkpt lat="48.57536" lon="2.06807">
        <ele>136</ele>
        <time>2019-05-12T12:05:45Z</time>
      </trkpt>
      <trkpt lat="48.5754" lon="2.06821">
        <ele>136</ele>
        <time>2019-05-12T12:05:54Z</time>
      </trkpt>
      <trkpt lat="48.57547" lon="2.06831">
        <ele>135</ele>
        <time>2019-05-12T12:06:03Z</time>
      </trkpt>
      <trkpt lat="48.57555" lon="2.0684">
        <ele>135</ele>
        <time>2019-05-12T12:06:13Z</time>
      </trkpt>
      <trkpt lat="48.5756" lon="2.06851">
        <ele>135</ele>
        <time>2019-05-12T12:06:21Z</time>
      </trkpt>
      <trkpt lat="48.57567" lon="2.0686">
        <ele>136</ele>
        <time>2019-05-12T12:06:31Z</time>
      </trkpt>
      <trkpt lat="48.57577" lon="2.0687">
        <ele>136</ele>
        <time>2019-05-12T12:06:37Z</time>
      </trkpt>
      <trkpt lat="48.57578" lon="2.06884">
        <ele>137</ele>
        <time>2019-05-12T12:06:45Z</time>
      </trkpt>
      <trkpt lat="48.57587" lon="2.06886">
        <ele>137</ele>
        <time>2019-05-12T12:07:00Z</time>
      </trkpt>
      <trkpt lat="48.57593" lon="2.06875">
        <ele>136</ele>
        <time>2019-05-12T12:07:11Z</time>
      </trkpt>
      <trkpt lat="48.57596" lon="2.06861">
        <ele>136</ele>
        <time>2019-05-12T12:07:22Z</time>
      </trkpt>
      <trkpt lat="48.57598" lon="2.06846">
        <ele>135</ele>
        <time>2019-05-12T12:07:30Z</time>
      </trkpt>
      <trkpt lat="48.57605" lon="2.06835">
        <ele>134</ele>
        <time>2019-05-12T12:07:41Z</time>
      </trkpt>
      <trkpt lat="48.57614" lon="2.0683">
        <ele>133</ele>
        <time>2019-05-12T12:07:49Z</time>
      </trkpt>
      <trkpt lat="48.57622" lon="2.06824">
        <ele>132</ele>
        <time>2019-05-12T12:07:56Z</time>
      </trkpt>
      <trkpt lat="48.57631" lon="2.06819">
        <ele>131</ele>
        <time>2019-05-12T12:08:07Z</time>
      </trkpt>
      <trkpt lat="48.57642" lon="2.06813">
        <ele>129</ele>
        <time>2019-05-12T12:08:16Z</time>
      </trkpt>
      <trkpt lat="48.57651" lon="2.06809">
        <ele>128</ele>
        <time>2019-05-12T12:08:26Z</time>
      </trkpt>
      <trkpt lat="48.5766" lon="2.06804">
        <ele>126</ele>
        <time>2019-05-12T12:08:35Z</time>
      </trkpt>
      <trkpt lat="48.57669" lon="2.068">
        <ele>125</ele>
        <time>2019-05-12T12:08:42Z</time>
      </trkpt>
      <trkpt lat="48.57678" lon="2.06792">
        <ele>124</ele>
        <time>2019-05-12T12:08:51Z</time>
      </trkpt>
      <trkpt lat="48.57687" lon="2.06786">
        <ele>124</ele>
        <time>2019-05-12T12:09:00Z</time>
      </trkpt>
      <trkpt lat="48.57696" lon="2.06781">
        <ele>123</ele>
        <time>2019-05-12T12:09:09Z</time>
      </trkpt>
      <trkpt lat="48.57705" lon="2.06776">
        <ele>123</ele>
        <time>2019-05-12T12:09:19Z</time>
      </trkpt>
      <trkpt lat="48.57714" lon="2.06773">
        <ele>123</ele>
        <time>2019-05-12T12:09:28Z</time>
      </trkpt>
      <trkpt lat="48.57723" lon="2.06773">
        <ele>122</ele>
        <time>2019-05-12T12:09:35Z</time>
      </trkpt>
      <trkpt lat="48.57734" lon="2.06773">
        <ele>122</ele>
        <time>2019-05-12T12:09:46Z</time>
      </trkpt>
      <trkpt lat="48.57743" lon="2.06779">
        <ele>121</ele>
        <time>2019-05-12T12:09:53Z</time>
      </trkpt>
      <trkpt lat="48.57752" lon="2.06784">
        <ele>121</ele>
        <time>2019-05-12T12:10:01Z</time>
      </trkpt>
      <trkpt lat="48.57762" lon="2.06787">
        <ele>121</ele>
        <time>2019-05-12T12:13:16Z</time>
      </trkpt>
      <trkpt lat="48.57768" lon="2.06797">
        <ele>121</ele>
        <time>2019-05-12T12:13:24Z</time>
      </trkpt>
      <trkpt lat="48.57773" lon="2.06809">
        <ele>121</ele>
        <time>2019-05-12T12:13:37Z</time>
      </trkpt>
      <trkpt lat="48.57779" lon="2.0682">
        <ele>120</ele>
        <time>2019-05-12T12:13:49Z</time>
      </trkpt>
      <trkpt lat="48.57787" lon="2.06825">
        <ele>120</ele>
        <time>2019-05-12T12:14:00Z</time>
      </trkpt>
      <trkpt lat="48.57796" lon="2.06831">
        <ele>120</ele>
        <time>2019-05-12T12:14:11Z</time>
      </trkpt>
      <trkpt lat="48.57805" lon="2.06835">
        <ele>120</ele>
        <time>2019-05-12T12:14:18Z</time>
      </trkpt>
      <trkpt lat="48.57814" lon="2.06839">
        <ele>119</ele>
        <time>2019-05-12T12:14:28Z</time>
      </trkpt>
      <trkpt lat="48.57823" lon="2.06844">
        <ele>119</ele>
        <time>2019-05-12T12:14:35Z</time>
      </trkpt>
      <trkpt lat="48.57831" lon="2.06852">
        <ele>118</ele>
        <time>2019-05-12T12:14:46Z</time>
      </trkpt>
      <trkpt lat="48.57842" lon="2.06854">
        <ele>117</ele>
        <time>2019-05-12T12:15:00Z</time>
      </trkpt>
      <trkpt lat="48.57851" lon="2.06858">
        <ele>117</ele>
        <time>2019-05-12T12:15:10Z</time>
      </trkpt>
      <trkpt lat="48.57843" lon="2.06868">
        <ele>117</ele>
        <time>2019-05-12T12:15:17Z</time>
      </trkpt>
      <trkpt lat="48.57853" lon="2.06873">
        <ele>116</ele>
        <time>2019-05-12T12:15:27Z</time>
      </trkpt>
      <trkpt lat="48.57862" lon="2.06881">
        <ele>115</ele>
        <time>2019-05-12T12:15:37Z</time>
      </trkpt>
      <trkpt lat="48.57871" lon="2.06884">
        <ele>114</ele>
        <time>2019-05-12T12:15:43Z</time>
      </trkpt>
      <trkpt lat="48.5788" lon="2.06889">
        <ele>113</ele>
        <time>2019-05-12T12:15:50Z</time>
      </trkpt>
      <trkpt lat="48.57889" lon="2.06893">
        <ele>112</ele>
        <time>2019-05-12T12:15:55Z</time>
      </trkpt>
      <trkpt lat="48.57896" lon="2.06901">
        <ele>112</ele>
        <time>2019-05-12T12:16:04Z</time>
      </trkpt>
      <trkpt lat="48.57898" lon="2.06916">
        <ele>111</ele>
        <time>2019-05-12T12:16:17Z</time>
      </trkpt>
      <trkpt lat="48.57896" lon="2.06932">
        <ele>111</ele>
        <time>2019-05-12T12:16:27Z</time>
      </trkpt>
      <trkpt lat="48.5789" lon="2.06944">
        <ele>111</ele>
        <time>2019-05-12T12:16:35Z</time>
      </trkpt>
      <trkpt lat="48.57888" lon="2.06958">
        <ele>110</ele>
        <time>2019-05-12T12:16:45Z</time>
      </trkpt>
      <trkpt lat="48.57885" lon="2.06972">
        <ele>110</ele>
        <time>2019-05-12T12:16:54Z</time>
      </trkpt>
      <trkpt lat="48.57884" lon="2.06988">
        <ele>109</ele>
        <time>2019-05-12T12:17:05Z</time>
      </trkpt>
      <trkpt lat="48.5788" lon="2.07002">
        <ele>109</ele>
        <time>2019-05-12T12:17:14Z</time>
      </trkpt>
      <trkpt lat="48.57873" lon="2.07012">
        <ele>109</ele>
        <time>2019-05-12T12:17:19Z</time>
      </trkpt>
      <trkpt lat="48.5787" lon="2.07026">
        <ele>109</ele>
        <time>2019-05-12T12:17:27Z</time>
      </trkpt>
      <trkpt lat="48.57865" lon="2.0704">
        <ele>109</ele>
        <time>2019-05-12T12:17:34Z</time>
      </trkpt>
      <trkpt lat="48.5786" lon="2.07052">
        <ele>109</ele>
        <time>2019-05-12T12:17:42Z</time>
      </trkpt>
      <trkpt lat="48.57858" lon="2.07065">
        <ele>109</ele>
        <time>2019-05-12T12:17:49Z</time>
      </trkpt>
      <trkpt lat="48.57856" lon="2.0708">
        <ele>109</ele>
        <time>2019-05-12T12:17:58Z</time>
      </trkpt>
      <trkpt lat="48.57857" lon="2.07094">
        <ele>108</ele>
        <time>2019-05-12T12:18:08Z</time>
      </trkpt>
      <trkpt lat="48.57852" lon="2.07108">
        <ele>108</ele>
        <time>2019-05-12T12:18:16Z</time>
      </trkpt>
      <trkpt lat="48.57848" lon="2.0712">
        <ele>108</ele>
        <time>2019-05-12T12:18:23Z</time>
      </trkpt>
      <trkpt lat="48.57844" lon="2.07134">
        <ele>108</ele>
        <time>2019-05-12T12:18:31Z</time>
      </trkpt>
      <trkpt lat="48.57842" lon="2.07148">
        <ele>108</ele>
        <time>2019-05-12T12:18:39Z</time>
      </trkpt>
      <trkpt lat="48.57839" lon="2.07161">
        <ele>108</ele>
        <time>2019-05-12T12:18:48Z</time>
      </trkpt>
      <trkpt lat="48.57836" lon="2.07175">
        <ele>108</ele>
        <time>2019-05-12T12:18:56Z</time>
      </trkpt>
      <trkpt lat="48.57832" lon="2.0719">
        <ele>109</ele>
        <time>2019-05-12T12:19:04Z</time>
      </trkpt>
      <trkpt lat="48.57827" lon="2.07203">
        <ele>109</ele>
        <time>2019-05-12T12:19:11Z</time>
      </trkpt>
      <trkpt lat="48.57826" lon="2.07218">
        <ele>110</ele>
        <time>2019-05-12T12:19:20Z</time>
      </trkpt>
      <trkpt lat="48.57828" lon="2.07233">
        <ele>110</ele>
        <time>2019-05-12T12:19:29Z</time>
      </trkpt>
      <trkpt lat="48.57825" lon="2.07247">
        <ele>110</ele>
        <time>2019-05-12T12:19:38Z</time>
      </trkpt>
      <trkpt lat="48.57829" lon="2.07261">
        <ele>110</ele>
        <time>2019-05-12T12:19:46Z</time>
      </trkpt>
      <trkpt lat="48.57829" lon="2.07275">
        <ele>109</ele>
        <time>2019-05-12T12:19:54Z</time>
      </trkpt>
      <trkpt lat="48.57829" lon="2.0729">
        <ele>109</ele>
        <time>2019-05-12T12:20:03Z</time>
      </trkpt>
      <trkpt lat="48.57831" lon="2.07303">
        <ele>109</ele>
        <time>2019-05-12T12:20:12Z</time>
      </trkpt>
      <trkpt lat="48.57827" lon="2.07317">
        <ele>109</ele>
        <time>2019-05-12T12:20:21Z</time>
      </trkpt>
      <trkpt lat="48.57825" lon="2.07331">
        <ele>109</ele>
        <time>2019-05-12T12:20:28Z</time>
      </trkpt>
      <trkpt lat="48.57824" lon="2.07345">
        <ele>109</ele>
        <time>2019-05-12T12:20:42Z</time>
      </trkpt>
      <trkpt lat="48.57828" lon="2.07356">
        <ele>108</ele>
        <time>2019-05-12T12:21:18Z</time>
      </trkpt>
      <trkpt lat="48.57834" lon="2.0737">
        <ele>107</ele>
        <time>2019-05-12T12:21:41Z</time>
      </trkpt>
      <trkpt lat="48.5783" lon="2.07383">
        <ele>107</ele>
        <time>2019-05-12T12:21:50Z</time>
      </trkpt>
      <trkpt lat="48.57823" lon="2.07393">
        <ele>107</ele>
        <time>2019-05-12T12:21:59Z</time>
      </trkpt>
      <trkpt lat="48.57816" lon="2.07404">
        <ele>108</ele>
        <time>2019-05-12T12:22:07Z</time>
      </trkpt>
      <trkpt lat="48.57809" lon="2.07413">
        <ele>109</ele>
        <time>2019-05-12T12:22:12Z</time>
      </trkpt>
      <trkpt lat="48.57799" lon="2.07422">
        <ele>110</ele>
        <time>2019-05-12T12:22:17Z</time>
      </trkpt>
      <trkpt lat="48.57802" lon="2.07437">
        <ele>108</ele>
        <time>2019-05-12T12:22:26Z</time>
      </trkpt>
      <trkpt lat="48.57809" lon="2.07448">
        <ele>107</ele>
        <time>2019-05-12T12:22:32Z</time>
      </trkpt>
      <trkpt lat="48.57808" lon="2.07462">
        <ele>106</ele>
        <time>2019-05-12T12:22:40Z</time>
      </trkpt>
      <trkpt lat="48.57804" lon="2.07477">
        <ele>106</ele>
        <time>2019-05-12T12:22:48Z</time>
      </trkpt>
      <trkpt lat="48.57798" lon="2.07488">
        <ele>106</ele>
        <time>2019-05-12T12:22:55Z</time>
      </trkpt>
      <trkpt lat="48.57798" lon="2.07502">
        <ele>105</ele>
        <time>2019-05-12T12:23:04Z</time>
      </trkpt>
      <trkpt lat="48.57794" lon="2.07515">
        <ele>105</ele>
        <time>2019-05-12T12:23:10Z</time>
      </trkpt>
      <trkpt lat="48.57793" lon="2.07529">
        <ele>104</ele>
        <time>2019-05-12T12:23:17Z</time>
      </trkpt>
      <trkpt lat="48.57789" lon="2.07543">
        <ele>104</ele>
        <time>2019-05-12T12:23:23Z</time>
      </trkpt>
      <trkpt lat="48.57786" lon="2.07557">
        <ele>103</ele>
        <time>2019-05-12T12:23:30Z</time>
      </trkpt>
      <trkpt lat="48.57787" lon="2.07572">
        <ele>102</ele>
        <time>2019-05-12T12:23:36Z</time>
      </trkpt>
      <trkpt lat="48.57788" lon="2.07586">
        <ele>102</ele>
        <time>2019-05-12T12:23:44Z</time>
      </trkpt>
      <trkpt lat="48.57792" lon="2.07599">
        <ele>101</ele>
        <time>2019-05-12T12:23:51Z</time>
      </trkpt>
      <trkpt lat="48.57796" lon="2.07613">
        <ele>101</ele>
        <time>2019-05-12T12:24:00Z</time>
      </trkpt>
      <trkpt lat="48.57802" lon="2.07624">
        <ele>100</ele>
        <time>2019-05-12T12:24:07Z</time>
      </trkpt>
      <trkpt lat="48.57805" lon="2.07639">
        <ele>100</ele>
        <time>2019-05-12T12:24:15Z</time>
      </trkpt>
      <trkpt lat="48.57806" lon="2.07653">
        <ele>100</ele>
        <time>2019-05-12T12:24:24Z</time>
      </trkpt>
      <trkpt lat="48.57808" lon="2.07667">
        <ele>99</ele>
        <time>2019-05-12T12:24:33Z</time>
      </trkpt>
      <trkpt lat="48.57809" lon="2.07681">
        <ele>99</ele>
        <time>2019-05-12T12:24:40Z</time>
      </trkpt>
      <trkpt lat="48.57808" lon="2.07695">
        <ele>99</ele>
        <time>2019-05-12T12:24:49Z</time>
      </trkpt>
      <trkpt lat="48.57812" lon="2.07707">
        <ele>99</ele>
        <time>2019-05-12T12:24:58Z</time>
      </trkpt>
      <trkpt lat="48.57822" lon="2.07716">
        <ele>99</ele>
        <time>2019-05-12T12:25:16Z</time>
      </trkpt>
      <trkpt lat="48.57823" lon="2.07731">
        <ele>100</ele>
        <time>2019-05-12T12:25:27Z</time>
      </trkpt>
      <trkpt lat="48.57824" lon="2.07745">
        <ele>100</ele>
        <time>2019-05-12T12:25:36Z</time>
      </trkpt>
      <trkpt lat="48.57827" lon="2.07759">
        <ele>100</ele>
        <time>2019-05-12T12:25:45Z</time>
      </trkpt>
      <trkpt lat="48.57832" lon="2.07771">
        <ele>99</ele>
        <time>2019-05-12T12:25:53Z</time>
      </trkpt>
      <trkpt lat="48.57838" lon="2.07783">
        <ele>99</ele>
        <time>2019-05-12T12:26:01Z</time>
      </trkpt>
      <trkpt lat="48.57845" lon="2.07794">
        <ele>99</ele>
        <time>2019-05-12T12:26:09Z</time>
      </trkpt>
      <trkpt lat="48.5785" lon="2.07807">
        <ele>99</ele>
        <time>2019-05-12T12:26:18Z</time>
      </trkpt>
      <trkpt lat="48.57856" lon="2.07818">
        <ele>98</ele>
        <time>2019-05-12T12:26:43Z</time>
      </trkpt>
      <trkpt lat="48.57861" lon="2.0783">
        <ele>98</ele>
        <time>2019-05-12T12:26:51Z</time>
      </trkpt>
      <trkpt lat="48.57864" lon="2.07844">
        <ele>98</ele>
        <time>2019-05-12T12:27:01Z</time>
      </trkpt>
      <trkpt lat="48.5787" lon="2.07857">
        <ele>98</ele>
        <time>2019-05-12T12:27:11Z</time>
      </trkpt>
      <trkpt lat="48.57873" lon="2.07871">
        <ele>97</ele>
        <time>2019-05-12T12:27:19Z</time>
      </trkpt>
      <trkpt lat="48.57876" lon="2.07884">
        <ele>97</ele>
        <time>2019-05-12T12:27:26Z</time>
      </trkpt>
      <trkpt lat="48.57881" lon="2.07896">
        <ele>97</ele>
        <time>2019-05-12T12:27:33Z</time>
      </trkpt>
      <trkpt lat="48.57886" lon="2.0791">
        <ele>97</ele>
        <time>2019-05-12T12:27:41Z</time>
      </trkpt>
      <trkpt lat="48.57889" lon="2.07923">
        <ele>96</ele>
        <time>2019-05-12T12:27:48Z</time>
      </trkpt>
      <trkpt lat="48.57893" lon="2.07936">
        <ele>97</ele>
        <time>2019-05-12T12:27:55Z</time>
      </trkpt>
      <trkpt lat="48.57895" lon="2.0795">
        <ele>97</ele>
        <time>2019-05-12T12:28:10Z</time>
      </trkpt>
      <trkpt lat="48.57898" lon="2.07963">
        <ele>97</ele>
        <time>2019-05-12T12:28:18Z</time>
      </trkpt>
      <trkpt lat="48.579" lon="2.07977">
        <ele>97</ele>
        <time>2019-05-12T12:28:27Z</time>
      </trkpt>
      <trkpt lat="48.57902" lon="2.07993">
        <ele>98</ele>
        <time>2019-05-12T12:28:35Z</time>
      </trkpt>
      <trkpt lat="48.57907" lon="2.08005">
        <ele>98</ele>
        <time>2019-05-12T12:29:02Z</time>
      </trkpt>
      <trkpt lat="48.57905" lon="2.08018">
        <ele>98</ele>
        <time>2019-05-12T12:29:13Z</time>
      </trkpt>
      <trkpt lat="48.57908" lon="2.08032">
        <ele>99</ele>
        <time>2019-05-12T12:29:29Z</time>
      </trkpt>
      <trkpt lat="48.57905" lon="2.08047">
        <ele>100</ele>
        <time>2019-05-12T12:29:39Z</time>
      </trkpt>
      <trkpt lat="48.57907" lon="2.0806">
        <ele>100</ele>
        <time>2019-05-12T12:29:47Z</time>
      </trkpt>
      <trkpt lat="48.57906" lon="2.08075">
        <ele>101</ele>
        <time>2019-05-12T12:29:57Z</time>
      </trkpt>
      <trkpt lat="48.57905" lon="2.08089">
        <ele>101</ele>
        <time>2019-05-12T12:30:06Z</time>
      </trkpt>
      <trkpt lat="48.57906" lon="2.08103">
        <ele>102</ele>
        <time>2019-05-12T12:30:16Z</time>
      </trkpt>
      <trkpt lat="48.57902" lon="2.08116">
        <ele>102</ele>
        <time>2019-05-12T12:30:25Z</time>
      </trkpt>
      <trkpt lat="48.57901" lon="2.0813">
        <ele>103</ele>
        <time>2019-05-12T12:30:33Z</time>
      </trkpt>
      <trkpt lat="48.57904" lon="2.08144">
        <ele>103</ele>
        <time>2019-05-12T12:30:40Z</time>
      </trkpt>
      <trkpt lat="48.57904" lon="2.08158">
        <ele>104</ele>
        <time>2019-05-12T12:30:48Z</time>
      </trkpt>
      <trkpt lat="48.57906" lon="2.08172">
        <ele>104</ele>
        <time>2019-05-12T12:30:58Z</time>
      </trkpt>
      <trkpt lat="48.57903" lon="2.08187">
        <ele>104</ele>
        <time>2019-05-12T12:31:07Z</time>
      </trkpt>
      <trkpt lat="48.579" lon="2.082">
        <ele>104</ele>
        <time>2019-05-12T12:31:15Z</time>
      </trkpt>
      <trkpt lat="48.57901" lon="2.08215">
        <ele>105</ele>
        <time>2019-05-12T12:31:26Z</time>
      </trkpt>
      <trkpt lat="48.57897" lon="2.08229">
        <ele>105</ele>
        <time>2019-05-12T12:31:35Z</time>
      </trkpt>
      <trkpt lat="48.57894" lon="2.08241">
        <ele>105</ele>
        <time>2019-05-12T12:31:42Z</time>
      </trkpt>
      <trkpt lat="48.57893" lon="2.08256">
        <ele>105</ele>
        <time>2019-05-12T12:31:52Z</time>
      </trkpt>
      <trkpt lat="48.57894" lon="2.0827">
        <ele>105</ele>
        <time>2019-05-12T12:32:01Z</time>
      </trkpt>
      <trkpt lat="48.57893" lon="2.08284">
        <ele>105</ele>
        <time>2019-05-12T12:32:10Z</time>
      </trkpt>
      <trkpt lat="48.57891" lon="2.08298">
        <ele>104</ele>
        <time>2019-05-12T12:32:17Z</time>
      </trkpt>
      <trkpt lat="48.57891" lon="2.08312">
        <ele>104</ele>
        <time>2019-05-12T12:32:25Z</time>
      </trkpt>
      <trkpt lat="48.57891" lon="2.08326">
        <ele>104</ele>
        <time>2019-05-12T12:32:33Z</time>
      </trkpt>
      <trkpt lat="48.57887" lon="2.08339">
        <ele>104</ele>
        <time>2019-05-12T12:32:40Z</time>
      </trkpt>
      <trkpt lat="48.57882" lon="2.08351">
        <ele>103</ele>
        <time>2019-05-12T12:32:46Z</time>
      </trkpt>
      <trkpt lat="48.57882" lon="2.08365">
        <ele>103</ele>
        <time>2019-05-12T12:32:53Z</time>
      </trkpt>
      <trkpt lat="48.57879" lon="2.08379">
        <ele>102</ele>
        <time>2019-05-12T12:33:01Z</time>
      </trkpt>
      <trkpt lat="48.57877" lon="2.08393">
        <ele>102</ele>
        <time>2019-05-12T12:33:09Z</time>
      </trkpt>
      <trkpt lat="48.57876" lon="2.08406">
        <ele>102</ele>
        <time>2019-05-12T12:33:17Z</time>
      </trkpt>
      <trkpt lat="48.57873" lon="2.08421">
        <ele>101</ele>
        <time>2019-05-12T12:33:26Z</time>
      </trkpt>
      <trkpt lat="48.57872" lon="2.08435">
        <ele>101</ele>
        <time>2019-05-12T12:33:34Z</time>
      </trkpt>
      <trkpt lat="48.57872" lon="2.0845">
        <ele>101</ele>
        <time>2019-05-12T12:33:42Z</time>
      </trkpt>
      <trkpt lat="48.57873" lon="2.08464">
        <ele>101</ele>
        <time>2019-05-12T12:33:50Z</time>
      </trkpt>
      <trkpt lat="48.5787" lon="2.08478">
        <ele>101</ele>
        <time>2019-05-12T12:33:57Z</time>
      </trkpt>
      <trkpt lat="48.5787" lon="2.08493">
        <ele>101</ele>
        <time>2019-05-12T12:34:07Z</time>
      </trkpt>
      <trkpt lat="48.57868" lon="2.08507">
        <ele>101</ele>
        <time>2019-05-12T12:34:14Z</time>
      </trkpt>
      <trkpt lat="48.57867" lon="2.08522">
        <ele>101</ele>
        <time>2019-05-12T12:34:22Z</time>
      </trkpt>
      <trkpt lat="48.57864" lon="2.08535">
        <ele>101</ele>
        <time>2019-05-12T12:34:30Z</time>
      </trkpt>
      <trkpt lat="48.57861" lon="2.08549">
        <ele>101</ele>
        <time>2019-05-12T12:34:38Z</time>
      </trkpt>
      <trkpt lat="48.57862" lon="2.08565">
        <ele>101</ele>
        <time>2019-05-12T12:34:47Z</time>
      </trkpt>
      <trkpt lat="48.5786" lon="2.08578">
        <ele>101</ele>
        <time>2019-05-12T12:34:55Z</time>
      </trkpt>
      <trkpt lat="48.57862" lon="2.08593">
        <ele>101</ele>
        <time>2019-05-12T12:35:04Z</time>
      </trkpt>
      <trkpt lat="48.57865" lon="2.08606">
        <ele>101</ele>
        <time>2019-05-12T12:35:14Z</time>
      </trkpt>
      <trkpt lat="48.57863" lon="2.08621">
        <ele>101</ele>
        <time>2019-05-12T12:35:24Z</time>
      </trkpt>
      <trkpt lat="48.57862" lon="2.08635">
        <ele>100</ele>
        <time>2019-05-12T12:35:33Z</time>
      </trkpt>
      <trkpt lat="48.57863" lon="2.08651">
        <ele>100</ele>
        <time>2019-05-12T12:35:42Z</time>
      </trkpt>
      <trkpt lat="48.57863" lon="2.08665">
        <ele>99</ele>
        <time>2019-05-12T12:35:51Z</time>
      </trkpt>
      <trkpt lat="48.57868" lon="2.08676">
        <ele>99</ele>
        <time>2019-05-12T12:36:13Z</time>
      </trkpt>
      <trkpt lat="48.57866" lon="2.0869">
        <ele>99</ele>
        <time>2019-05-12T12:36:29Z</time>
      </trkpt>
      <trkpt lat="48.57865" lon="2.08703">
        <ele>99</ele>
        <time>2019-05-12T12:36:38Z</time>
      </trkpt>
      <trkpt lat="48.57865" lon="2.08717">
        <ele>98</ele>
        <time>2019-05-12T12:36:46Z</time>
      </trkpt>
      <trkpt lat="48.57865" lon="2.08732">
        <ele>98</ele>
        <time>2019-05-12T12:36:55Z</time>
      </trkpt>
      <trkpt lat="48.5786" lon="2.08745">
        <ele>98</ele>
        <time>2019-05-12T12:37:04Z</time>
      </trkpt>
      <trkpt lat="48.5786" lon="2.0876">
        <ele>98</ele>
        <time>2019-05-12T12:37:13Z</time>
      </trkpt>
      <trkpt lat="48.5786" lon="2.08775">
        <ele>98</ele>
        <time>2019-05-12T12:37:21Z</time>
      </trkpt>
      <trkpt lat="48.57858" lon="2.08789">
        <ele>98</ele>
        <time>2019-05-12T12:37:29Z</time>
      </trkpt>
      <trkpt lat="48.57856" lon="2.08803">
        <ele>98</ele>
        <time>2019-05-12T12:37:36Z</time>
      </trkpt>
      <trkpt lat="48.57855" lon="2.08817">
        <ele>98</ele>
        <time>2019-05-12T12:37:44Z</time>
      </trkpt>
      <trkpt lat="48.57853" lon="2.08831">
        <ele>98</ele>
        <time>2019-05-12T12:37:52Z</time>
      </trkpt>
      <trkpt lat="48.57852" lon="2.08845">
        <ele>98</ele>
        <time>2019-05-12T12:37:59Z</time>
      </trkpt>
      <trkpt lat="48.5785" lon="2.08858">
        <ele>98</ele>
        <time>2019-05-12T12:38:06Z</time>
      </trkpt>
      <trkpt lat="48.57854" lon="2.08872">
        <ele>97</ele>
        <time>2019-05-12T12:38:14Z</time>
      </trkpt>
      <trkpt lat="48.5785" lon="2.08885">
        <ele>97</ele>
        <time>2019-05-12T12:38:25Z</time>
      </trkpt>
      <trkpt lat="48.57852" lon="2.08898">
        <ele>97</ele>
        <time>2019-05-12T12:38:33Z</time>
      </trkpt>
      <trkpt lat="48.57852" lon="2.08912">
        <ele>97</ele>
        <time>2019-05-12T12:38:40Z</time>
      </trkpt>
      <trkpt lat="48.57854" lon="2.08928">
        <ele>96</ele>
        <time>2019-05-12T12:38:47Z</time>
      </trkpt>
      <trkpt lat="48.57857" lon="2.08942">
        <ele>95</ele>
        <time>2019-05-12T12:38:53Z</time>
      </trkpt>
      <trkpt lat="48.57861" lon="2.08955">
        <ele>95</ele>
        <time>2019-05-12T12:39:02Z</time>
      </trkpt>
      <trkpt lat="48.57863" lon="2.08969">
        <ele>94</ele>
        <time>2019-05-12T12:39:09Z</time>
      </trkpt>
      <trkpt lat="48.57865" lon="2.08982">
        <ele>93</ele>
        <time>2019-05-12T12:40:05Z</time>
      </trkpt>
      <trkpt lat="48.57869" lon="2.08995">
        <ele>92</ele>
        <time>2019-05-12T12:40:22Z</time>
      </trkpt>
      <trkpt lat="48.57868" lon="2.09009">
        <ele>92</ele>
        <time>2019-05-12T12:40:46Z</time>
      </trkpt>
      <trkpt lat="48.57868" lon="2.09023">
        <ele>92</ele>
        <time>2019-05-12T12:41:00Z</time>
      </trkpt>
      <trkpt lat="48.5787" lon="2.09037">
        <ele>91</ele>
        <time>2019-05-12T12:41:16Z</time>
      </trkpt>
      <trkpt lat="48.57869" lon="2.09053">
        <ele>91</ele>
        <time>2019-05-12T12:41:30Z</time>
      </trkpt>
      <trkpt lat="48.57868" lon="2.09067">
        <ele>91</ele>
        <time>2019-05-12T12:41:40Z</time>
      </trkpt>
      <trkpt lat="48.57867" lon="2.09081">
        <ele>90</ele>
        <time>2019-05-12T12:41:51Z</time>
      </trkpt>
      <trkpt lat="48.57871" lon="2.09095">
        <ele>90</ele>
        <time>2019-05-12T12:42:07Z</time>
      </trkpt>
      <trkpt lat="48.57872" lon="2.0911">
        <ele>90</ele>
        <time>2019-05-12T12:42:19Z</time>
      </trkpt>
      <trkpt lat="48.57869" lon="2.09124">
        <ele>90</ele>
        <time>2019-05-12T12:42:31Z</time>
      </trkpt>
      <trkpt lat="48.57871" lon="2.09138">
        <ele>89</ele>
        <time>2019-05-12T12:42:41Z</time>
      </trkpt>
      <trkpt lat="48.5787" lon="2.09153">
        <ele>89</ele>
        <time>2019-05-12T12:42:51Z</time>
      </trkpt>
      <trkpt lat="48.57871" lon="2.09168">
        <ele>89</ele>
        <time>2019-05-12T12:43:00Z</time>
      </trkpt>
      <trkpt lat="48.57873" lon="2.09183">
        <ele>88</ele>
        <time>2019-05-12T12:43:10Z</time>
      </trkpt>
      <trkpt lat="48.57872" lon="2.09197">
        <ele>87</ele>
        <time>2019-05-12T12:43:18Z</time>
      </trkpt>
      <trkpt lat="48.5787" lon="2.09211">
        <ele>87</ele>
        <time>2019-05-12T12:43:27Z</time>
      </trkpt>
      <trkpt lat="48.57872" lon="2.09224">
        <ele>86</ele>
        <time>2019-05-12T12:43:35Z</time>
      </trkpt>
      <trkpt lat="48.57874" lon="2.09239">
        <ele>85</ele>
        <time>2019-05-12T12:43:44Z</time>
      </trkpt>
      <trkpt lat="48.57876" lon="2.09253">
        <ele>84</ele>
        <time>2019-05-12T12:43:52Z</time>
      </trkpt>
      <trkpt lat="48.57878" lon="2.09267">
        <ele>84</ele>
        <time>2019-05-12T12:44:01Z</time>
      </trkpt>
      <trkpt lat="48.57886" lon="2.09275">
        <ele>83</ele>
        <time>2019-05-12T12:44:10Z</time>
      </trkpt>
      <trkpt lat="48.57877" lon="2.09272">
        <ele>83</ele>
        <time>2019-05-12T12:49:28Z</time>
      </trkpt>
      <trkpt lat="48.57868" lon="2.09269">
        <ele>84</ele>
        <time>2019-05-12T12:49:38Z</time>
      </trkpt>
      <trkpt lat="48.57859" lon="2.09266">
        <ele>84</ele>
        <time>2019-05-12T12:49:48Z</time>
      </trkpt>
      <trkpt lat="48.5785" lon="2.09265">
        <ele>84</ele>
        <time>2019-05-12T12:49:56Z</time>
      </trkpt>
      <trkpt lat="48.57841" lon="2.09264">
        <ele>85</ele>
        <time>2019-05-12T12:50:05Z</time>
      </trkpt>
      <trkpt lat="48.57831" lon="2.09261">
        <ele>85</ele>
        <time>2019-05-12T12:50:15Z</time>
      </trkpt>
      <trkpt lat="48.57822" lon="2.09259">
        <ele>85</ele>
        <time>2019-05-12T12:50:23Z</time>
      </trkpt>
      <trkpt lat="48.57813" lon="2.09256">
        <ele>86</ele>
        <time>2019-05-12T12:50:31Z</time>
      </trkpt>
      <trkpt lat="48.57804" lon="2.09253">
        <ele>86</ele>
        <time>2019-05-12T12:50:40Z</time>
      </trkpt>
      <trkpt lat="48.57794" lon="2.09252">
        <ele>86</ele>
        <time>2019-05-12T12:50:49Z</time>
      </trkpt>
      <trkpt lat="48.57785" lon="2.09251">
        <ele>86</ele>
        <time>2019-05-12T12:50:59Z</time>
      </trkpt>
      <trkpt lat="48.57776" lon="2.0925">
        <ele>86</ele>
        <time>2019-05-12T12:51:06Z</time>
      </trkpt>
      <trkpt lat="48.57766" lon="2.09253">
        <ele>86</ele>
        <time>2019-05-12T12:51:14Z</time>
      </trkpt>
      <trkpt lat="48.57757" lon="2.09254">
        <ele>86</ele>
        <time>2019-05-12T12:51:21Z</time>
      </trkpt>
      <trkpt lat="48.57747" lon="2.09255">
        <ele>85</ele>
        <time>2019-05-12T12:51:29Z</time>
      </trkpt>
      <trkpt lat="48.57737" lon="2.09256">
        <ele>85</ele>
        <time>2019-05-12T12:51:35Z</time>
      </trkpt>
      <trkpt lat="48.57728" lon="2.09256">
        <ele>85</ele>
        <time>2019-05-12T12:51:44Z</time>
      </trkpt>
      <trkpt lat="48.57719" lon="2.09256">
        <ele>85</ele>
        <time>2019-05-12T12:51:53Z</time>
      </trkpt>
      <trkpt lat="48.5771" lon="2.09256">
        <ele>84</ele>
        <time>2019-05-12T12:52:01Z</time>
      </trkpt>
      <trkpt lat="48.577" lon="2.09257">
        <ele>84</ele>
        <time>2019-05-12T12:52:08Z</time>
      </trkpt>
      <trkpt lat="48.5769" lon="2.09259">
        <ele>84</ele>
        <time>2019-05-12T12:52:15Z</time>
      </trkpt>
      <trkpt lat="48.57681" lon="2.09259">
        <ele>83</ele>
        <time>2019-05-12T12:52:23Z</time>
      </trkpt>
      <trkpt lat="48.57672" lon="2.09261">
        <ele>83</ele>
        <time>2019-05-12T12:52:31Z</time>
      </trkpt>
      <trkpt lat="48.57662" lon="2.09264">
        <ele>82</ele>
        <time>2019-05-12T12:52:40Z</time>
      </trkpt>
      <trkpt lat="48.57653" lon="2.09268">
        <ele>81</ele>
        <time>2019-05-12T12:52:48Z</time>
      </trkpt>
      <trkpt lat="48.57644" lon="2.09272">
        <ele>80</ele>
        <time>2019-05-12T12:52:55Z</time>
      </trkpt>
      <trkpt lat="48.57635" lon="2.09278">
        <ele>79</ele>
        <time>2019-05-12T12:53:03Z</time>
      </trkpt>
      <trkpt lat="48.57626" lon="2.09284">
        <ele>78</ele>
        <time>2019-05-12T12:53:10Z</time>
      </trkpt>
      <trkpt lat="48.57617" lon="2.09289">
        <ele>77</ele>
        <time>2019-05-12T12:53:18Z</time>
      </trkpt>
      <trkpt lat="48.57608" lon="2.09295">
        <ele>76</ele>
        <time>2019-05-12T12:53:24Z</time>
      </trkpt>
      <trkpt lat="48.57598" lon="2.09301">
        <ele>75</ele>
        <time>2019-05-12T12:53:31Z</time>
      </trkpt>
      <trkpt lat="48.57589" lon="2.09306">
        <ele>74</ele>
        <time>2019-05-12T12:53:38Z</time>
      </trkpt>
      <trkpt lat="48.57581" lon="2.09311">
        <ele>73</ele>
        <time>2019-05-12T12:53:50Z</time>
      </trkpt>
      <trkpt lat="48.57572" lon="2.09317">
        <ele>72</ele>
        <time>2019-05-12T12:53:58Z</time>
      </trkpt>
      <trkpt lat="48.57562" lon="2.09322">
        <ele>71</ele>
        <time>2019-05-12T12:54:06Z</time>
      </trkpt>
      <trkpt lat="48.57553" lon="2.09324">
        <ele>71</ele>
        <time>2019-05-12T12:54:59Z</time>
      </trkpt>
      <trkpt lat="48.57544" lon="2.09329">
        <ele>70</ele>
        <time>2019-05-12T12:55:08Z</time>
      </trkpt>
      <trkpt lat="48.57535" lon="2.09335">
        <ele>70</ele>
        <time>2019-05-12T12:55:17Z</time>
      </trkpt>
      <trkpt lat="48.57527" lon="2.09342">
        <ele>69</ele>
        <time>2019-05-12T12:55:26Z</time>
      </trkpt>
      <trkpt lat="48.57518" lon="2.09348">
        <ele>69</ele>
        <time>2019-05-12T12:55:35Z</time>
      </trkpt>
      <trkpt lat="48.5751" lon="2.09354">
        <ele>69</ele>
        <time>2019-05-12T12:55:42Z</time>
      </trkpt>
      <trkpt lat="48.57501" lon="2.09358">
        <ele>68</ele>
        <time>2019-05-12T12:55:51Z</time>
      </trkpt>
      <trkpt lat="48.57492" lon="2.09364">
        <ele>68</ele>
        <time>2019-05-12T12:55:59Z</time>
      </trkpt>
      <trkpt lat="48.57483" lon="2.09368">
        <ele>68</ele>
        <time>2019-05-12T12:56:06Z</time>
      </trkpt>
      <trkpt lat="48.57474" lon="2.0937">
        <ele>68</ele>
        <time>2019-05-12T12:56:17Z</time>
      </trkpt>
      <trkpt lat="48.57465" lon="2.09374">
        <ele>68</ele>
        <time>2019-05-12T12:56:27Z</time>
      </trkpt>
      <trkpt lat="48.57457" lon="2.09382">
        <ele>68</ele>
        <time>2019-05-12T12:57:04Z</time>
      </trkpt>
      <trkpt lat="48.57448" lon="2.09378">
        <ele>69</ele>
        <time>2019-05-12T12:57:12Z</time>
      </trkpt>
      <trkpt lat="48.57439" lon="2.09371">
        <ele>69</ele>
        <time>2019-05-12T12:57:24Z</time>
      </trkpt>
      <trkpt lat="48.57431" lon="2.09365">
        <ele>69</ele>
        <time>2019-05-12T12:57:36Z</time>
      </trkpt>
      <trkpt lat="48.57422" lon="2.09361">
        <ele>69</ele>
        <time>2019-05-12T12:57:46Z</time>
      </trkpt>
      <trkpt lat="48.57415" lon="2.09352">
        <ele>69</ele>
        <time>2019-05-12T12:58:35Z</time>
      </trkpt>
      <trkpt lat="48.57407" lon="2.09344">
        <ele>69</ele>
        <time>2019-05-12T13:01:22Z</time>
      </trkpt>
      <trkpt lat="48.574" lon="2.09337">
        <ele>70</ele>
        <time>2019-05-12T13:01:30Z</time>
      </trkpt>
      <trkpt lat="48.57392" lon="2.09328">
        <ele>70</ele>
        <time>2019-05-12T13:01:39Z</time>
      </trkpt>
      <trkpt lat="48.57383" lon="2.0932">
        <ele>70</ele>
        <time>2019-05-12T13:01:49Z</time>
      </trkpt>
      <trkpt lat="48.57375" lon="2.09316">
        <ele>71</ele>
        <time>2019-05-12T13:01:58Z</time>
      </trkpt>
      <trkpt lat="48.57366" lon="2.09309">
        <ele>71</ele>
        <time>2019-05-12T13:02:06Z</time>
      </trkpt>
      <trkpt lat="48.57356" lon="2.09305">
        <ele>72</ele>
        <time>2019-05-12T13:02:14Z</time>
      </trkpt>
      <trkpt lat="48.57348" lon="2.09301">
        <ele>72</ele>
        <time>2019-05-12T13:02:22Z</time>
      </trkpt>
      <trkpt lat="48.57339" lon="2.09295">
        <ele>72</ele>
        <time>2019-05-12T13:02:31Z</time>
      </trkpt>
      <trkpt lat="48.57329" lon="2.09291">
        <ele>73</ele>
        <time>2019-05-12T13:02:40Z</time>
      </trkpt>
      <trkpt lat="48.5732" lon="2.09285">
        <ele>73</ele>
        <time>2019-05-12T13:02:48Z</time>
      </trkpt>
      <trkpt lat="48.57311" lon="2.09284">
        <ele>73</ele>
        <time>2019-05-12T13:03:14Z</time>
      </trkpt>
      <trkpt lat="48.57302" lon="2.09279">
        <ele>73</ele>
        <time>2019-05-12T13:03:28Z</time>
      </trkpt>
      <trkpt lat="48.57294" lon="2.09273">
        <ele>73</ele>
        <time>2019-05-12T13:03:37Z</time>
      </trkpt>
      <trkpt lat="48.57285" lon="2.09269">
        <ele>73</ele>
        <time>2019-05-12T13:03:45Z</time>
      </trkpt>
      <trkpt lat="48.57277" lon="2.0926">
        <ele>73</ele>
        <time>2019-05-12T13:03:55Z</time>
      </trkpt>
      <trkpt lat="48.57269" lon="2.09254">
        <ele>73</ele>
        <time>2019-05-12T13:04:02Z</time>
      </trkpt>
      <trkpt lat="48.5726" lon="2.09247">
        <ele>73</ele>
        <time>2019-05-12T13:04:10Z</time>
      </trkpt>
      <trkpt lat="48.57252" lon="2.0924">
        <ele>73</ele>
        <time>2019-05-12T13:04:16Z</time>
      </trkpt>
      <trkpt lat="48.57244" lon="2.09232">
        <ele>72</ele>
        <time>2019-05-12T13:04:23Z</time>
      </trkpt>
      <trkpt lat="48.57237" lon="2.09223">
        <ele>72</ele>
        <time>2019-05-12T13:04:30Z</time>
      </trkpt>
      <trkpt lat="48.57229" lon="2.09214">
        <ele>71</ele>
        <time>2019-05-12T13:04:36Z</time>
      </trkpt>
      <trkpt lat="48.57222" lon="2.09204">
        <ele>71</ele>
        <time>2019-05-12T13:04:43Z</time>
      </trkpt>
      <trkpt lat="48.57213" lon="2.09201">
        <ele>71</ele>
        <time>2019-05-12T13:04:50Z</time>
      </trkpt>
      <trkpt lat="48.57205" lon="2.09208">
        <ele>71</ele>
        <time>2019-05-12T13:04:58Z</time>
      </trkpt>
      <trkpt lat="48.57201" lon="2.09222">
        <ele>71</ele>
        <time>2019-05-12T13:05:07Z</time>
      </trkpt>
      <trkpt lat="48.57202" lon="2.09236">
        <ele>71</ele>
        <time>2019-05-12T13:05:16Z</time>
      </trkpt>
      <trkpt lat="48.57201" lon="2.0925">
        <ele>72</ele>
        <time>2019-05-12T13:05:25Z</time>
      </trkpt>
      <trkpt lat="48.572" lon="2.09264">
        <ele>72</ele>
        <time>2019-05-12T13:05:33Z</time>
      </trkpt>
      <trkpt lat="48.57197" lon="2.09277">
        <ele>73</ele>
        <time>2019-05-12T13:05:41Z</time>
      </trkpt>
      <trkpt lat="48.57192" lon="2.0929">
        <ele>73</ele>
        <time>2019-05-12T13:05:48Z</time>
      </trkpt>
      <trkpt lat="48.57188" lon="2.09302">
        <ele>74</ele>
        <time>2019-05-12T13:05:55Z</time>
      </trkpt>
      <trkpt lat="48.57178" lon="2.09302">
        <ele>74</ele>
        <time>2019-05-12T13:06:25Z</time>
      </trkpt>
      <trkpt lat="48.57169" lon="2.09303">
        <ele>74</ele>
        <time>2019-05-12T13:07:10Z</time>
      </trkpt>
      <trkpt lat="48.57159" lon="2.09303">
        <ele>74</ele>
        <time>2019-05-12T13:07:24Z</time>
      </trkpt>
      <trkpt lat="48.57151" lon="2.093">
        <ele>74</ele>
        <time>2019-05-12T13:07:34Z</time>
      </trkpt>
      <trkpt lat="48.57142" lon="2.093">
        <ele>74</ele>
        <time>2019-05-12T13:07:43Z</time>
      </trkpt>
      <trkpt lat="48.57132" lon="2.09299">
        <ele>75</ele>
        <time>2019-05-12T13:07:53Z</time>
      </trkpt>
      <trkpt lat="48.57122" lon="2.093">
        <ele>75</ele>
        <time>2019-05-12T13:08:03Z</time>
      </trkpt>
      <trkpt lat="48.57113" lon="2.09299">
        <ele>76</ele>
        <time>2019-05-12T13:08:12Z</time>
      </trkpt>
      <trkpt lat="48.57104" lon="2.09299">
        <ele>76</ele>
        <time>2019-05-12T13:08:21Z</time>
      </trkpt>
      <trkpt lat="48.57094" lon="2.09299">
        <ele>76</ele>
        <time>2019-05-12T13:08:30Z</time>
      </trkpt>
      <trkpt lat="48.57085" lon="2.093">
        <ele>77</ele>
        <time>2019-05-12T13:08:39Z</time>
      </trkpt>
      <trkpt lat="48.57076" lon="2.093">
        <ele>78</ele>
        <time>2019-05-12T13:08:48Z</time>
      </trkpt>
      <trkpt lat="48.57067" lon="2.093">
        <ele>79</ele>
        <time>2019-05-12T13:08:59Z</time>
      </trkpt>
      <trkpt lat="48.57058" lon="2.09301">
        <ele>80</ele>
        <time>2019-05-12T13:09:12Z</time>
      </trkpt>
      <trkpt lat="48.57048" lon="2.09301">
        <ele>81</ele>
        <time>2019-05-12T13:09:24Z</time>
      </trkpt>
      <trkpt lat="48.57039" lon="2.09298">
        <ele>82</ele>
        <time>2019-05-12T13:09:32Z</time>
      </trkpt>
      <trkpt lat="48.5703" lon="2.09299">
        <ele>84</ele>
        <time>2019-05-12T13:09:43Z</time>
      </trkpt>
      <trkpt lat="48.57021" lon="2.09298">
        <ele>85</ele>
        <time>2019-05-12T13:09:53Z</time>
      </trkpt>
      <trkpt lat="48.57012" lon="2.09297">
        <ele>86</ele>
        <time>2019-05-12T13:10:02Z</time>
      </trkpt>
      <trkpt lat="48.57002" lon="2.09297">
        <ele>87</ele>
        <time>2019-05-12T13:10:11Z</time>
      </trkpt>
      <trkpt lat="48.56992" lon="2.09298">
        <ele>89</ele>
        <time>2019-05-12T13:10:21Z</time>
      </trkpt>
      <trkpt lat="48.56983" lon="2.09301">
        <ele>90</ele>
        <time>2019-05-12T13:10:31Z</time>
      </trkpt>
      <trkpt lat="48.56974" lon="2.09298">
        <ele>91</ele>
        <time>2019-05-12T13:10:41Z</time>
      </trkpt>
      <trkpt lat="48.56965" lon="2.09299">
        <ele>92</ele>
        <time>2019-05-12T13:10:51Z</time>
      </trkpt>
      <trkpt lat="48.56955" lon="2.09301">
        <ele>93</ele>
        <time>2019-05-12T13:11:03Z</time>
      </trkpt>
      <trkpt lat="48.56946" lon="2.09301">
        <ele>94</ele>
        <time>2019-05-12T13:11:13Z</time>
      </trkpt>
      <trkpt lat="48.56937" lon="2.09302">
        <ele>95</ele>
        <time>2019-05-12T13:11:22Z</time>
      </trkpt>
      <trkpt lat="48.56927" lon="2.09302">
        <ele>96</ele>
        <time>2019-05-12T13:11:31Z</time>
      </trkpt>
      <trkpt lat="48.56918" lon="2.09302">
        <ele>98</ele>
        <time>2019-05-12T13:11:40Z</time>
      </trkpt>
      <trkpt lat="48.56908" lon="2.09303">
        <ele>98</ele>
        <time>2019-05-12T13:11:50Z</time>
      </trkpt>
      <trkpt lat="48.56899" lon="2.09304">
        <ele>99</ele>
        <time>2019-05-12T13:11:59Z</time>
      </trkpt>
      <trkpt lat="48.56889" lon="2.09304">
        <ele>100</ele>
        <time>2019-05-12T13:12:09Z</time>
      </trkpt>
      <trkpt lat="48.56879" lon="2.09304">
        <ele>101</ele>
        <time>2019-05-12T13:12:18Z</time>
      </trkpt>
      <trkpt lat="48.56869" lon="2.09304">
        <ele>101</ele>
        <time>2019-05-12T13:12:28Z</time>
      </trkpt>
      <trkpt lat="48.5686" lon="2.09302">
        <ele>102</ele>
        <time>2019-05-12T13:12:37Z</time>
      </trkpt>
      <trkpt lat="48.5685" lon="2.093">
        <ele>103</ele>
        <time>2019-05-12T13:12:46Z</time>
      </trkpt>
      <trkpt lat="48.56841" lon="2.09304">
        <ele>103</ele>
        <time>2019-05-12T13:12:56Z</time>
      </trkpt>
      <trkpt lat="48.5683" lon="2.09307">
        <ele>104</ele>
        <time>2019-05-12T13:13:05Z</time>
      </trkpt>
      <trkpt lat="48.5682" lon="2.09309">
        <ele>104</ele>
        <time>2019-05-12T13:13:14Z</time>
      </trkpt>
      <trkpt lat="48.56811" lon="2.09309">
        <ele>104</ele>
        <time>2019-05-12T13:13:22Z</time>
      </trkpt>
      <trkpt lat="48.568" lon="2.09306">
        <ele>104</ele>
        <time>2019-05-12T13:13:30Z</time>
      </trkpt>
      <trkpt lat="48.5679" lon="2.09305">
        <ele>105</ele>
        <time>2019-05-12T13:13:38Z</time>
      </trkpt>
      <trkpt lat="48.56781" lon="2.09305">
        <ele>105</ele>
        <time>2019-05-12T13:13:47Z</time>
      </trkpt>
      <trkpt lat="48.56772" lon="2.09305">
        <ele>105</ele>
        <time>2019-05-12T13:13:57Z</time>
      </trkpt>
      <trkpt lat="48.56762" lon="2.09304">
        <ele>105</ele>
        <time>2019-05-12T13:14:06Z</time>
      </trkpt>
      <trkpt lat="48.56753" lon="2.09304">
        <ele>105</ele>
        <time>2019-05-12T13:14:17Z</time>
      </trkpt>
      <trkpt lat="48.56743" lon="2.09304">
        <ele>105</ele>
        <time>2019-05-12T13:14:25Z</time>
      </trkpt>
      <trkpt lat="48.56735" lon="2.093">
        <ele>106</ele>
        <time>2019-05-12T13:14:33Z</time>
      </trkpt>
      <trkpt lat="48.56725" lon="2.09298">
        <ele>106</ele>
        <time>2019-05-12T13:14:42Z</time>
      </trkpt>
      <trkpt lat="48.56717" lon="2.09292">
        <ele>106</ele>
        <time>2019-05-12T13:14:49Z</time>
      </trkpt>
      <trkpt lat="48.56707" lon="2.09285">
        <ele>107</ele>
        <time>2019-05-12T13:14:58Z</time>
      </trkpt>
      <trkpt lat="48.56697" lon="2.09286">
        <ele>107</ele>
        <time>2019-05-12T13:15:08Z</time>
      </trkpt>
      <trkpt lat="48.56688" lon="2.09283">
        <ele>108</ele>
        <time>2019-05-12T13:15:17Z</time>
      </trkpt>
      <trkpt lat="48.56678" lon="2.09279">
        <ele>108</ele>
        <time>2019-05-12T13:15:25Z</time>
      </trkpt>
      <trkpt lat="48.56669" lon="2.09275">
        <ele>108</ele>
        <time>2019-05-12T13:15:34Z</time>
      </trkpt>
      <trkpt lat="48.56661" lon="2.09269">
        <ele>109</ele>
        <time>2019-05-12T13:15:44Z</time>
      </trkpt>
      <trkpt lat="48.56651" lon="2.09264">
        <ele>109</ele>
        <time>2019-05-12T13:15:53Z</time>
      </trkpt>
      <trkpt lat="48.56642" lon="2.0926">
        <ele>109</ele>
        <time>2019-05-12T13:16:05Z</time>
      </trkpt>
      <trkpt lat="48.56633" lon="2.09257">
        <ele>109</ele>
        <time>2019-05-12T13:16:11Z</time>
      </trkpt>
      <trkpt lat="48.56623" lon="2.09253">
        <ele>109</ele>
        <time>2019-05-12T13:16:17Z</time>
      </trkpt>
      <trkpt lat="48.56615" lon="2.09248">
        <ele>109</ele>
        <time>2019-05-12T13:16:27Z</time>
      </trkpt>
      <trkpt lat="48.56606" lon="2.09244">
        <ele>109</ele>
        <time>2019-05-12T13:16:35Z</time>
      </trkpt>
      <trkpt lat="48.56597" lon="2.09239">
        <ele>110</ele>
        <time>2019-05-12T13:16:43Z</time>
      </trkpt>
      <trkpt lat="48.56585" lon="2.09234">
        <ele>110</ele>
        <time>2019-05-12T13:16:51Z</time>
      </trkpt>
      <trkpt lat="48.56577" lon="2.0923">
        <ele>110</ele>
        <time>2019-05-12T13:16:58Z</time>
      </trkpt>
      <trkpt lat="48.56568" lon="2.09223">
        <ele>110</ele>
        <time>2019-05-12T13:17:05Z</time>
      </trkpt>
      <trkpt lat="48.56559" lon="2.09219">
        <ele>110</ele>
        <time>2019-05-12T13:17:17Z</time>
      </trkpt>
      <trkpt lat="48.56549" lon="2.09219">
        <ele>110</ele>
        <time>2019-05-12T13:17:22Z</time>
      </trkpt>
      <trkpt lat="48.5654" lon="2.09214">
        <ele>110</ele>
        <time>2019-05-12T13:17:31Z</time>
      </trkpt>
      <trkpt lat="48.5653" lon="2.09211">
        <ele>111</ele>
        <time>2019-05-12T13:17:40Z</time>
      </trkpt>
      <trkpt lat="48.56521" lon="2.09208">
        <ele>111</ele>
        <time>2019-05-12T13:17:47Z</time>
      </trkpt>
      <trkpt lat="48.56512" lon="2.09206">
        <ele>111</ele>
        <time>2019-05-12T13:17:56Z</time>
      </trkpt>
      <trkpt lat="48.56503" lon="2.09206">
        <ele>111</ele>
        <time>2019-05-12T13:18:03Z</time>
      </trkpt>
      <trkpt lat="48.56494" lon="2.09205">
        <ele>111</ele>
        <time>2019-05-12T13:18:11Z</time>
      </trkpt>
      <trkpt lat="48.56484" lon="2.092">
        <ele>112</ele>
        <time>2019-05-12T13:18:21Z</time>
      </trkpt>
      <trkpt lat="48.56475" lon="2.09196">
        <ele>112</ele>
        <time>2019-05-12T13:18:32Z</time>
      </trkpt>
      <trkpt lat="48.56466" lon="2.09192">
        <ele>113</ele>
        <time>2019-05-12T13:18:39Z</time>
      </trkpt>
      <trkpt lat="48.56457" lon="2.09188">
        <ele>113</ele>
        <time>2019-05-12T13:18:48Z</time>
      </trkpt>
      <trkpt lat="48.56449" lon="2.09181">
        <ele>113</ele>
        <time>2019-05-12T13:19:01Z</time>
      </trkpt>
      <trkpt lat="48.56438" lon="2.09178">
        <ele>114</ele>
        <time>2019-05-12T13:19:11Z</time>
      </trkpt>
      <trkpt lat="48.5643" lon="2.09172">
        <ele>114</ele>
        <time>2019-05-12T13:19:19Z</time>
      </trkpt>
      <trkpt lat="48.56421" lon="2.09166">
        <ele>115</ele>
        <time>2019-05-12T13:19:28Z</time>
      </trkpt>
      <trkpt lat="48.56412" lon="2.09164">
        <ele>115</ele>
        <time>2019-05-12T13:19:36Z</time>
      </trkpt>
      <trkpt lat="48.56402" lon="2.09159">
        <ele>116</ele>
        <time>2019-05-12T13:19:45Z</time>
      </trkpt>
      <trkpt lat="48.56394" lon="2.09152">
        <ele>116</ele>
        <time>2019-05-12T13:19:56Z</time>
      </trkpt>
      <trkpt lat="48.56385" lon="2.09153">
        <ele>116</ele>
        <time>2019-05-12T13:20:05Z</time>
      </trkpt>
      <trkpt lat="48.56376" lon="2.09153">
        <ele>117</ele>
        <time>2019-05-12T13:20:11Z</time>
      </trkpt>
      <trkpt lat="48.56367" lon="2.09151">
        <ele>118</ele>
        <time>2019-05-12T13:20:20Z</time>
      </trkpt>
      <trkpt lat="48.56357" lon="2.0915">
        <ele>118</ele>
        <time>2019-05-12T13:20:28Z</time>
      </trkpt>
      <trkpt lat="48.56348" lon="2.09149">
        <ele>119</ele>
        <time>2019-05-12T13:20:36Z</time>
      </trkpt>
      <trkpt lat="48.56338" lon="2.09149">
        <ele>120</ele>
        <time>2019-05-12T13:20:47Z</time>
      </trkpt>
      <trkpt lat="48.56329" lon="2.09145">
        <ele>120</ele>
        <time>2019-05-12T13:20:56Z</time>
      </trkpt>
      <trkpt lat="48.56319" lon="2.09143">
        <ele>120</ele>
        <time>2019-05-12T13:21:18Z</time>
      </trkpt>
      <trkpt lat="48.56309" lon="2.09141">
        <ele>120</ele>
        <time>2019-05-12T13:21:29Z</time>
      </trkpt>
      <trkpt lat="48.563" lon="2.09137">
        <ele>121</ele>
        <time>2019-05-12T13:21:36Z</time>
      </trkpt>
      <trkpt lat="48.5629" lon="2.09136">
        <ele>121</ele>
        <time>2019-05-12T13:21:45Z</time>
      </trkpt>
      <trkpt lat="48.56281" lon="2.09134">
        <ele>121</ele>
        <time>2019-05-12T13:21:53Z</time>
      </trkpt>
      <trkpt lat="48.56272" lon="2.09131">
        <ele>121</ele>
        <time>2019-05-12T13:22:01Z</time>
      </trkpt>
      <trkpt lat="48.56263" lon="2.09129">
        <ele>122</ele>
        <time>2019-05-12T13:22:12Z</time>
      </trkpt>
      <trkpt lat="48.56253" lon="2.09133">
        <ele>122</ele>
        <time>2019-05-12T13:22:20Z</time>
      </trkpt>
      <trkpt lat="48.56243" lon="2.0913">
        <ele>122</ele>
        <time>2019-05-12T13:22:29Z</time>
      </trkpt>
      <trkpt lat="48.56233" lon="2.09128">
        <ele>122</ele>
        <time>2019-05-12T13:22:40Z</time>
      </trkpt>
      <trkpt lat="48.56224" lon="2.09129">
        <ele>122</ele>
        <time>2019-05-12T13:22:51Z</time>
      </trkpt>
      <trkpt lat="48.56214" lon="2.09127">
        <ele>122</ele>
        <time>2019-05-12T13:22:59Z</time>
      </trkpt>
      <trkpt lat="48.56204" lon="2.09123">
        <ele>122</ele>
        <time>2019-05-12T13:23:09Z</time>
      </trkpt>
      <trkpt lat="48.56195" lon="2.09119">
        <ele>122</ele>
        <time>2019-05-12T13:23:18Z</time>
      </trkpt>
      <trkpt lat="48.56185" lon="2.09117">
        <ele>122</ele>
        <time>2019-05-12T13:23:30Z</time>
      </trkpt>
      <trkpt lat="48.56176" lon="2.09113">
        <ele>122</ele>
        <time>2019-05-12T13:23:42Z</time>
      </trkpt>
      <trkpt lat="48.56166" lon="2.09114">
        <ele>122</ele>
        <time>2019-05-12T13:23:53Z</time>
      </trkpt>
      <trkpt lat="48.56156" lon="2.09115">
        <ele>122</ele>
        <time>2019-05-12T13:24:01Z</time>
      </trkpt>
      <trkpt lat="48.56146" lon="2.09116">
        <ele>123</ele>
        <time>2019-05-12T13:24:09Z</time>
      </trkpt>
      <trkpt lat="48.56137" lon="2.09114">
        <ele>123</ele>
        <time>2019-05-12T13:24:17Z</time>
      </trkpt>
      <trkpt lat="48.56128" lon="2.09113">
        <ele>123</ele>
        <time>2019-05-12T13:24:24Z</time>
      </trkpt>
      <trkpt lat="48.56117" lon="2.09113">
        <ele>124</ele>
        <time>2019-05-12T13:24:31Z</time>
      </trkpt>
      <trkpt lat="48.56109" lon="2.09118">
        <ele>124</ele>
        <time>2019-05-12T13:24:38Z</time>
      </trkpt>
      <trkpt lat="48.561" lon="2.0912">
        <ele>125</ele>
        <time>2019-05-12T13:24:46Z</time>
      </trkpt>
      <trkpt lat="48.5609" lon="2.09122">
        <ele>125</ele>
        <time>2019-05-12T13:24:56Z</time>
      </trkpt>
      <trkpt lat="48.56081" lon="2.09122">
        <ele>126</ele>
        <time>2019-05-12T13:25:03Z</time>
      </trkpt>
      <trkpt lat="48.56072" lon="2.09126">
        <ele>126</ele>
        <time>2019-05-12T13:25:18Z</time>
      </trkpt>
      <trkpt lat="48.56062" lon="2.09133">
        <ele>127</ele>
        <time>2019-05-12T13:25:25Z</time>
      </trkpt>
      <trkpt lat="48.56052" lon="2.09137">
        <ele>128</ele>
        <time>2019-05-12T13:25:35Z</time>
      </trkpt>
      <trkpt lat="48.56043" lon="2.0914">
        <ele>128</ele>
        <time>2019-05-12T13:25:45Z</time>
      </trkpt>
      <trkpt lat="48.56033" lon="2.09143">
        <ele>129</ele>
        <time>2019-05-12T13:25:54Z</time>
      </trkpt>
      <trkpt lat="48.56024" lon="2.09148">
        <ele>130</ele>
        <time>2019-05-12T13:26:03Z</time>
      </trkpt>
      <trkpt lat="48.56016" lon="2.09151">
        <ele>130</ele>
        <time>2019-05-12T13:26:11Z</time>
      </trkpt>
      <trkpt lat="48.56007" lon="2.09156">
        <ele>131</ele>
        <time>2019-05-12T13:26:21Z</time>
      </trkpt>
      <trkpt lat="48.55998" lon="2.09162">
        <ele>131</ele>
        <time>2019-05-12T13:26:29Z</time>
      </trkpt>
      <trkpt lat="48.5599" lon="2.09167">
        <ele>132</ele>
        <time>2019-05-12T13:26:39Z</time>
      </trkpt>
      <trkpt lat="48.55981" lon="2.09173">
        <ele>132</ele>
        <time>2019-05-12T13:26:49Z</time>
      </trkpt>
      <trkpt lat="48.55971" lon="2.09176">
        <ele>133</ele>
        <time>2019-05-12T13:26:59Z</time>
      </trkpt>
      <trkpt lat="48.55962" lon="2.09185">
        <ele>134</ele>
        <time>2019-05-12T13:27:07Z</time>
      </trkpt>
      <trkpt lat="48.55955" lon="2.09192">
        <ele>134</ele>
        <time>2019-05-12T13:27:16Z</time>
      </trkpt>
      <trkpt lat="48.55946" lon="2.09193">
        <ele>135</ele>
        <time>2019-05-12T13:27:28Z</time>
      </trkpt>
      <trkpt lat="48.55936" lon="2.09196">
        <ele>136</ele>
        <time>2019-05-12T13:27:35Z</time>
      </trkpt>
      <trkpt lat="48.55927" lon="2.09201">
        <ele>136</ele>
        <time>2019-05-12T13:27:47Z</time>
      </trkpt>
      <trkpt lat="48.55918" lon="2.09202">
        <ele>137</ele>
        <time>2019-05-12T13:27:54Z</time>
      </trkpt>
      <trkpt lat="48.55909" lon="2.092">
        <ele>138</ele>
        <time>2019-05-12T13:28:02Z</time>
      </trkpt>
      <trkpt lat="48.55899" lon="2.09195">
        <ele>139</ele>
        <time>2019-05-12T13:28:13Z</time>
      </trkpt>
      <trkpt lat="48.55889" lon="2.09197">
        <ele>139</ele>
        <time>2019-05-12T13:28:22Z</time>
      </trkpt>
      <trkpt lat="48.55881" lon="2.09192">
        <ele>140</ele>
        <time>2019-05-12T13:28:33Z</time>
      </trkpt>
      <trkpt lat="48.55872" lon="2.09192">
        <ele>141</ele>
        <time>2019-05-12T13:28:39Z</time>
      </trkpt>
      <trkpt lat="48.55863" lon="2.09188">
        <ele>142</ele>
        <time>2019-05-12T13:28:47Z</time>
      </trkpt>
      <trkpt lat="48.55853" lon="2.09183">
        <ele>142</ele>
        <time>2019-05-12T13:28:58Z</time>
      </trkpt>
      <trkpt lat="48.55842" lon="2.09184">
        <ele>143</ele>
        <time>2019-05-12T13:29:11Z</time>
      </trkpt>
      <trkpt lat="48.55832" lon="2.09183">
        <ele>144</ele>
        <time>2019-05-12T13:29:21Z</time>
      </trkpt>
      <trkpt lat="48.55823" lon="2.09176">
        <ele>145</ele>
        <time>2019-05-12T13:29:29Z</time>
      </trkpt>
      <trkpt lat="48.55813" lon="2.09175">
        <ele>147</ele>
        <time>2019-05-12T13:29:36Z</time>
      </trkpt>
      <trkpt lat="48.55804" lon="2.09172">
        <ele>148</ele>
        <time>2019-05-12T13:29:50Z</time>
      </trkpt>
      <trkpt lat="48.55797" lon="2.09162">
        <ele>148</ele>
        <time>2019-05-12T13:30:02Z</time>
      </trkpt>
      <trkpt lat="48.55789" lon="2.09155">
        <ele>149</ele>
        <time>2019-05-12T13:30:21Z</time>
      </trkpt>
      <trkpt lat="48.55781" lon="2.09145">
        <ele>150</ele>
        <time>2019-05-12T13:30:31Z</time>
      </trkpt>
      <trkpt lat="48.55774" lon="2.09138">
        <ele>151</ele>
        <time>2019-05-12T13:30:44Z</time>
      </trkpt>
      <trkpt lat="48.55768" lon="2.09126">
        <ele>152</ele>
        <time>2019-05-12T13:31:02Z</time>
      </trkpt>
      <trkpt lat="48.5576" lon="2.0912">
        <ele>153</ele>
        <time>2019-05-12T13:31:16Z</time>
      </trkpt>
      <trkpt lat="48.55751" lon="2.09114">
        <ele>154</ele>
        <time>2019-05-12T13:31:29Z</time>
      </trkpt>
      <trkpt lat="48.55744" lon="2.09107">
        <ele>155</ele>
        <time>2019-05-12T13:31:39Z</time>
      </trkpt>
      <trkpt lat="48.55734" lon="2.09106">
        <ele>155</ele>
        <time>2019-05-12T13:31:53Z</time>
      </trkpt>
      <trkpt lat="48.55725" lon="2.09101">
        <ele>156</ele>
        <time>2019-05-12T13:32:17Z</time>
      </trkpt>
      <trkpt lat="48.55715" lon="2.091">
        <ele>157</ele>
        <time>2019-05-12T13:32:27Z</time>
      </trkpt>
      <trkpt lat="48.55707" lon="2.09094">
        <ele>158</ele>
        <time>2019-05-12T13:32:38Z</time>
      </trkpt>
      <trkpt lat="48.55699" lon="2.09088">
        <ele>158</ele>
        <time>2019-05-12T13:32:49Z</time>
      </trkpt>
      <trkpt lat="48.55693" lon="2.09077">
        <ele>159</ele>
        <time>2019-05-12T13:33:31Z</time>
      </trkpt>
      <trkpt lat="48.55691" lon="2.09063">
        <ele>159</ele>
        <time>2019-05-12T13:33:43Z</time>
      </trkpt>
      <trkpt lat="48.5569" lon="2.0905">
        <ele>160</ele>
        <time>2019-05-12T13:33:57Z</time>
      </trkpt>
      <trkpt lat="48.55688" lon="2.09035">
        <ele>160</ele>
        <time>2019-05-12T13:34:06Z</time>
      </trkpt>
      <trkpt lat="48.55683" lon="2.09023">
        <ele>161</ele>
        <time>2019-05-12T13:34:16Z</time>
      </trkpt>
      <trkpt lat="48.55676" lon="2.09013">
        <ele>161</ele>
        <time>2019-05-12T13:34:25Z</time>
      </trkpt>
      <trkpt lat="48.55667" lon="2.0901">
        <ele>162</ele>
        <time>2019-05-12T13:34:34Z</time>
      </trkpt>
      <trkpt lat="48.55658" lon="2.09003">
        <ele>163</ele>
        <time>2019-05-12T13:34:41Z</time>
      </trkpt>
      <trkpt lat="48.5565" lon="2.08998">
        <ele>163</ele>
        <time>2019-05-12T13:34:51Z</time>
      </trkpt>
      <trkpt lat="48.55642" lon="2.08989">
        <ele>164</ele>
        <time>2019-05-12T13:35:16Z</time>
      </trkpt>
      <trkpt lat="48.55636" lon="2.08978">
        <ele>165</ele>
        <time>2019-05-12T13:35:24Z</time>
      </trkpt>
      <trkpt lat="48.55629" lon="2.08969">
        <ele>165</ele>
        <time>2019-05-12T13:35:35Z</time>
      </trkpt>
      <trkpt lat="48.5562" lon="2.08964">
        <ele>166</ele>
        <time>2019-05-12T13:35:45Z</time>
      </trkpt>
      <trkpt lat="48.55611" lon="2.08958">
        <ele>166</ele>
        <time>2019-05-12T13:35:53Z</time>
      </trkpt>
      <trkpt lat="48.55603" lon="2.08952">
        <ele>167</ele>
        <time>2019-05-12T13:36:06Z</time>
      </trkpt>
      <trkpt lat="48.55594" lon="2.08947">
        <ele>167</ele>
        <time>2019-05-12T13:36:17Z</time>
      </trkpt>
      <trkpt lat="48.55585" lon="2.0894">
        <ele>168</ele>
        <time>2019-05-12T13:36:25Z</time>
      </trkpt>
      <trkpt lat="48.55577" lon="2.08933">
        <ele>168</ele>
        <time>2019-05-12T13:36:32Z</time>
      </trkpt>
      <trkpt lat="48.5557" lon="2.08922">
        <ele>168</ele>
        <time>2019-05-12T13:36:47Z</time>
      </trkpt>
      <trkpt lat="48.55563" lon="2.08914">
        <ele>168</ele>
        <time>2019-05-12T13:36:56Z</time>
      </trkpt>
      <trkpt lat="48.55556" lon="2.08903">
        <ele>168</ele>
        <time>2019-05-12T13:37:04Z</time>
      </trkpt>
      <trkpt lat="48.55551" lon="2.08892">
        <ele>168</ele>
        <time>2019-05-12T13:37:12Z</time>
      </trkpt>
      <trkpt lat="48.55541" lon="2.08885">
        <ele>168</ele>
        <time>2019-05-12T13:37:24Z</time>
      </trkpt>
      <trkpt lat="48.55533" lon="2.0888">
        <ele>168</ele>
        <time>2019-05-12T13:37:36Z</time>
      </trkpt>
      <trkpt lat="48.55524" lon="2.08872">
        <ele>168</ele>
        <time>2019-05-12T13:37:48Z</time>
      </trkpt>
      <trkpt lat="48.55517" lon="2.08862">
        <ele>167</ele>
        <time>2019-05-12T13:37:58Z</time>
      </trkpt>
      <trkpt lat="48.55508" lon="2.08855">
        <ele>167</ele>
        <time>2019-05-12T13:38:08Z</time>
      </trkpt>
      <trkpt lat="48.555" lon="2.08849">
        <ele>167</ele>
        <time>2019-05-12T13:38:19Z</time>
      </trkpt>
      <trkpt lat="48.55491" lon="2.08842">
        <ele>167</ele>
        <time>2019-05-12T13:38:26Z</time>
      </trkpt>
      <trkpt lat="48.55481" lon="2.08835">
        <ele>167</ele>
        <time>2019-05-12T13:38:35Z</time>
      </trkpt>
      <trkpt lat="48.55472" lon="2.08827">
        <ele>167</ele>
        <time>2019-05-12T13:38:45Z</time>
      </trkpt>
      <trkpt lat="48.55465" lon="2.0882">
        <ele>167</ele>
        <time>2019-05-12T13:38:52Z</time>
      </trkpt>
      <trkpt lat="48.55455" lon="2.08817">
        <ele>167</ele>
        <time>2019-05-12T13:39:02Z</time>
      </trkpt>
      <trkpt lat="48.55446" lon="2.08813">
        <ele>167</ele>
        <time>2019-05-12T13:39:11Z</time>
      </trkpt>
      <trkpt lat="48.55437" lon="2.08807">
        <ele>167</ele>
        <time>2019-05-12T13:39:19Z</time>
      </trkpt>
      <trkpt lat="48.55427" lon="2.08803">
        <ele>166</ele>
        <time>2019-05-12T13:39:27Z</time>
      </trkpt>
      <trkpt lat="48.55418" lon="2.08802">
        <ele>166</ele>
        <time>2019-05-12T13:39:37Z</time>
      </trkpt>
      <trkpt lat="48.55409" lon="2.08799">
        <ele>166</ele>
        <time>2019-05-12T13:39:43Z</time>
      </trkpt>
      <trkpt lat="48.554" lon="2.08797">
        <ele>166</ele>
        <time>2019-05-12T13:39:53Z</time>
      </trkpt>
      <trkpt lat="48.55391" lon="2.08796">
        <ele>167</ele>
        <time>2019-05-12T13:39:59Z</time>
      </trkpt>
      <trkpt lat="48.55382" lon="2.08793">
        <ele>166</ele>
        <time>2019-05-12T13:40:04Z</time>
      </trkpt>
      <trkpt lat="48.55373" lon="2.08788">
        <ele>166</ele>
        <time>2019-05-12T13:40:13Z</time>
      </trkpt>
      <trkpt lat="48.55366" lon="2.08778">
        <ele>166</ele>
        <time>2019-05-12T13:40:21Z</time>
      </trkpt>
      <trkpt lat="48.55357" lon="2.08773">
        <ele>166</ele>
        <time>2019-05-12T13:40:29Z</time>
      </trkpt>
      <trkpt lat="48.55348" lon="2.0877">
        <ele>166</ele>
        <time>2019-05-12T13:40:38Z</time>
      </trkpt>
      <trkpt lat="48.55337" lon="2.08768">
        <ele>166</ele>
        <time>2019-05-12T13:40:47Z</time>
      </trkpt>
      <trkpt lat="48.55328" lon="2.08766">
        <ele>166</ele>
        <time>2019-05-12T13:40:53Z</time>
      </trkpt>
      <trkpt lat="48.55318" lon="2.08764">
        <ele>165</ele>
        <time>2019-05-12T13:41:00Z</time>
      </trkpt>
      <trkpt lat="48.55309" lon="2.08759">
        <ele>165</ele>
        <time>2019-05-12T13:41:09Z</time>
      </trkpt>
      <trkpt lat="48.553" lon="2.08755">
        <ele>164</ele>
        <time>2019-05-12T13:41:18Z</time>
      </trkpt>
      <trkpt lat="48.5529" lon="2.0876">
        <ele>164</ele>
        <time>2019-05-12T13:41:26Z</time>
      </trkpt>
      <trkpt lat="48.5528" lon="2.08762">
        <ele>164</ele>
        <time>2019-05-12T13:41:34Z</time>
      </trkpt>
      <trkpt lat="48.55271" lon="2.08762">
        <ele>164</ele>
        <time>2019-05-12T13:41:44Z</time>
      </trkpt>
      <trkpt lat="48.5526" lon="2.08762">
        <ele>164</ele>
        <time>2019-05-12T13:41:49Z</time>
      </trkpt>
      <trkpt lat="48.5525" lon="2.08764">
        <ele>164</ele>
        <time>2019-05-12T13:41:58Z</time>
      </trkpt>
      <trkpt lat="48.55241" lon="2.08761">
        <ele>163</ele>
        <time>2019-05-12T13:42:07Z</time>
      </trkpt>
      <trkpt lat="48.55232" lon="2.08761">
        <ele>162</ele>
        <time>2019-05-12T13:42:15Z</time>
      </trkpt>
      <trkpt lat="48.55223" lon="2.08759">
        <ele>161</ele>
        <time>2019-05-12T13:42:41Z</time>
      </trkpt>
      <trkpt lat="48.55215" lon="2.08751">
        <ele>160</ele>
        <time>2019-05-12T13:44:34Z</time>
      </trkpt>
      <trkpt lat="48.5522" lon="2.08764">
        <ele>161</ele>
        <time>2019-05-12T13:45:06Z</time>
      </trkpt>
      <trkpt lat="48.55225" lon="2.08753">
        <ele>161</ele>
        <time>2019-05-12T13:48:07Z</time>
      </trkpt>
      <trkpt lat="48.55216" lon="2.08757">
        <ele>160</ele>
        <time>2019-05-12T13:48:31Z</time>
      </trkpt>
      <trkpt lat="48.55222" lon="2.08768">
        <ele>161</ele>
        <time>2019-05-12T13:49:39Z</time>
      </trkpt>
      <trkpt lat="48.55228" lon="2.08758">
        <ele>161</ele>
        <time>2019-05-12T13:51:13Z</time>
      </trkpt>
      <trkpt lat="48.55217" lon="2.08761">
        <ele>160</ele>
        <time>2019-05-12T13:51:33Z</time>
      </trkpt>
      <trkpt lat="48.55209" lon="2.08765">
        <ele>159</ele>
        <time>2019-05-12T13:51:42Z</time>
      </trkpt>
      <trkpt lat="48.55199" lon="2.08761">
        <ele>158</ele>
        <time>2019-05-12T13:52:00Z</time>
      </trkpt>
      <trkpt lat="48.55202" lon="2.08747">
        <ele>158</ele>
        <time>2019-05-12T13:52:14Z</time>
      </trkpt>
      <trkpt lat="48.552" lon="2.08733">
        <ele>158</ele>
        <time>2019-05-12T13:52:24Z</time>
      </trkpt>
      <trkpt lat="48.55196" lon="2.08718">
        <ele>158</ele>
        <time>2019-05-12T13:52:32Z</time>
      </trkpt>
      <trkpt lat="48.55197" lon="2.08703">
        <ele>159</ele>
        <time>2019-05-12T13:52:38Z</time>
      </trkpt>
      <trkpt lat="48.55195" lon="2.0869">
        <ele>159</ele>
        <time>2019-05-12T13:52:52Z</time>
      </trkpt>
      <trkpt lat="48.55196" lon="2.08676">
        <ele>159</ele>
        <time>2019-05-12T13:53:10Z</time>
      </trkpt>
      <trkpt lat="48.55191" lon="2.08664">
        <ele>159</ele>
        <time>2019-05-12T13:53:30Z</time>
      </trkpt>
      <trkpt lat="48.55194" lon="2.08651">
        <ele>159</ele>
        <time>2019-05-12T13:53:44Z</time>
      </trkpt>
      <trkpt lat="48.55195" lon="2.08637">
        <ele>159</ele>
        <time>2019-05-12T13:54:01Z</time>
      </trkpt>
      <trkpt lat="48.55197" lon="2.08622">
        <ele>159</ele>
        <time>2019-05-12T13:54:07Z</time>
      </trkpt>
      <trkpt lat="48.55197" lon="2.08608">
        <ele>159</ele>
        <time>2019-05-12T13:54:16Z</time>
      </trkpt>
      <trkpt lat="48.55196" lon="2.08594">
        <ele>159</ele>
        <time>2019-05-12T13:54:27Z</time>
      </trkpt>
      <trkpt lat="48.55197" lon="2.08581">
        <ele>159</ele>
        <time>2019-05-12T13:54:39Z</time>
      </trkpt>
      <trkpt lat="48.55196" lon="2.08567">
        <ele>159</ele>
        <time>2019-05-12T13:54:49Z</time>
      </trkpt>
      <trkpt lat="48.55199" lon="2.08552">
        <ele>158</ele>
        <time>2019-05-12T13:55:02Z</time>
      </trkpt>
      <trkpt lat="48.55197" lon="2.08538">
        <ele>158</ele>
        <time>2019-05-12T13:55:12Z</time>
      </trkpt>
      <trkpt lat="48.55198" lon="2.08525">
        <ele>158</ele>
        <time>2019-05-12T13:55:25Z</time>
      </trkpt>
      <trkpt lat="48.55201" lon="2.08511">
        <ele>158</ele>
        <time>2019-05-12T13:55:35Z</time>
      </trkpt>
      <trkpt lat="48.55202" lon="2.08496">
        <ele>158</ele>
        <time>2019-05-12T13:55:44Z</time>
      </trkpt>
      <trkpt lat="48.55203" lon="2.08482">
        <ele>158</ele>
        <time>2019-05-12T13:55:55Z</time>
      </trkpt>
      <trkpt lat="48.552" lon="2.08468">
        <ele>158</ele>
        <time>2019-05-12T13:56:05Z</time>
      </trkpt>
      <trkpt lat="48.552" lon="2.08454">
        <ele>158</ele>
        <time>2019-05-12T13:56:13Z</time>
      </trkpt>
      <trkpt lat="48.55199" lon="2.08439">
        <ele>157</ele>
        <time>2019-05-12T13:56:21Z</time>
      </trkpt>
      <trkpt lat="48.55197" lon="2.08425">
        <ele>157</ele>
        <time>2019-05-12T13:56:29Z</time>
      </trkpt>
      <trkpt lat="48.55197" lon="2.0841">
        <ele>157</ele>
        <time>2019-05-12T13:56:37Z</time>
      </trkpt>
      <trkpt lat="48.55197" lon="2.08396">
        <ele>157</ele>
        <time>2019-05-12T13:56:45Z</time>
      </trkpt>
      <trkpt lat="48.55197" lon="2.08382">
        <ele>157</ele>
        <time>2019-05-12T13:56:52Z</time>
      </trkpt>
      <trkpt lat="48.55196" lon="2.08368">
        <ele>156</ele>
        <time>2019-05-12T13:56:59Z</time>
      </trkpt>
      <trkpt lat="48.55196" lon="2.08353">
        <ele>156</ele>
        <time>2019-05-12T13:57:06Z</time>
      </trkpt>
      <trkpt lat="48.55194" lon="2.08338">
        <ele>156</ele>
        <time>2019-05-12T13:57:14Z</time>
      </trkpt>
      <trkpt lat="48.55194" lon="2.08323">
        <ele>155</ele>
        <time>2019-05-12T13:57:22Z</time>
      </trkpt>
      <trkpt lat="48.55193" lon="2.08309">
        <ele>155</ele>
        <time>2019-05-12T13:57:29Z</time>
      </trkpt>
      <trkpt lat="48.55193" lon="2.08296">
        <ele>155</ele>
        <time>2019-05-12T13:57:37Z</time>
      </trkpt>
      <trkpt lat="48.55192" lon="2.0828">
        <ele>155</ele>
        <time>2019-05-12T13:57:46Z</time>
      </trkpt>
      <trkpt lat="48.55193" lon="2.08266">
        <ele>154</ele>
        <time>2019-05-12T13:57:54Z</time>
      </trkpt>
      <trkpt lat="48.55193" lon="2.08252">
        <ele>154</ele>
        <time>2019-05-12T13:58:02Z</time>
      </trkpt>
      <trkpt lat="48.55193" lon="2.08239">
        <ele>154</ele>
        <time>2019-05-12T13:58:10Z</time>
      </trkpt>
      <trkpt lat="48.55192" lon="2.08225">
        <ele>154</ele>
        <time>2019-05-12T13:58:17Z</time>
      </trkpt>
      <trkpt lat="48.55192" lon="2.0821">
        <ele>154</ele>
        <time>2019-05-12T13:58:25Z</time>
      </trkpt>
      <trkpt lat="48.55193" lon="2.08195">
        <ele>154</ele>
        <time>2019-05-12T13:58:34Z</time>
      </trkpt>
      <trkpt lat="48.55193" lon="2.08181">
        <ele>154</ele>
        <time>2019-05-12T13:58:41Z</time>
      </trkpt>
      <trkpt lat="48.55193" lon="2.08165">
        <ele>153</ele>
        <time>2019-05-12T13:58:49Z</time>
      </trkpt>
      <trkpt lat="48.55193" lon="2.0815">
        <ele>153</ele>
        <time>2019-05-12T13:58:57Z</time>
      </trkpt>
      <trkpt lat="48.55191" lon="2.08136">
        <ele>153</ele>
        <time>2019-05-12T13:59:06Z</time>
      </trkpt>
      <trkpt lat="48.55187" lon="2.08123">
        <ele>152</ele>
        <time>2019-05-12T13:59:13Z</time>
      </trkpt>
      <trkpt lat="48.55179" lon="2.0812">
        <ele>152</ele>
        <time>2019-05-12T13:59:41Z</time>
      </trkpt>
      <trkpt lat="48.55169" lon="2.08118">
        <ele>151</ele>
        <time>2019-05-12T13:59:50Z</time>
      </trkpt>
      <trkpt lat="48.55159" lon="2.08118">
        <ele>150</ele>
        <time>2019-05-12T13:59:58Z</time>
      </trkpt>
      <trkpt lat="48.55149" lon="2.08118">
        <ele>149</ele>
        <time>2019-05-12T14:00:06Z</time>
      </trkpt>
      <trkpt lat="48.5514" lon="2.08118">
        <ele>149</ele>
        <time>2019-05-12T14:00:14Z</time>
      </trkpt>
      <trkpt lat="48.5513" lon="2.08117">
        <ele>148</ele>
        <time>2019-05-12T14:00:30Z</time>
      </trkpt>
      <trkpt lat="48.55119" lon="2.08118">
        <ele>148</ele>
        <time>2019-05-12T14:00:38Z</time>
      </trkpt>
      <trkpt lat="48.55109" lon="2.08119">
        <ele>147</ele>
        <time>2019-05-12T14:00:47Z</time>
      </trkpt>
      <trkpt lat="48.55099" lon="2.08119">
        <ele>146</ele>
        <time>2019-05-12T14:00:55Z</time>
      </trkpt>
      <trkpt lat="48.55089" lon="2.08119">
        <ele>146</ele>
        <time>2019-05-12T14:01:04Z</time>
      </trkpt>
      <trkpt lat="48.55078" lon="2.0812">
        <ele>145</ele>
        <time>2019-05-12T14:01:12Z</time>
      </trkpt>
      <trkpt lat="48.55068" lon="2.08121">
        <ele>145</ele>
        <time>2019-05-12T14:01:21Z</time>
      </trkpt>
      <trkpt lat="48.55059" lon="2.0812">
        <ele>145</ele>
        <time>2019-05-12T14:01:29Z</time>
      </trkpt>
      <trkpt lat="48.5505" lon="2.08121">
        <ele>145</ele>
        <time>2019-05-12T14:01:36Z</time>
      </trkpt>
      <trkpt lat="48.55041" lon="2.08121">
        <ele>145</ele>
        <time>2019-05-12T14:01:46Z</time>
      </trkpt>
      <trkpt lat="48.55031" lon="2.08122">
        <ele>145</ele>
        <time>2019-05-12T14:01:55Z</time>
      </trkpt>
      <trkpt lat="48.55021" lon="2.08124">
        <ele>145</ele>
        <time>2019-05-12T14:02:04Z</time>
      </trkpt>
      <trkpt lat="48.55012" lon="2.08124">
        <ele>145</ele>
        <time>2019-05-12T14:02:13Z</time>
      </trkpt>
      <trkpt lat="48.55003" lon="2.08123">
        <ele>145</ele>
        <time>2019-05-12T14:02:21Z</time>
      </trkpt>
      <trkpt lat="48.54994" lon="2.08124">
        <ele>146</ele>
        <time>2019-05-12T14:02:29Z</time>
      </trkpt>
      <trkpt lat="48.54984" lon="2.08124">
        <ele>146</ele>
        <time>2019-05-12T14:02:37Z</time>
      </trkpt>
      <trkpt lat="48.54975" lon="2.08126">
        <ele>146</ele>
        <time>2019-05-12T14:03:05Z</time>
      </trkpt>
      <trkpt lat="48.54965" lon="2.08128">
        <ele>146</ele>
        <time>2019-05-12T14:03:16Z</time>
      </trkpt>
      <trkpt lat="48.54956" lon="2.08127">
        <ele>146</ele>
        <time>2019-05-12T14:03:28Z</time>
      </trkpt>
      <trkpt lat="48.54946" lon="2.08127">
        <ele>146</ele>
        <time>2019-05-12T14:03:38Z</time>
      </trkpt>
      <trkpt lat="48.54936" lon="2.08127">
        <ele>146</ele>
        <time>2019-05-12T14:03:46Z</time>
      </trkpt>
      <trkpt lat="48.54927" lon="2.08128">
        <ele>146</ele>
        <time>2019-05-12T14:03:55Z</time>
      </trkpt>
      <trkpt lat="48.54917" lon="2.08128">
        <ele>146</ele>
        <time>2019-05-12T14:04:04Z</time>
      </trkpt>
      <trkpt lat="48.54908" lon="2.0813">
        <ele>147</ele>
        <time>2019-05-12T14:04:14Z</time>
      </trkpt>
      <trkpt lat="48.54899" lon="2.0813">
        <ele>147</ele>
        <time>2019-05-12T14:04:22Z</time>
      </trkpt>
      <trkpt lat="48.54889" lon="2.0813">
        <ele>147</ele>
        <time>2019-05-12T14:04:35Z</time>
      </trkpt>
      <trkpt lat="48.54881" lon="2.08126">
        <ele>147</ele>
        <time>2019-05-12T14:04:45Z</time>
      </trkpt>
      <trkpt lat="48.54871" lon="2.08127">
        <ele>147</ele>
        <time>2019-05-12T14:04:55Z</time>
      </trkpt>
      <trkpt lat="48.54862" lon="2.08128">
        <ele>147</ele>
        <time>2019-05-12T14:05:05Z</time>
      </trkpt>
      <trkpt lat="48.54852" lon="2.08129">
        <ele>147</ele>
        <time>2019-05-12T14:05:15Z</time>
      </trkpt>
      <trkpt lat="48.54842" lon="2.0813">
        <ele>147</ele>
        <time>2019-05-12T14:05:25Z</time>
      </trkpt>
      <trkpt lat="48.54833" lon="2.0813">
        <ele>147</ele>
        <time>2019-05-12T14:05:35Z</time>
      </trkpt>
      <trkpt lat="48.54823" lon="2.08132">
        <ele>148</ele>
        <time>2019-05-12T14:05:44Z</time>
      </trkpt>
      <trkpt lat="48.54814" lon="2.08132">
        <ele>148</ele>
        <time>2019-05-12T14:05:54Z</time>
      </trkpt>
      <trkpt lat="48.54805" lon="2.08135">
        <ele>148</ele>
        <time>2019-05-12T14:06:06Z</time>
      </trkpt>
      <trkpt lat="48.54795" lon="2.08135">
        <ele>148</ele>
        <time>2019-05-12T14:06:15Z</time>
      </trkpt>
      <trkpt lat="48.54785" lon="2.08135">
        <ele>148</ele>
        <time>2019-05-12T14:06:26Z</time>
      </trkpt>
      <trkpt lat="48.54776" lon="2.08135">
        <ele>148</ele>
        <time>2019-05-12T14:06:36Z</time>
      </trkpt>
      <trkpt lat="48.54765" lon="2.08135">
        <ele>148</ele>
        <time>2019-05-12T14:06:47Z</time>
      </trkpt>
      <trkpt lat="48.54756" lon="2.08136">
        <ele>148</ele>
        <time>2019-05-12T14:06:57Z</time>
      </trkpt>
      <trkpt lat="48.54746" lon="2.08136">
        <ele>148</ele>
        <time>2019-05-12T14:07:06Z</time>
      </trkpt>
      <trkpt lat="48.54737" lon="2.08137">
        <ele>149</ele>
        <time>2019-05-12T14:07:16Z</time>
      </trkpt>
      <trkpt lat="48.54727" lon="2.08137">
        <ele>149</ele>
        <time>2019-05-12T14:07:25Z</time>
      </trkpt>
      <trkpt lat="48.54718" lon="2.08138">
        <ele>149</ele>
        <time>2019-05-12T14:07:35Z</time>
      </trkpt>
      <trkpt lat="48.54708" lon="2.08138">
        <ele>149</ele>
        <time>2019-05-12T14:07:44Z</time>
      </trkpt>
      <trkpt lat="48.54699" lon="2.08137">
        <ele>149</ele>
        <time>2019-05-12T14:07:55Z</time>
      </trkpt>
      <trkpt lat="48.5469" lon="2.08137">
        <ele>150</ele>
        <time>2019-05-12T14:08:03Z</time>
      </trkpt>
      <trkpt lat="48.54681" lon="2.08138">
        <ele>150</ele>
        <time>2019-05-12T14:08:12Z</time>
      </trkpt>
      <trkpt lat="48.54671" lon="2.08139">
        <ele>150</ele>
        <time>2019-05-12T14:08:22Z</time>
      </trkpt>
      <trkpt lat="48.54662" lon="2.08139">
        <ele>150</ele>
        <time>2019-05-12T14:08:31Z</time>
      </trkpt>
      <trkpt lat="48.54652" lon="2.0814">
        <ele>150</ele>
        <time>2019-05-12T14:08:41Z</time>
      </trkpt>
      <trkpt lat="48.54642" lon="2.08141">
        <ele>150</ele>
        <time>2019-05-12T14:08:51Z</time>
      </trkpt>
      <trkpt lat="48.54633" lon="2.08142">
        <ele>151</ele>
        <time>2019-05-12T14:09:00Z</time>
      </trkpt>
      <trkpt lat="48.54623" lon="2.08142">
        <ele>151</ele>
        <time>2019-05-12T14:09:09Z</time>
      </trkpt>
      <trkpt lat="48.54614" lon="2.08143">
        <ele>151</ele>
        <time>2019-05-12T14:09:20Z</time>
      </trkpt>
      <trkpt lat="48.54604" lon="2.08142">
        <ele>151</ele>
        <time>2019-05-12T14:09:30Z</time>
      </trkpt>
      <trkpt lat="48.54594" lon="2.08142">
        <ele>151</ele>
        <time>2019-05-12T14:09:39Z</time>
      </trkpt>
      <trkpt lat="48.54585" lon="2.08142">
        <ele>152</ele>
        <time>2019-05-12T14:09:51Z</time>
      </trkpt>
      <trkpt lat="48.54576" lon="2.08142">
        <ele>152</ele>
        <time>2019-05-12T14:10:02Z</time>
      </trkpt>
      <trkpt lat="48.54566" lon="2.08141">
        <ele>153</ele>
        <time>2019-05-12T14:10:14Z</time>
      </trkpt>
      <trkpt lat="48.54556" lon="2.08141">
        <ele>153</ele>
        <time>2019-05-12T14:10:23Z</time>
      </trkpt>
      <trkpt lat="48.54546" lon="2.08142">
        <ele>154</ele>
        <time>2019-05-12T14:10:33Z</time>
      </trkpt>
      <trkpt lat="48.54537" lon="2.08143">
        <ele>154</ele>
        <time>2019-05-12T14:10:42Z</time>
      </trkpt>
      <trkpt lat="48.54527" lon="2.08144">
        <ele>155</ele>
        <time>2019-05-12T14:10:53Z</time>
      </trkpt>
      <trkpt lat="48.54518" lon="2.08144">
        <ele>156</ele>
        <time>2019-05-12T14:11:02Z</time>
      </trkpt>
      <trkpt lat="48.54509" lon="2.08144">
        <ele>156</ele>
        <time>2019-05-12T14:11:12Z</time>
      </trkpt>
      <trkpt lat="48.545" lon="2.08143">
        <ele>157</ele>
        <time>2019-05-12T14:11:21Z</time>
      </trkpt>
      <trkpt lat="48.5449" lon="2.08141">
        <ele>157</ele>
        <time>2019-05-12T14:11:31Z</time>
      </trkpt>
      <trkpt lat="48.54483" lon="2.08132">
        <ele>158</ele>
        <time>2019-05-12T14:12:34Z</time>
      </trkpt>
      <trkpt lat="48.54473" lon="2.08128">
        <ele>158</ele>
        <time>2019-05-12T14:13:05Z</time>
      </trkpt>
      <trkpt lat="48.54464" lon="2.08128">
        <ele>159</ele>
        <time>2019-05-12T14:13:17Z</time>
      </trkpt>
      <trkpt lat="48.54456" lon="2.08119">
        <ele>159</ele>
        <time>2019-05-12T14:13:39Z</time>
      </trkpt>
      <trkpt lat="48.54447" lon="2.08115">
        <ele>159</ele>
        <time>2019-05-12T14:13:46Z</time>
      </trkpt>
      <trkpt lat="48.54437" lon="2.08114">
        <ele>160</ele>
        <time>2019-05-12T14:13:55Z</time>
      </trkpt>
      <trkpt lat="48.54428" lon="2.08111">
        <ele>160</ele>
        <time>2019-05-12T14:14:02Z</time>
      </trkpt>
      <trkpt lat="48.54418" lon="2.08112">
        <ele>161</ele>
        <time>2019-05-12T14:14:11Z</time>
      </trkpt>
      <trkpt lat="48.54408" lon="2.08109">
        <ele>160</ele>
        <time>2019-05-12T14:14:18Z</time>
      </trkpt>
      <trkpt lat="48.54399" lon="2.08109">
        <ele>160</ele>
        <time>2019-05-12T14:14:25Z</time>
      </trkpt>
      <trkpt lat="48.5439" lon="2.08104">
        <ele>159</ele>
        <time>2019-05-12T14:14:32Z</time>
      </trkpt>
      <trkpt lat="48.54381" lon="2.08099">
        <ele>159</ele>
        <time>2019-05-12T14:14:40Z</time>
      </trkpt>
      <trkpt lat="48.54372" lon="2.08091">
        <ele>158</ele>
        <time>2019-05-12T14:14:49Z</time>
      </trkpt>
      <trkpt lat="48.54366" lon="2.08079">
        <ele>157</ele>
        <time>2019-05-12T14:15:03Z</time>
      </trkpt>
      <trkpt lat="48.54359" lon="2.0807">
        <ele>157</ele>
        <time>2019-05-12T14:15:16Z</time>
      </trkpt>
      <trkpt lat="48.54353" lon="2.08059">
        <ele>156</ele>
        <time>2019-05-12T14:15:25Z</time>
      </trkpt>
      <trkpt lat="48.54344" lon="2.08051">
        <ele>155</ele>
        <time>2019-05-12T14:15:34Z</time>
      </trkpt>
      <trkpt lat="48.54334" lon="2.08048">
        <ele>155</ele>
        <time>2019-05-12T14:15:43Z</time>
      </trkpt>
      <trkpt lat="48.54325" lon="2.08045">
        <ele>153</ele>
        <time>2019-05-12T14:15:52Z</time>
      </trkpt>
      <trkpt lat="48.54319" lon="2.08034">
        <ele>152</ele>
        <time>2019-05-12T14:16:02Z</time>
      </trkpt>
      <trkpt lat="48.54311" lon="2.08025">
        <ele>151</ele>
        <time>2019-05-12T14:16:12Z</time>
      </trkpt>
      <trkpt lat="48.54306" lon="2.08014">
        <ele>149</ele>
        <time>2019-05-12T14:16:20Z</time>
      </trkpt>
      <trkpt lat="48.54298" lon="2.08007">
        <ele>148</ele>
        <time>2019-05-12T14:16:29Z</time>
      </trkpt>
      <trkpt lat="48.54291" lon="2.07996">
        <ele>147</ele>
        <time>2019-05-12T14:16:38Z</time>
      </trkpt>
      <trkpt lat="48.54283" lon="2.07989">
        <ele>146</ele>
        <time>2019-05-12T14:16:49Z</time>
      </trkpt>
      <trkpt lat="48.54273" lon="2.07987">
        <ele>145</ele>
        <time>2019-05-12T14:17:00Z</time>
      </trkpt>
      <trkpt lat="48.54263" lon="2.07984">
        <ele>143</ele>
        <time>2019-05-12T14:17:13Z</time>
      </trkpt>
      <trkpt lat="48.54254" lon="2.0798">
        <ele>142</ele>
        <time>2019-05-12T14:17:22Z</time>
      </trkpt>
      <trkpt lat="48.54245" lon="2.07978">
        <ele>141</ele>
        <time>2019-05-12T14:17:35Z</time>
      </trkpt>
      <trkpt lat="48.54236" lon="2.07973">
        <ele>139</ele>
        <time>2019-05-12T14:17:45Z</time>
      </trkpt>
      <trkpt lat="48.54227" lon="2.07968">
        <ele>137</ele>
        <time>2019-05-12T14:17:54Z</time>
      </trkpt>
      <trkpt lat="48.54219" lon="2.07958">
        <ele>136</ele>
        <time>2019-05-12T14:18:08Z</time>
      </trkpt>
      <trkpt lat="48.54212" lon="2.0795">
        <ele>134</ele>
        <time>2019-05-12T14:18:17Z</time>
      </trkpt>
      <trkpt lat="48.54206" lon="2.07938">
        <ele>133</ele>
        <time>2019-05-12T14:18:31Z</time>
      </trkpt>
      <trkpt lat="48.54201" lon="2.07927">
        <ele>132</ele>
        <time>2019-05-12T14:18:41Z</time>
      </trkpt>
      <trkpt lat="48.54196" lon="2.07914">
        <ele>131</ele>
        <time>2019-05-12T14:18:49Z</time>
      </trkpt>
      <trkpt lat="48.54191" lon="2.07903">
        <ele>131</ele>
        <time>2019-05-12T14:19:01Z</time>
      </trkpt>
      <trkpt lat="48.54182" lon="2.07895">
        <ele>129</ele>
        <time>2019-05-12T14:19:15Z</time>
      </trkpt>
      <trkpt lat="48.54175" lon="2.07886">
        <ele>128</ele>
        <time>2019-05-12T14:19:22Z</time>
      </trkpt>
      <trkpt lat="48.54166" lon="2.07879">
        <ele>127</ele>
        <time>2019-05-12T14:19:35Z</time>
      </trkpt>
      <trkpt lat="48.54157" lon="2.07876">
        <ele>126</ele>
        <time>2019-05-12T14:19:44Z</time>
      </trkpt>
      <trkpt lat="48.54148" lon="2.07874">
        <ele>125</ele>
        <time>2019-05-12T14:19:57Z</time>
      </trkpt>
      <trkpt lat="48.5414" lon="2.07879">
        <ele>124</ele>
        <time>2019-05-12T14:20:05Z</time>
      </trkpt>
      <trkpt lat="48.54131" lon="2.07889">
        <ele>121</ele>
        <time>2019-05-12T14:20:10Z</time>
      </trkpt>
      <trkpt lat="48.54122" lon="2.07894">
        <ele>119</ele>
        <time>2019-05-12T14:20:17Z</time>
      </trkpt>
      <trkpt lat="48.54112" lon="2.07896">
        <ele>117</ele>
        <time>2019-05-12T14:20:29Z</time>
      </trkpt>
      <trkpt lat="48.54103" lon="2.07898">
        <ele>116</ele>
        <time>2019-05-12T14:20:40Z</time>
      </trkpt>
      <trkpt lat="48.54093" lon="2.07901">
        <ele>114</ele>
        <time>2019-05-12T14:20:50Z</time>
      </trkpt>
      <trkpt lat="48.54084" lon="2.07905">
        <ele>112</ele>
        <time>2019-05-12T14:21:09Z</time>
      </trkpt>
      <trkpt lat="48.54075" lon="2.0791">
        <ele>109</ele>
        <time>2019-05-12T14:21:19Z</time>
      </trkpt>
      <trkpt lat="48.54065" lon="2.07909">
        <ele>107</ele>
        <time>2019-05-12T14:21:29Z</time>
      </trkpt>
      <trkpt lat="48.54056" lon="2.07905">
        <ele>106</ele>
        <time>2019-05-12T14:21:38Z</time>
      </trkpt>
      <trkpt lat="48.54045" lon="2.07902">
        <ele>104</ele>
        <time>2019-05-12T14:21:47Z</time>
      </trkpt>
      <trkpt lat="48.54037" lon="2.07893">
        <ele>103</ele>
        <time>2019-05-12T14:21:52Z</time>
      </trkpt>
      <trkpt lat="48.5403" lon="2.07884">
        <ele>103</ele>
        <time>2019-05-12T14:22:01Z</time>
      </trkpt>
      <trkpt lat="48.5402" lon="2.07881">
        <ele>101</ele>
        <time>2019-05-12T14:22:07Z</time>
      </trkpt>
      <trkpt lat="48.54011" lon="2.07879">
        <ele>100</ele>
        <time>2019-05-12T14:22:12Z</time>
      </trkpt>
      <trkpt lat="48.54" lon="2.07856">
        <ele>100</ele>
        <time>2019-05-12T14:22:30Z</time>
      </trkpt>
      <trkpt lat="48.53995" lon="2.07844">
        <ele>101</ele>
        <time>2019-05-12T14:22:38Z</time>
      </trkpt>
      <trkpt lat="48.53993" lon="2.07829">
        <ele>102</ele>
        <time>2019-05-12T14:22:46Z</time>
      </trkpt>
      <trkpt lat="48.53992" lon="2.07814">
        <ele>103</ele>
        <time>2019-05-12T14:22:55Z</time>
      </trkpt>
      <trkpt lat="48.53991" lon="2.078">
        <ele>104</ele>
        <time>2019-05-12T14:23:04Z</time>
      </trkpt>
      <trkpt lat="48.53989" lon="2.07786">
        <ele>105</ele>
        <time>2019-05-12T14:23:14Z</time>
      </trkpt>
      <trkpt lat="48.53983" lon="2.07775">
        <ele>105</ele>
        <time>2019-05-12T14:23:25Z</time>
      </trkpt>
      <trkpt lat="48.5398" lon="2.07762">
        <ele>105</ele>
        <time>2019-05-12T14:23:33Z</time>
      </trkpt>
      <trkpt lat="48.53976" lon="2.07748">
        <ele>106</ele>
        <time>2019-05-12T14:23:42Z</time>
      </trkpt>
      <trkpt lat="48.5397" lon="2.07737">
        <ele>105</ele>
        <time>2019-05-12T14:23:50Z</time>
      </trkpt>
      <trkpt lat="48.53964" lon="2.07724">
        <ele>104</ele>
        <time>2019-05-12T14:23:59Z</time>
      </trkpt>
      <trkpt lat="48.53958" lon="2.07714">
        <ele>102</ele>
        <time>2019-05-12T14:24:04Z</time>
      </trkpt>
      <trkpt lat="48.53956" lon="2.07699">
        <ele>102</ele>
        <time>2019-05-12T14:24:13Z</time>
      </trkpt>
      <trkpt lat="48.53953" lon="2.07686">
        <ele>102</ele>
        <time>2019-05-12T14:24:20Z</time>
      </trkpt>
      <trkpt lat="48.53948" lon="2.07672">
        <ele>102</ele>
        <time>2019-05-12T14:24:27Z</time>
      </trkpt>
      <trkpt lat="48.53944" lon="2.07659">
        <ele>101</ele>
        <time>2019-05-12T14:24:34Z</time>
      </trkpt>
      <trkpt lat="48.53942" lon="2.07645">
        <ele>101</ele>
        <time>2019-05-12T14:24:42Z</time>
      </trkpt>
      <trkpt lat="48.53939" lon="2.07632">
        <ele>101</ele>
        <time>2019-05-12T14:24:49Z</time>
      </trkpt>
      <trkpt lat="48.53936" lon="2.07618">
        <ele>100</ele>
        <time>2019-05-12T14:24:57Z</time>
      </trkpt>
      <trkpt lat="48.53931" lon="2.07605">
        <ele>100</ele>
        <time>2019-05-12T14:25:06Z</time>
      </trkpt>
      <trkpt lat="48.53927" lon="2.0759">
        <ele>99</ele>
        <time>2019-05-12T14:25:14Z</time>
      </trkpt>
      <trkpt lat="48.53921" lon="2.07579">
        <ele>98</ele>
        <time>2019-05-12T14:25:22Z</time>
      </trkpt>
      <trkpt lat="48.53914" lon="2.0757">
        <ele>98</ele>
        <time>2019-05-12T14:25:30Z</time>
      </trkpt>
      <trkpt lat="48.53911" lon="2.07556">
        <ele>99</ele>
        <time>2019-05-12T14:25:38Z</time>
      </trkpt>
      <trkpt lat="48.53907" lon="2.07543">
        <ele>99</ele>
        <time>2019-05-12T14:25:44Z</time>
      </trkpt>
      <trkpt lat="48.53903" lon="2.0753">
        <ele>100</ele>
        <time>2019-05-12T14:25:49Z</time>
      </trkpt>
      <trkpt lat="48.53897" lon="2.07518">
        <ele>100</ele>
        <time>2019-05-12T14:25:58Z</time>
      </trkpt>
      <trkpt lat="48.53892" lon="2.07507">
        <ele>99</ele>
        <time>2019-05-12T14:26:09Z</time>
      </trkpt>
      <trkpt lat="48.53887" lon="2.07495">
        <ele>99</ele>
        <time>2019-05-12T14:26:20Z</time>
      </trkpt>
      <trkpt lat="48.53879" lon="2.07484">
        <ele>99</ele>
        <time>2019-05-12T14:26:26Z</time>
      </trkpt>
      <trkpt lat="48.53873" lon="2.07473">
        <ele>98</ele>
        <time>2019-05-12T14:26:35Z</time>
      </trkpt>
      <trkpt lat="48.5387" lon="2.07459">
        <ele>99</ele>
        <time>2019-05-12T14:26:44Z</time>
      </trkpt>
      <trkpt lat="48.53861" lon="2.0745">
        <ele>97</ele>
        <time>2019-05-12T14:26:50Z</time>
      </trkpt>
      <trkpt lat="48.53856" lon="2.07438">
        <ele>97</ele>
        <time>2019-05-12T14:26:57Z</time>
      </trkpt>
      <trkpt lat="48.5385" lon="2.07426">
        <ele>97</ele>
        <time>2019-05-12T14:27:07Z</time>
      </trkpt>
      <trkpt lat="48.53847" lon="2.07413">
        <ele>97</ele>
        <time>2019-05-12T14:27:12Z</time>
      </trkpt>
      <trkpt lat="48.5384" lon="2.07403">
        <ele>95</ele>
        <time>2019-05-12T14:27:18Z</time>
      </trkpt>
      <trkpt lat="48.53834" lon="2.07391">
        <ele>95</ele>
        <time>2019-05-12T14:27:26Z</time>
      </trkpt>
      <trkpt lat="48.53827" lon="2.07381">
        <ele>94</ele>
        <time>2019-05-12T14:27:31Z</time>
      </trkpt>
      <trkpt lat="48.5382" lon="2.07371">
        <ele>94</ele>
        <time>2019-05-12T14:27:39Z</time>
      </trkpt>
      <trkpt lat="48.53813" lon="2.07359">
        <ele>93</ele>
        <time>2019-05-12T14:27:46Z</time>
      </trkpt>
      <trkpt lat="48.53809" lon="2.07347">
        <ele>93</ele>
        <time>2019-05-12T14:27:53Z</time>
      </trkpt>
      <trkpt lat="48.53805" lon="2.07335">
        <ele>93</ele>
        <time>2019-05-12T14:28:00Z</time>
      </trkpt>
      <trkpt lat="48.53799" lon="2.07323">
        <ele>92</ele>
        <time>2019-05-12T14:28:08Z</time>
      </trkpt>
      <trkpt lat="48.53793" lon="2.0731">
        <ele>92</ele>
        <time>2019-05-12T14:28:15Z</time>
      </trkpt>
      <trkpt lat="48.53786" lon="2.07298">
        <ele>91</ele>
        <time>2019-05-12T14:28:20Z</time>
      </trkpt>
      <trkpt lat="48.53783" lon="2.07283">
        <ele>92</ele>
        <time>2019-05-12T14:28:33Z</time>
      </trkpt>
      <trkpt lat="48.53777" lon="2.07269">
        <ele>91</ele>
        <time>2019-05-12T14:28:37Z</time>
      </trkpt>
      <trkpt lat="48.53772" lon="2.07258">
        <ele>91</ele>
        <time>2019-05-12T14:28:47Z</time>
      </trkpt>
      <trkpt lat="48.53766" lon="2.07247">
        <ele>91</ele>
        <time>2019-05-12T14:28:52Z</time>
      </trkpt>
      <trkpt lat="48.53761" lon="2.07235">
        <ele>92</ele>
        <time>2019-05-12T14:29:00Z</time>
      </trkpt>
      <trkpt lat="48.53753" lon="2.07225">
        <ele>92</ele>
        <time>2019-05-12T14:29:06Z</time>
      </trkpt>
      <trkpt lat="48.53747" lon="2.07215">
        <ele>93</ele>
        <time>2019-05-12T14:29:14Z</time>
      </trkpt>
      <trkpt lat="48.5374" lon="2.07205">
        <ele>94</ele>
        <time>2019-05-12T14:29:20Z</time>
      </trkpt>
      <trkpt lat="48.53734" lon="2.07194">
        <ele>94</ele>
        <time>2019-05-12T14:29:28Z</time>
      </trkpt>
      <trkpt lat="48.53727" lon="2.07186">
        <ele>94</ele>
        <time>2019-05-12T14:29:34Z</time>
      </trkpt>
      <trkpt lat="48.5372" lon="2.07174">
        <ele>95</ele>
        <time>2019-05-12T14:29:44Z</time>
      </trkpt>
      <trkpt lat="48.53714" lon="2.07164">
        <ele>95</ele>
        <time>2019-05-12T14:29:52Z</time>
      </trkpt>
      <trkpt lat="48.53706" lon="2.07154">
        <ele>95</ele>
        <time>2019-05-12T14:29:59Z</time>
      </trkpt>
      <trkpt lat="48.537" lon="2.07142">
        <ele>95</ele>
        <time>2019-05-12T14:30:07Z</time>
      </trkpt>
      <trkpt lat="48.53695" lon="2.0713">
        <ele>96</ele>
        <time>2019-05-12T14:30:14Z</time>
      </trkpt>
      <trkpt lat="48.53689" lon="2.07118">
        <ele>97</ele>
        <time>2019-05-12T14:30:21Z</time>
      </trkpt>
      <trkpt lat="48.53681" lon="2.07108">
        <ele>97</ele>
        <time>2019-05-12T14:30:27Z</time>
      </trkpt>
      <trkpt lat="48.53676" lon="2.07093">
        <ele>98</ele>
        <time>2019-05-12T14:30:36Z</time>
      </trkpt>
      <trkpt lat="48.53673" lon="2.07084">
        <ele>98</ele>
      </trkpt>
      <trkpt lat="48.53667" lon="2.0707">
        <ele>98</ele>
        <time>2019-05-12T14:30:45Z</time>
      </trkpt>
      <trkpt lat="48.53663" lon="2.07065">
        <ele>98</ele>
        <time>2019-05-12T14:30:59Z</time>
      </trkpt>
      <trkpt lat="48.53652" lon="2.07049">
        <ele>97</ele>
        <time>2019-05-12T14:31:06Z</time>
      </trkpt>
      <trkpt lat="48.53648" lon="2.07035">
        <ele>98</ele>
        <time>2019-05-12T14:31:15Z</time>
      </trkpt>
      <trkpt lat="48.53644" lon="2.07021">
        <ele>98</ele>
        <time>2019-05-12T14:31:19Z</time>
      </trkpt>
      <trkpt lat="48.53637" lon="2.07012">
        <ele>97</ele>
        <time>2019-05-12T14:34:05Z</time>
      </trkpt>
      <trkpt lat="48.53631" lon="2.06999">
        <ele>97</ele>
        <time>2019-05-12T14:34:15Z</time>
      </trkpt>
      <trkpt lat="48.53625" lon="2.06988">
        <ele>96</ele>
        <time>2019-05-12T14:34:24Z</time>
      </trkpt>
      <trkpt lat="48.53618" lon="2.06978">
        <ele>95</ele>
        <time>2019-05-12T14:34:34Z</time>
      </trkpt>
      <trkpt lat="48.53611" lon="2.06969">
        <ele>94</ele>
        <time>2019-05-12T14:34:43Z</time>
      </trkpt>
      <trkpt lat="48.53607" lon="2.06956">
        <ele>94</ele>
        <time>2019-05-12T14:34:53Z</time>
      </trkpt>
      <trkpt lat="48.53599" lon="2.06946">
        <ele>93</ele>
        <time>2019-05-12T14:35:02Z</time>
      </trkpt>
      <trkpt lat="48.53593" lon="2.06935">
        <ele>92</ele>
        <time>2019-05-12T14:35:10Z</time>
      </trkpt>
      <trkpt lat="48.53587" lon="2.06924">
        <ele>91</ele>
        <time>2019-05-12T14:35:20Z</time>
      </trkpt>
      <trkpt lat="48.5358" lon="2.06913">
        <ele>91</ele>
        <time>2019-05-12T14:35:28Z</time>
      </trkpt>
    </trkseg>
  </trk>
</gpx>